<?xml version="1.0" encoding="UTF-8" standalone="no" ?>
<gpx xmlns="http://www.topografix.com/GPX/1/1" xmlns:xsi="http://www.w3.org/2001/XMLSchema-instance" xsi:schemaLocation="http://www.topografix.com/GPX/1/1 http://www.topografix.com/GPX/1/1/gpx.xsd" version="1.1" creator="VisuGPX - https://www.visugpx.com">
  <metadata>
    <name>VTT sortie Etrigny-Laives</name>
    <desc><![CDATA[sortie avec Thierry, Jules, Philippe]]></desc>
  </metadata>
  <trk>
    <name><![CDATA[runtastic_20120817_0800_VTT]]></name>
    <trkseg>
      <trkpt lat="46.59743" lon="4.80925">
        <ele>266</ele>
        <time>2012-08-17T08:00:29.000Z</time>
      </trkpt>
      <trkpt lat="46.5974" lon="4.80926">
        <ele>266</ele>
        <time>2012-08-17T08:00:38.000Z</time>
      </trkpt>
      <trkpt lat="46.59741" lon="4.80926">
        <ele>266</ele>
        <time>2012-08-17T08:00:40.000Z</time>
      </trkpt>
      <trkpt lat="46.5974" lon="4.80923">
        <ele>266</ele>
        <time>2012-08-17T08:00:42.000Z</time>
      </trkpt>
      <trkpt lat="46.59742" lon="4.80921">
        <ele>266</ele>
        <time>2012-08-17T08:00:46.000Z</time>
      </trkpt>
      <trkpt lat="46.59742" lon="4.80921">
        <ele>266</ele>
        <time>2012-08-17T08:01:06.000Z</time>
      </trkpt>
      <trkpt lat="46.59742" lon="4.80924">
        <ele>266</ele>
        <time>2012-08-17T08:01:38.000Z</time>
      </trkpt>
      <trkpt lat="46.59734" lon="4.80977">
        <ele>267</ele>
        <time>2012-08-17T08:01:54.000Z</time>
      </trkpt>
      <trkpt lat="46.59725" lon="4.81014">
        <ele>268</ele>
        <time>2012-08-17T08:02:03.000Z</time>
      </trkpt>
      <trkpt lat="46.59719" lon="4.81044">
        <ele>269</ele>
        <time>2012-08-17T08:02:09.000Z</time>
      </trkpt>
      <trkpt lat="46.59717" lon="4.81062">
        <ele>270</ele>
        <time>2012-08-17T08:02:13.000Z</time>
      </trkpt>
      <trkpt lat="46.59712" lon="4.81087">
        <ele>271</ele>
        <time>2012-08-17T08:02:19.000Z</time>
      </trkpt>
      <trkpt lat="46.5971" lon="4.81104">
        <ele>272</ele>
        <time>2012-08-17T08:02:23.000Z</time>
      </trkpt>
      <trkpt lat="46.59706" lon="4.81122">
        <ele>273</ele>
        <time>2012-08-17T08:02:28.000Z</time>
      </trkpt>
      <trkpt lat="46.59705" lon="4.81128">
        <ele>274</ele>
        <time>2012-08-17T08:02:30.000Z</time>
      </trkpt>
      <trkpt lat="46.59704" lon="4.81134">
        <ele>275</ele>
        <time>2012-08-17T08:02:32.000Z</time>
      </trkpt>
      <trkpt lat="46.59702" lon="4.81146">
        <ele>276</ele>
        <time>2012-08-17T08:02:37.000Z</time>
      </trkpt>
      <trkpt lat="46.597" lon="4.81155">
        <ele>277</ele>
        <time>2012-08-17T08:02:43.000Z</time>
      </trkpt>
      <trkpt lat="46.597" lon="4.81158">
        <ele>277</ele>
        <time>2012-08-17T08:02:45.000Z</time>
      </trkpt>
      <trkpt lat="46.59697" lon="4.81175">
        <ele>278</ele>
        <time>2012-08-17T08:02:51.000Z</time>
      </trkpt>
      <trkpt lat="46.59694" lon="4.81184">
        <ele>279</ele>
        <time>2012-08-17T08:02:55.000Z</time>
      </trkpt>
      <trkpt lat="46.59692" lon="4.81188">
        <ele>280</ele>
        <time>2012-08-17T08:02:57.000Z</time>
      </trkpt>
      <trkpt lat="46.59688" lon="4.81201">
        <ele>281</ele>
        <time>2012-08-17T08:03:03.000Z</time>
      </trkpt>
      <trkpt lat="46.59686" lon="4.81208">
        <ele>281</ele>
        <time>2012-08-17T08:03:06.000Z</time>
      </trkpt>
      <trkpt lat="46.59684" lon="4.81215">
        <ele>282</ele>
        <time>2012-08-17T08:03:09.000Z</time>
      </trkpt>
      <trkpt lat="46.59681" lon="4.81221">
        <ele>283</ele>
        <time>2012-08-17T08:03:12.000Z</time>
      </trkpt>
      <trkpt lat="46.59676" lon="4.81238">
        <ele>284</ele>
        <time>2012-08-17T08:03:18.000Z</time>
      </trkpt>
      <trkpt lat="46.59674" lon="4.81244">
        <ele>285</ele>
        <time>2012-08-17T08:03:20.000Z</time>
      </trkpt>
      <trkpt lat="46.59675" lon="4.81251">
        <ele>286</ele>
        <time>2012-08-17T08:03:23.000Z</time>
      </trkpt>
      <trkpt lat="46.59674" lon="4.81258">
        <ele>286</ele>
        <time>2012-08-17T08:03:26.000Z</time>
      </trkpt>
      <trkpt lat="46.59675" lon="4.81262">
        <ele>287</ele>
        <time>2012-08-17T08:03:28.000Z</time>
      </trkpt>
      <trkpt lat="46.59677" lon="4.81267">
        <ele>288</ele>
        <time>2012-08-17T08:03:31.000Z</time>
      </trkpt>
      <trkpt lat="46.59677" lon="4.81271">
        <ele>289</ele>
        <time>2012-08-17T08:03:33.000Z</time>
      </trkpt>
      <trkpt lat="46.59677" lon="4.81279">
        <ele>290</ele>
        <time>2012-08-17T08:03:36.000Z</time>
      </trkpt>
      <trkpt lat="46.59677" lon="4.81286">
        <ele>291</ele>
        <time>2012-08-17T08:03:39.000Z</time>
      </trkpt>
      <trkpt lat="46.59676" lon="4.81293">
        <ele>292</ele>
        <time>2012-08-17T08:03:42.000Z</time>
      </trkpt>
      <trkpt lat="46.59676" lon="4.81297">
        <ele>292</ele>
        <time>2012-08-17T08:03:44.000Z</time>
      </trkpt>
      <trkpt lat="46.59675" lon="4.81301">
        <ele>293</ele>
        <time>2012-08-17T08:03:46.000Z</time>
      </trkpt>
      <trkpt lat="46.59674" lon="4.81307">
        <ele>294</ele>
        <time>2012-08-17T08:03:49.000Z</time>
      </trkpt>
      <trkpt lat="46.59674" lon="4.81312">
        <ele>295</ele>
        <time>2012-08-17T08:03:52.000Z</time>
      </trkpt>
      <trkpt lat="46.59673" lon="4.81321">
        <ele>296</ele>
        <time>2012-08-17T08:03:57.000Z</time>
      </trkpt>
      <trkpt lat="46.59672" lon="4.81325">
        <ele>297</ele>
        <time>2012-08-17T08:03:59.000Z</time>
      </trkpt>
      <trkpt lat="46.59671" lon="4.81328">
        <ele>297</ele>
        <time>2012-08-17T08:04:01.000Z</time>
      </trkpt>
      <trkpt lat="46.59669" lon="4.81333">
        <ele>297</ele>
        <time>2012-08-17T08:04:04.000Z</time>
      </trkpt>
      <trkpt lat="46.59668" lon="4.81339">
        <ele>298</ele>
        <time>2012-08-17T08:04:07.000Z</time>
      </trkpt>
      <trkpt lat="46.59665" lon="4.81348">
        <ele>299</ele>
        <time>2012-08-17T08:04:12.000Z</time>
      </trkpt>
      <trkpt lat="46.59664" lon="4.81352">
        <ele>299</ele>
        <time>2012-08-17T08:04:14.000Z</time>
      </trkpt>
      <trkpt lat="46.59663" lon="4.81356">
        <ele>300</ele>
        <time>2012-08-17T08:04:17.000Z</time>
      </trkpt>
      <trkpt lat="46.59664" lon="4.81362">
        <ele>300</ele>
        <time>2012-08-17T08:04:20.000Z</time>
      </trkpt>
      <trkpt lat="46.59664" lon="4.81369">
        <ele>301</ele>
        <time>2012-08-17T08:04:23.000Z</time>
      </trkpt>
      <trkpt lat="46.59663" lon="4.81379">
        <ele>302</ele>
        <time>2012-08-17T08:04:28.000Z</time>
      </trkpt>
      <trkpt lat="46.59662" lon="4.81383">
        <ele>303</ele>
        <time>2012-08-17T08:04:31.000Z</time>
      </trkpt>
      <trkpt lat="46.59662" lon="4.81397">
        <ele>304</ele>
        <time>2012-08-17T08:04:37.000Z</time>
      </trkpt>
      <trkpt lat="46.59662" lon="4.81401">
        <ele>305</ele>
        <time>2012-08-17T08:04:39.000Z</time>
      </trkpt>
      <trkpt lat="46.59666" lon="4.81414">
        <ele>306</ele>
        <time>2012-08-17T08:04:48.000Z</time>
      </trkpt>
      <trkpt lat="46.59665" lon="4.81426">
        <ele>306</ele>
        <time>2012-08-17T08:04:54.000Z</time>
      </trkpt>
      <trkpt lat="46.59663" lon="4.81433">
        <ele>306</ele>
        <time>2012-08-17T08:04:57.000Z</time>
      </trkpt>
      <trkpt lat="46.59662" lon="4.81437">
        <ele>307</ele>
        <time>2012-08-17T08:04:59.000Z</time>
      </trkpt>
      <trkpt lat="46.59659" lon="4.81447">
        <ele>308</ele>
        <time>2012-08-17T08:05:04.000Z</time>
      </trkpt>
      <trkpt lat="46.59654" lon="4.81463">
        <ele>309</ele>
        <time>2012-08-17T08:05:10.000Z</time>
      </trkpt>
      <trkpt lat="46.59649" lon="4.81471">
        <ele>310</ele>
        <time>2012-08-17T08:05:14.000Z</time>
      </trkpt>
      <trkpt lat="46.59647" lon="4.81474">
        <ele>310</ele>
        <time>2012-08-17T08:05:16.000Z</time>
      </trkpt>
      <trkpt lat="46.59646" lon="4.81476">
        <ele>311</ele>
        <time>2012-08-17T08:05:19.000Z</time>
      </trkpt>
      <trkpt lat="46.59645" lon="4.8148">
        <ele>311</ele>
        <time>2012-08-17T08:05:22.000Z</time>
      </trkpt>
      <trkpt lat="46.59642" lon="4.81488">
        <ele>312</ele>
        <time>2012-08-17T08:05:25.000Z</time>
      </trkpt>
      <trkpt lat="46.5964" lon="4.81492">
        <ele>312</ele>
        <time>2012-08-17T08:05:27.000Z</time>
      </trkpt>
      <trkpt lat="46.59636" lon="4.81496">
        <ele>313</ele>
        <time>2012-08-17T08:05:30.000Z</time>
      </trkpt>
      <trkpt lat="46.59634" lon="4.81499">
        <ele>313</ele>
        <time>2012-08-17T08:05:32.000Z</time>
      </trkpt>
      <trkpt lat="46.59631" lon="4.81506">
        <ele>314</ele>
        <time>2012-08-17T08:05:35.000Z</time>
      </trkpt>
      <trkpt lat="46.59629" lon="4.81512">
        <ele>314</ele>
        <time>2012-08-17T08:05:38.000Z</time>
      </trkpt>
      <trkpt lat="46.59628" lon="4.81515">
        <ele>315</ele>
        <time>2012-08-17T08:05:40.000Z</time>
      </trkpt>
      <trkpt lat="46.59625" lon="4.81517">
        <ele>315</ele>
        <time>2012-08-17T08:05:43.000Z</time>
      </trkpt>
      <trkpt lat="46.59623" lon="4.81521">
        <ele>315</ele>
        <time>2012-08-17T08:05:46.000Z</time>
      </trkpt>
      <trkpt lat="46.59623" lon="4.81525">
        <ele>316</ele>
        <time>2012-08-17T08:05:48.000Z</time>
      </trkpt>
      <trkpt lat="46.5962" lon="4.81531">
        <ele>316</ele>
        <time>2012-08-17T08:05:51.000Z</time>
      </trkpt>
      <trkpt lat="46.59616" lon="4.81535">
        <ele>316</ele>
        <time>2012-08-17T08:05:54.000Z</time>
      </trkpt>
      <trkpt lat="46.59611" lon="4.8154">
        <ele>316</ele>
        <time>2012-08-17T08:05:59.000Z</time>
      </trkpt>
      <trkpt lat="46.5961" lon="4.81543">
        <ele>316</ele>
        <time>2012-08-17T08:06:01.000Z</time>
      </trkpt>
      <trkpt lat="46.59608" lon="4.81546">
        <ele>316</ele>
        <time>2012-08-17T08:06:04.000Z</time>
      </trkpt>
      <trkpt lat="46.59607" lon="4.8155">
        <ele>316</ele>
        <time>2012-08-17T08:06:07.000Z</time>
      </trkpt>
      <trkpt lat="46.59606" lon="4.81552">
        <ele>316</ele>
        <time>2012-08-17T08:06:09.000Z</time>
      </trkpt>
      <trkpt lat="46.59603" lon="4.81554">
        <ele>316</ele>
        <time>2012-08-17T08:06:11.000Z</time>
      </trkpt>
      <trkpt lat="46.59595" lon="4.81559">
        <ele>316</ele>
        <time>2012-08-17T08:06:17.000Z</time>
      </trkpt>
      <trkpt lat="46.59593" lon="4.8156">
        <ele>316</ele>
        <time>2012-08-17T08:06:20.000Z</time>
      </trkpt>
      <trkpt lat="46.5959" lon="4.81563">
        <ele>315</ele>
        <time>2012-08-17T08:06:23.000Z</time>
      </trkpt>
      <trkpt lat="46.59589" lon="4.81565">
        <ele>315</ele>
        <time>2012-08-17T08:06:25.000Z</time>
      </trkpt>
      <trkpt lat="46.59583" lon="4.8157">
        <ele>315</ele>
        <time>2012-08-17T08:06:31.000Z</time>
      </trkpt>
      <trkpt lat="46.59581" lon="4.8157">
        <ele>314</ele>
        <time>2012-08-17T08:06:33.000Z</time>
      </trkpt>
      <trkpt lat="46.59578" lon="4.81571">
        <ele>314</ele>
        <time>2012-08-17T08:06:35.000Z</time>
      </trkpt>
      <trkpt lat="46.59574" lon="4.81571">
        <ele>315</ele>
        <time>2012-08-17T08:06:38.000Z</time>
      </trkpt>
      <trkpt lat="46.59568" lon="4.81573">
        <ele>316</ele>
        <time>2012-08-17T08:06:41.000Z</time>
      </trkpt>
      <trkpt lat="46.59565" lon="4.8158">
        <ele>316</ele>
        <time>2012-08-17T08:06:44.000Z</time>
      </trkpt>
      <trkpt lat="46.59562" lon="4.81585">
        <ele>317</ele>
        <time>2012-08-17T08:06:47.000Z</time>
      </trkpt>
      <trkpt lat="46.5956" lon="4.81589">
        <ele>318</ele>
        <time>2012-08-17T08:06:50.000Z</time>
      </trkpt>
      <trkpt lat="46.59553" lon="4.816">
        <ele>319</ele>
        <time>2012-08-17T08:06:58.000Z</time>
      </trkpt>
      <trkpt lat="46.59551" lon="4.81602">
        <ele>319</ele>
        <time>2012-08-17T08:07:00.000Z</time>
      </trkpt>
      <trkpt lat="46.59548" lon="4.81606">
        <ele>320</ele>
        <time>2012-08-17T08:07:03.000Z</time>
      </trkpt>
      <trkpt lat="46.59547" lon="4.81607">
        <ele>320</ele>
        <time>2012-08-17T08:07:05.000Z</time>
      </trkpt>
      <trkpt lat="46.59544" lon="4.81608">
        <ele>320</ele>
        <time>2012-08-17T08:07:08.000Z</time>
      </trkpt>
      <trkpt lat="46.59542" lon="4.81609">
        <ele>321</ele>
        <time>2012-08-17T08:07:11.000Z</time>
      </trkpt>
      <trkpt lat="46.59537" lon="4.81613">
        <ele>322</ele>
        <time>2012-08-17T08:07:16.000Z</time>
      </trkpt>
      <trkpt lat="46.59533" lon="4.81615">
        <ele>322</ele>
        <time>2012-08-17T08:07:19.000Z</time>
      </trkpt>
      <trkpt lat="46.59528" lon="4.81619">
        <ele>323</ele>
        <time>2012-08-17T08:07:22.000Z</time>
      </trkpt>
      <trkpt lat="46.59523" lon="4.81621">
        <ele>323</ele>
        <time>2012-08-17T08:07:24.000Z</time>
      </trkpt>
      <trkpt lat="46.59519" lon="4.81623">
        <ele>324</ele>
        <time>2012-08-17T08:07:27.000Z</time>
      </trkpt>
      <trkpt lat="46.59517" lon="4.81624">
        <ele>324</ele>
        <time>2012-08-17T08:07:29.000Z</time>
      </trkpt>
      <trkpt lat="46.59514" lon="4.81627">
        <ele>325</ele>
        <time>2012-08-17T08:07:32.000Z</time>
      </trkpt>
      <trkpt lat="46.59509" lon="4.81633">
        <ele>326</ele>
        <time>2012-08-17T08:07:39.000Z</time>
      </trkpt>
      <trkpt lat="46.59505" lon="4.81635">
        <ele>326</ele>
        <time>2012-08-17T08:07:42.000Z</time>
      </trkpt>
      <trkpt lat="46.59502" lon="4.81638">
        <ele>326</ele>
        <time>2012-08-17T08:07:44.000Z</time>
      </trkpt>
      <trkpt lat="46.595" lon="4.81641">
        <ele>326</ele>
        <time>2012-08-17T08:07:46.000Z</time>
      </trkpt>
      <trkpt lat="46.59497" lon="4.81646">
        <ele>326</ele>
        <time>2012-08-17T08:07:49.000Z</time>
      </trkpt>
      <trkpt lat="46.59493" lon="4.81653">
        <ele>327</ele>
        <time>2012-08-17T08:07:54.000Z</time>
      </trkpt>
      <trkpt lat="46.5949" lon="4.81661">
        <ele>328</ele>
        <time>2012-08-17T08:08:00.000Z</time>
      </trkpt>
      <trkpt lat="46.59491" lon="4.81665">
        <ele>328</ele>
        <time>2012-08-17T08:08:02.000Z</time>
      </trkpt>
      <trkpt lat="46.5949" lon="4.8167">
        <ele>328</ele>
        <time>2012-08-17T08:08:04.000Z</time>
      </trkpt>
      <trkpt lat="46.59489" lon="4.81677">
        <ele>328</ele>
        <time>2012-08-17T08:08:07.000Z</time>
      </trkpt>
      <trkpt lat="46.59485" lon="4.81687">
        <ele>328</ele>
        <time>2012-08-17T08:08:12.000Z</time>
      </trkpt>
      <trkpt lat="46.59483" lon="4.81691">
        <ele>329</ele>
        <time>2012-08-17T08:08:14.000Z</time>
      </trkpt>
      <trkpt lat="46.5948" lon="4.81698">
        <ele>330</ele>
        <time>2012-08-17T08:08:17.000Z</time>
      </trkpt>
      <trkpt lat="46.59476" lon="4.81707">
        <ele>331</ele>
        <time>2012-08-17T08:08:22.000Z</time>
      </trkpt>
      <trkpt lat="46.59475" lon="4.81713">
        <ele>332</ele>
        <time>2012-08-17T08:08:25.000Z</time>
      </trkpt>
      <trkpt lat="46.59472" lon="4.81717">
        <ele>333</ele>
        <time>2012-08-17T08:08:28.000Z</time>
      </trkpt>
      <trkpt lat="46.59471" lon="4.8172">
        <ele>334</ele>
        <time>2012-08-17T08:08:30.000Z</time>
      </trkpt>
      <trkpt lat="46.5947" lon="4.81723">
        <ele>335</ele>
        <time>2012-08-17T08:08:32.000Z</time>
      </trkpt>
      <trkpt lat="46.59469" lon="4.81728">
        <ele>335</ele>
        <time>2012-08-17T08:08:35.000Z</time>
      </trkpt>
      <trkpt lat="46.59468" lon="4.81739">
        <ele>336</ele>
        <time>2012-08-17T08:08:40.000Z</time>
      </trkpt>
      <trkpt lat="46.59466" lon="4.81747">
        <ele>336</ele>
        <time>2012-08-17T08:08:43.000Z</time>
      </trkpt>
      <trkpt lat="46.59461" lon="4.81766">
        <ele>337</ele>
        <time>2012-08-17T08:08:51.000Z</time>
      </trkpt>
      <trkpt lat="46.59459" lon="4.81769">
        <ele>337</ele>
        <time>2012-08-17T08:08:53.000Z</time>
      </trkpt>
      <trkpt lat="46.59458" lon="4.81774">
        <ele>338</ele>
        <time>2012-08-17T08:08:56.000Z</time>
      </trkpt>
      <trkpt lat="46.59454" lon="4.8179">
        <ele>339</ele>
        <time>2012-08-17T08:09:03.000Z</time>
      </trkpt>
      <trkpt lat="46.59453" lon="4.81801">
        <ele>339</ele>
        <time>2012-08-17T08:09:08.000Z</time>
      </trkpt>
      <trkpt lat="46.59452" lon="4.81802">
        <ele>339</ele>
        <time>2012-08-17T08:09:10.000Z</time>
      </trkpt>
      <trkpt lat="46.5945" lon="4.81807">
        <ele>340</ele>
        <time>2012-08-17T08:09:13.000Z</time>
      </trkpt>
      <trkpt lat="46.5945" lon="4.81812">
        <ele>340</ele>
        <time>2012-08-17T08:09:16.000Z</time>
      </trkpt>
      <trkpt lat="46.59451" lon="4.81817">
        <ele>340</ele>
        <time>2012-08-17T08:09:19.000Z</time>
      </trkpt>
      <trkpt lat="46.5945" lon="4.81821">
        <ele>340</ele>
        <time>2012-08-17T08:09:21.000Z</time>
      </trkpt>
      <trkpt lat="46.59447" lon="4.81829">
        <ele>340</ele>
        <time>2012-08-17T08:09:24.000Z</time>
      </trkpt>
      <trkpt lat="46.59445" lon="4.81835">
        <ele>340</ele>
        <time>2012-08-17T08:09:26.000Z</time>
      </trkpt>
      <trkpt lat="46.59444" lon="4.81843">
        <ele>340</ele>
        <time>2012-08-17T08:09:29.000Z</time>
      </trkpt>
      <trkpt lat="46.59441" lon="4.81854">
        <ele>340</ele>
        <time>2012-08-17T08:09:34.000Z</time>
      </trkpt>
      <trkpt lat="46.59431" lon="4.81887">
        <ele>341</ele>
        <time>2012-08-17T08:09:51.000Z</time>
      </trkpt>
      <trkpt lat="46.59412" lon="4.81947">
        <ele>341</ele>
        <time>2012-08-17T08:10:18.000Z</time>
      </trkpt>
      <trkpt lat="46.59411" lon="4.81951">
        <ele>342</ele>
        <time>2012-08-17T08:10:20.000Z</time>
      </trkpt>
      <trkpt lat="46.59411" lon="4.81956">
        <ele>342</ele>
        <time>2012-08-17T08:10:22.000Z</time>
      </trkpt>
      <trkpt lat="46.59409" lon="4.81967">
        <ele>342</ele>
        <time>2012-08-17T08:10:25.000Z</time>
      </trkpt>
      <trkpt lat="46.59407" lon="4.81972">
        <ele>343</ele>
        <time>2012-08-17T08:10:27.000Z</time>
      </trkpt>
      <trkpt lat="46.59404" lon="4.81977">
        <ele>343</ele>
        <time>2012-08-17T08:10:29.000Z</time>
      </trkpt>
      <trkpt lat="46.59401" lon="4.8198">
        <ele>344</ele>
        <time>2012-08-17T08:10:31.000Z</time>
      </trkpt>
      <trkpt lat="46.59396" lon="4.81988">
        <ele>345</ele>
        <time>2012-08-17T08:10:36.000Z</time>
      </trkpt>
      <trkpt lat="46.59394" lon="4.81992">
        <ele>346</ele>
        <time>2012-08-17T08:10:38.000Z</time>
      </trkpt>
      <trkpt lat="46.59393" lon="4.81998">
        <ele>346</ele>
        <time>2012-08-17T08:10:41.000Z</time>
      </trkpt>
      <trkpt lat="46.59391" lon="4.82009">
        <ele>347</ele>
        <time>2012-08-17T08:10:46.000Z</time>
      </trkpt>
      <trkpt lat="46.59389" lon="4.82012">
        <ele>347</ele>
        <time>2012-08-17T08:10:48.000Z</time>
      </trkpt>
      <trkpt lat="46.59387" lon="4.82015">
        <ele>348</ele>
        <time>2012-08-17T08:10:50.000Z</time>
      </trkpt>
      <trkpt lat="46.59385" lon="4.82022">
        <ele>348</ele>
        <time>2012-08-17T08:10:53.000Z</time>
      </trkpt>
      <trkpt lat="46.59381" lon="4.8203">
        <ele>349</ele>
        <time>2012-08-17T08:10:56.000Z</time>
      </trkpt>
      <trkpt lat="46.59379" lon="4.82041">
        <ele>350</ele>
        <time>2012-08-17T08:11:01.000Z</time>
      </trkpt>
      <trkpt lat="46.59375" lon="4.82052">
        <ele>351</ele>
        <time>2012-08-17T08:11:06.000Z</time>
      </trkpt>
      <trkpt lat="46.59368" lon="4.82074">
        <ele>352</ele>
        <time>2012-08-17T08:11:16.000Z</time>
      </trkpt>
      <trkpt lat="46.59366" lon="4.82081">
        <ele>352</ele>
        <time>2012-08-17T08:11:19.000Z</time>
      </trkpt>
      <trkpt lat="46.59364" lon="4.82101">
        <ele>352</ele>
        <time>2012-08-17T08:11:26.000Z</time>
      </trkpt>
      <trkpt lat="46.59366" lon="4.82108">
        <ele>352</ele>
        <time>2012-08-17T08:11:29.000Z</time>
      </trkpt>
      <trkpt lat="46.59365" lon="4.82114">
        <ele>352</ele>
        <time>2012-08-17T08:11:31.000Z</time>
      </trkpt>
      <trkpt lat="46.59364" lon="4.8212">
        <ele>352</ele>
        <time>2012-08-17T08:11:34.000Z</time>
      </trkpt>
      <trkpt lat="46.5936" lon="4.82147">
        <ele>352</ele>
        <time>2012-08-17T08:12:04.000Z</time>
      </trkpt>
      <trkpt lat="46.59362" lon="4.82147">
        <ele>352</ele>
        <time>2012-08-17T08:12:13.000Z</time>
      </trkpt>
      <trkpt lat="46.59361" lon="4.82149">
        <ele>352</ele>
        <time>2012-08-17T08:12:16.000Z</time>
      </trkpt>
      <trkpt lat="46.59361" lon="4.82149">
        <ele>352</ele>
        <time>2012-08-17T08:12:21.000Z</time>
      </trkpt>
      <trkpt lat="46.5936" lon="4.82146">
        <ele>352</ele>
        <time>2012-08-17T08:12:24.000Z</time>
      </trkpt>
      <trkpt lat="46.59358" lon="4.82144">
        <ele>352</ele>
        <time>2012-08-17T08:12:26.000Z</time>
      </trkpt>
      <trkpt lat="46.59357" lon="4.82143">
        <ele>352</ele>
        <time>2012-08-17T08:12:29.000Z</time>
      </trkpt>
      <trkpt lat="46.59357" lon="4.82144">
        <ele>352</ele>
        <time>2012-08-17T08:12:32.000Z</time>
      </trkpt>
      <trkpt lat="46.59356" lon="4.8215">
        <ele>352</ele>
        <time>2012-08-17T08:12:35.000Z</time>
      </trkpt>
      <trkpt lat="46.59356" lon="4.82153">
        <ele>352</ele>
        <time>2012-08-17T08:12:38.000Z</time>
      </trkpt>
      <trkpt lat="46.59359" lon="4.82154">
        <ele>352</ele>
        <time>2012-08-17T08:12:42.000Z</time>
      </trkpt>
      <trkpt lat="46.59361" lon="4.82154">
        <ele>352</ele>
        <time>2012-08-17T08:12:44.000Z</time>
      </trkpt>
      <trkpt lat="46.59365" lon="4.82154">
        <ele>352</ele>
        <time>2012-08-17T08:12:50.000Z</time>
      </trkpt>
      <trkpt lat="46.59366" lon="4.82152">
        <ele>352</ele>
        <time>2012-08-17T08:13:09.000Z</time>
      </trkpt>
      <trkpt lat="46.59367" lon="4.82148">
        <ele>352</ele>
        <time>2012-08-17T08:13:12.000Z</time>
      </trkpt>
      <trkpt lat="46.59367" lon="4.82145">
        <ele>352</ele>
        <time>2012-08-17T08:13:15.000Z</time>
      </trkpt>
      <trkpt lat="46.59368" lon="4.82143">
        <ele>352</ele>
        <time>2012-08-17T08:13:17.000Z</time>
      </trkpt>
      <trkpt lat="46.59368" lon="4.82143">
        <ele>352</ele>
        <time>2012-08-17T08:13:37.000Z</time>
      </trkpt>
      <trkpt lat="46.59364" lon="4.82144">
        <ele>352</ele>
        <time>2012-08-17T08:13:58.000Z</time>
      </trkpt>
      <trkpt lat="46.59363" lon="4.82137">
        <ele>352</ele>
        <time>2012-08-17T08:14:07.000Z</time>
      </trkpt>
      <trkpt lat="46.59361" lon="4.82136">
        <ele>352</ele>
        <time>2012-08-17T08:14:24.000Z</time>
      </trkpt>
      <trkpt lat="46.59361" lon="4.82138">
        <ele>352</ele>
        <time>2012-08-17T08:14:29.000Z</time>
      </trkpt>
      <trkpt lat="46.59359" lon="4.82136">
        <ele>352</ele>
        <time>2012-08-17T08:14:41.000Z</time>
      </trkpt>
      <trkpt lat="46.59362" lon="4.82137">
        <ele>352</ele>
        <time>2012-08-17T08:14:44.000Z</time>
      </trkpt>
      <trkpt lat="46.59365" lon="4.8214">
        <ele>352</ele>
        <time>2012-08-17T08:14:53.000Z</time>
      </trkpt>
      <trkpt lat="46.59363" lon="4.82142">
        <ele>352</ele>
        <time>2012-08-17T08:14:56.000Z</time>
      </trkpt>
      <trkpt lat="46.59362" lon="4.82141">
        <ele>352</ele>
        <time>2012-08-17T08:15:02.000Z</time>
      </trkpt>
      <trkpt lat="46.59362" lon="4.8214">
        <ele>352</ele>
        <time>2012-08-17T08:15:07.000Z</time>
      </trkpt>
      <trkpt lat="46.59362" lon="4.82139">
        <ele>352</ele>
        <time>2012-08-17T08:15:09.000Z</time>
      </trkpt>
      <trkpt lat="46.59366" lon="4.82139">
        <ele>352</ele>
        <time>2012-08-17T08:15:24.000Z</time>
      </trkpt>
      <trkpt lat="46.59365" lon="4.8214">
        <ele>352</ele>
        <time>2012-08-17T08:15:27.000Z</time>
      </trkpt>
      <trkpt lat="46.59368" lon="4.82138">
        <ele>352</ele>
        <time>2012-08-17T08:15:32.000Z</time>
      </trkpt>
      <trkpt lat="46.59367" lon="4.82141">
        <ele>352</ele>
        <time>2012-08-17T08:15:35.000Z</time>
      </trkpt>
      <trkpt lat="46.59364" lon="4.82145">
        <ele>352</ele>
        <time>2012-08-17T08:15:37.000Z</time>
      </trkpt>
      <trkpt lat="46.5936" lon="4.82148">
        <ele>352</ele>
        <time>2012-08-17T08:15:40.000Z</time>
      </trkpt>
      <trkpt lat="46.59361" lon="4.82147">
        <ele>352</ele>
        <time>2012-08-17T08:15:43.000Z</time>
      </trkpt>
      <trkpt lat="46.59363" lon="4.82144">
        <ele>352</ele>
        <time>2012-08-17T08:15:46.000Z</time>
      </trkpt>
      <trkpt lat="46.59366" lon="4.82133">
        <ele>352</ele>
        <time>2012-08-17T08:16:02.000Z</time>
      </trkpt>
      <trkpt lat="46.59365" lon="4.82131">
        <ele>352</ele>
        <time>2012-08-17T08:16:04.000Z</time>
      </trkpt>
      <trkpt lat="46.59364" lon="4.82129">
        <ele>352</ele>
        <time>2012-08-17T08:16:07.000Z</time>
      </trkpt>
      <trkpt lat="46.59364" lon="4.82128">
        <ele>352</ele>
        <time>2012-08-17T08:16:10.000Z</time>
      </trkpt>
      <trkpt lat="46.59363" lon="4.82127">
        <ele>352</ele>
        <time>2012-08-17T08:16:13.000Z</time>
      </trkpt>
      <trkpt lat="46.59362" lon="4.82125">
        <ele>352</ele>
        <time>2012-08-17T08:16:19.000Z</time>
      </trkpt>
      <trkpt lat="46.59361" lon="4.82126">
        <ele>352</ele>
        <time>2012-08-17T08:16:22.000Z</time>
      </trkpt>
      <trkpt lat="46.59361" lon="4.82125">
        <ele>352</ele>
        <time>2012-08-17T08:16:28.000Z</time>
      </trkpt>
      <trkpt lat="46.59362" lon="4.82124">
        <ele>352</ele>
        <time>2012-08-17T08:16:31.000Z</time>
      </trkpt>
      <trkpt lat="46.59362" lon="4.82124">
        <ele>352</ele>
        <time>2012-08-17T08:16:51.000Z</time>
      </trkpt>
      <trkpt lat="46.59364" lon="4.82129">
        <ele>352</ele>
        <time>2012-08-17T08:17:01.000Z</time>
      </trkpt>
      <trkpt lat="46.59362" lon="4.8213">
        <ele>352</ele>
        <time>2012-08-17T08:17:03.000Z</time>
      </trkpt>
      <trkpt lat="46.5936" lon="4.82132">
        <ele>352</ele>
        <time>2012-08-17T08:17:06.000Z</time>
      </trkpt>
      <trkpt lat="46.59359" lon="4.82131">
        <ele>352</ele>
        <time>2012-08-17T08:17:12.000Z</time>
      </trkpt>
      <trkpt lat="46.59358" lon="4.82128">
        <ele>352</ele>
        <time>2012-08-17T08:17:15.000Z</time>
      </trkpt>
      <trkpt lat="46.59357" lon="4.82123">
        <ele>353</ele>
        <time>2012-08-17T08:17:26.000Z</time>
      </trkpt>
      <trkpt lat="46.59356" lon="4.82122">
        <ele>353</ele>
        <time>2012-08-17T08:17:28.000Z</time>
      </trkpt>
      <trkpt lat="46.59356" lon="4.82121">
        <ele>353</ele>
        <time>2012-08-17T08:17:33.000Z</time>
      </trkpt>
      <trkpt lat="46.59359" lon="4.82122">
        <ele>353</ele>
        <time>2012-08-17T08:17:36.000Z</time>
      </trkpt>
      <trkpt lat="46.59362" lon="4.82124">
        <ele>353</ele>
        <time>2012-08-17T08:17:39.000Z</time>
      </trkpt>
      <trkpt lat="46.59365" lon="4.82126">
        <ele>352</ele>
        <time>2012-08-17T08:17:42.000Z</time>
      </trkpt>
      <trkpt lat="46.59367" lon="4.82126">
        <ele>352</ele>
        <time>2012-08-17T08:17:45.000Z</time>
      </trkpt>
      <trkpt lat="46.59367" lon="4.82128">
        <ele>352</ele>
        <time>2012-08-17T08:17:48.000Z</time>
      </trkpt>
      <trkpt lat="46.59367" lon="4.8213">
        <ele>352</ele>
        <time>2012-08-17T08:17:51.000Z</time>
      </trkpt>
      <trkpt lat="46.59366" lon="4.82136">
        <ele>352</ele>
        <time>2012-08-17T08:17:56.000Z</time>
      </trkpt>
      <trkpt lat="46.59362" lon="4.82141">
        <ele>352</ele>
        <time>2012-08-17T08:17:59.000Z</time>
      </trkpt>
      <trkpt lat="46.59348" lon="4.8216">
        <ele>353</ele>
        <time>2012-08-17T08:18:10.000Z</time>
      </trkpt>
      <trkpt lat="46.59336" lon="4.82182">
        <ele>353</ele>
        <time>2012-08-17T08:18:22.000Z</time>
      </trkpt>
      <trkpt lat="46.59334" lon="4.82188">
        <ele>353</ele>
        <time>2012-08-17T08:18:25.000Z</time>
      </trkpt>
      <trkpt lat="46.59331" lon="4.82192">
        <ele>353</ele>
        <time>2012-08-17T08:18:28.000Z</time>
      </trkpt>
      <trkpt lat="46.59325" lon="4.82199">
        <ele>353</ele>
        <time>2012-08-17T08:18:33.000Z</time>
      </trkpt>
      <trkpt lat="46.59322" lon="4.82201">
        <ele>354</ele>
        <time>2012-08-17T08:18:36.000Z</time>
      </trkpt>
      <trkpt lat="46.5932" lon="4.82204">
        <ele>354</ele>
        <time>2012-08-17T08:18:39.000Z</time>
      </trkpt>
      <trkpt lat="46.59319" lon="4.82207">
        <ele>355</ele>
        <time>2012-08-17T08:18:41.000Z</time>
      </trkpt>
      <trkpt lat="46.59317" lon="4.82213">
        <ele>355</ele>
        <time>2012-08-17T08:18:44.000Z</time>
      </trkpt>
      <trkpt lat="46.59316" lon="4.82216">
        <ele>355</ele>
        <time>2012-08-17T08:18:46.000Z</time>
      </trkpt>
      <trkpt lat="46.59313" lon="4.8222">
        <ele>355</ele>
        <time>2012-08-17T08:18:49.000Z</time>
      </trkpt>
      <trkpt lat="46.59309" lon="4.82226">
        <ele>356</ele>
        <time>2012-08-17T08:18:52.000Z</time>
      </trkpt>
      <trkpt lat="46.59306" lon="4.82232">
        <ele>356</ele>
        <time>2012-08-17T08:18:56.000Z</time>
      </trkpt>
      <trkpt lat="46.59306" lon="4.82235">
        <ele>357</ele>
        <time>2012-08-17T08:18:58.000Z</time>
      </trkpt>
      <trkpt lat="46.59303" lon="4.82241">
        <ele>357</ele>
        <time>2012-08-17T08:19:01.000Z</time>
      </trkpt>
      <trkpt lat="46.593" lon="4.82245">
        <ele>357</ele>
        <time>2012-08-17T08:19:03.000Z</time>
      </trkpt>
      <trkpt lat="46.59293" lon="4.82252">
        <ele>358</ele>
        <time>2012-08-17T08:19:08.000Z</time>
      </trkpt>
      <trkpt lat="46.59291" lon="4.82253">
        <ele>358</ele>
        <time>2012-08-17T08:19:11.000Z</time>
      </trkpt>
      <trkpt lat="46.5929" lon="4.82255">
        <ele>359</ele>
        <time>2012-08-17T08:19:13.000Z</time>
      </trkpt>
      <trkpt lat="46.59286" lon="4.82259">
        <ele>359</ele>
        <time>2012-08-17T08:19:16.000Z</time>
      </trkpt>
      <trkpt lat="46.59282" lon="4.82262">
        <ele>360</ele>
        <time>2012-08-17T08:19:19.000Z</time>
      </trkpt>
      <trkpt lat="46.59275" lon="4.8227">
        <ele>361</ele>
        <time>2012-08-17T08:19:25.000Z</time>
      </trkpt>
      <trkpt lat="46.59272" lon="4.82271">
        <ele>361</ele>
        <time>2012-08-17T08:19:28.000Z</time>
      </trkpt>
      <trkpt lat="46.59272" lon="4.82272">
        <ele>362</ele>
        <time>2012-08-17T08:19:31.000Z</time>
      </trkpt>
      <trkpt lat="46.5927" lon="4.82273">
        <ele>362</ele>
        <time>2012-08-17T08:19:34.000Z</time>
      </trkpt>
      <trkpt lat="46.5927" lon="4.82274">
        <ele>363</ele>
        <time>2012-08-17T08:19:37.000Z</time>
      </trkpt>
      <trkpt lat="46.59276" lon="4.82275">
        <ele>363</ele>
        <time>2012-08-17T08:19:42.000Z</time>
      </trkpt>
      <trkpt lat="46.5928" lon="4.82277">
        <ele>362</ele>
        <time>2012-08-17T08:19:46.000Z</time>
      </trkpt>
      <trkpt lat="46.59279" lon="4.8228">
        <ele>362</ele>
        <time>2012-08-17T08:20:01.000Z</time>
      </trkpt>
      <trkpt lat="46.59277" lon="4.8228">
        <ele>362</ele>
        <time>2012-08-17T08:20:03.000Z</time>
      </trkpt>
      <trkpt lat="46.5927" lon="4.82284">
        <ele>362</ele>
        <time>2012-08-17T08:20:06.000Z</time>
      </trkpt>
      <trkpt lat="46.59267" lon="4.82287">
        <ele>362</ele>
        <time>2012-08-17T08:20:08.000Z</time>
      </trkpt>
      <trkpt lat="46.59263" lon="4.82289">
        <ele>363</ele>
        <time>2012-08-17T08:20:10.000Z</time>
      </trkpt>
      <trkpt lat="46.59261" lon="4.82289">
        <ele>364</ele>
        <time>2012-08-17T08:20:12.000Z</time>
      </trkpt>
      <trkpt lat="46.59256" lon="4.82292">
        <ele>364</ele>
        <time>2012-08-17T08:20:15.000Z</time>
      </trkpt>
      <trkpt lat="46.59254" lon="4.82295">
        <ele>365</ele>
        <time>2012-08-17T08:20:18.000Z</time>
      </trkpt>
      <trkpt lat="46.59248" lon="4.82303">
        <ele>366</ele>
        <time>2012-08-17T08:20:24.000Z</time>
      </trkpt>
      <trkpt lat="46.59247" lon="4.82308">
        <ele>366</ele>
        <time>2012-08-17T08:20:27.000Z</time>
      </trkpt>
      <trkpt lat="46.59247" lon="4.82312">
        <ele>367</ele>
        <time>2012-08-17T08:20:29.000Z</time>
      </trkpt>
      <trkpt lat="46.59245" lon="4.82318">
        <ele>367</ele>
        <time>2012-08-17T08:20:32.000Z</time>
      </trkpt>
      <trkpt lat="46.59242" lon="4.82324">
        <ele>368</ele>
        <time>2012-08-17T08:20:35.000Z</time>
      </trkpt>
      <trkpt lat="46.59238" lon="4.8233">
        <ele>369</ele>
        <time>2012-08-17T08:20:40.000Z</time>
      </trkpt>
      <trkpt lat="46.59235" lon="4.82334">
        <ele>370</ele>
        <time>2012-08-17T08:20:43.000Z</time>
      </trkpt>
      <trkpt lat="46.59229" lon="4.82342">
        <ele>371</ele>
        <time>2012-08-17T08:20:46.000Z</time>
      </trkpt>
      <trkpt lat="46.59228" lon="4.82349">
        <ele>372</ele>
        <time>2012-08-17T08:20:49.000Z</time>
      </trkpt>
      <trkpt lat="46.59227" lon="4.82352">
        <ele>373</ele>
        <time>2012-08-17T08:20:52.000Z</time>
      </trkpt>
      <trkpt lat="46.59225" lon="4.82354">
        <ele>374</ele>
        <time>2012-08-17T08:20:55.000Z</time>
      </trkpt>
      <trkpt lat="46.59223" lon="4.82356">
        <ele>375</ele>
        <time>2012-08-17T08:20:57.000Z</time>
      </trkpt>
      <trkpt lat="46.59222" lon="4.82359">
        <ele>375</ele>
        <time>2012-08-17T08:21:00.000Z</time>
      </trkpt>
      <trkpt lat="46.59224" lon="4.8236">
        <ele>375</ele>
        <time>2012-08-17T08:21:03.000Z</time>
      </trkpt>
      <trkpt lat="46.59223" lon="4.82363">
        <ele>376</ele>
        <time>2012-08-17T08:21:07.000Z</time>
      </trkpt>
      <trkpt lat="46.59219" lon="4.82373">
        <ele>377</ele>
        <time>2012-08-17T08:21:12.000Z</time>
      </trkpt>
      <trkpt lat="46.59213" lon="4.82375">
        <ele>377</ele>
        <time>2012-08-17T08:21:15.000Z</time>
      </trkpt>
      <trkpt lat="46.59209" lon="4.82374">
        <ele>378</ele>
        <time>2012-08-17T08:21:17.000Z</time>
      </trkpt>
      <trkpt lat="46.59206" lon="4.82373">
        <ele>379</ele>
        <time>2012-08-17T08:21:19.000Z</time>
      </trkpt>
      <trkpt lat="46.59201" lon="4.82372">
        <ele>380</ele>
        <time>2012-08-17T08:21:22.000Z</time>
      </trkpt>
      <trkpt lat="46.59199" lon="4.82371">
        <ele>381</ele>
        <time>2012-08-17T08:21:24.000Z</time>
      </trkpt>
      <trkpt lat="46.59198" lon="4.82366">
        <ele>382</ele>
        <time>2012-08-17T08:21:27.000Z</time>
      </trkpt>
      <trkpt lat="46.59198" lon="4.82362">
        <ele>383</ele>
        <time>2012-08-17T08:21:29.000Z</time>
      </trkpt>
      <trkpt lat="46.59198" lon="4.8236">
        <ele>383</ele>
        <time>2012-08-17T08:21:31.000Z</time>
      </trkpt>
      <trkpt lat="46.59197" lon="4.82359">
        <ele>383</ele>
        <time>2012-08-17T08:21:33.000Z</time>
      </trkpt>
      <trkpt lat="46.59196" lon="4.82355">
        <ele>383</ele>
        <time>2012-08-17T08:21:36.000Z</time>
      </trkpt>
      <trkpt lat="46.59195" lon="4.82352">
        <ele>383</ele>
        <time>2012-08-17T08:21:38.000Z</time>
      </trkpt>
      <trkpt lat="46.59193" lon="4.82349">
        <ele>384</ele>
        <time>2012-08-17T08:21:41.000Z</time>
      </trkpt>
      <trkpt lat="46.59192" lon="4.82346">
        <ele>384</ele>
        <time>2012-08-17T08:21:43.000Z</time>
      </trkpt>
      <trkpt lat="46.59192" lon="4.82344">
        <ele>384</ele>
        <time>2012-08-17T08:21:46.000Z</time>
      </trkpt>
      <trkpt lat="46.59193" lon="4.82341">
        <ele>384</ele>
        <time>2012-08-17T08:21:48.000Z</time>
      </trkpt>
      <trkpt lat="46.59193" lon="4.82339">
        <ele>384</ele>
        <time>2012-08-17T08:21:51.000Z</time>
      </trkpt>
      <trkpt lat="46.59192" lon="4.82338">
        <ele>384</ele>
        <time>2012-08-17T08:21:53.000Z</time>
      </trkpt>
      <trkpt lat="46.5919" lon="4.82335">
        <ele>384</ele>
        <time>2012-08-17T08:21:56.000Z</time>
      </trkpt>
      <trkpt lat="46.59187" lon="4.82333">
        <ele>384</ele>
        <time>2012-08-17T08:21:58.000Z</time>
      </trkpt>
      <trkpt lat="46.59183" lon="4.8233">
        <ele>385</ele>
        <time>2012-08-17T08:22:00.000Z</time>
      </trkpt>
      <trkpt lat="46.59177" lon="4.82326">
        <ele>386</ele>
        <time>2012-08-17T08:22:03.000Z</time>
      </trkpt>
      <trkpt lat="46.59174" lon="4.82323">
        <ele>386</ele>
        <time>2012-08-17T08:22:06.000Z</time>
      </trkpt>
      <trkpt lat="46.59176" lon="4.82321">
        <ele>387</ele>
        <time>2012-08-17T08:22:09.000Z</time>
      </trkpt>
      <trkpt lat="46.59176" lon="4.82319">
        <ele>388</ele>
        <time>2012-08-17T08:22:14.000Z</time>
      </trkpt>
      <trkpt lat="46.59176" lon="4.82318">
        <ele>388</ele>
        <time>2012-08-17T08:22:16.000Z</time>
      </trkpt>
      <trkpt lat="46.59177" lon="4.82317">
        <ele>388</ele>
        <time>2012-08-17T08:22:19.000Z</time>
      </trkpt>
      <trkpt lat="46.59178" lon="4.82318">
        <ele>387</ele>
        <time>2012-08-17T08:22:26.000Z</time>
      </trkpt>
      <trkpt lat="46.59179" lon="4.82317">
        <ele>387</ele>
        <time>2012-08-17T08:22:30.000Z</time>
      </trkpt>
      <trkpt lat="46.59184" lon="4.82315">
        <ele>387</ele>
        <time>2012-08-17T08:22:35.000Z</time>
      </trkpt>
      <trkpt lat="46.59186" lon="4.82316">
        <ele>386</ele>
        <time>2012-08-17T08:22:38.000Z</time>
      </trkpt>
      <trkpt lat="46.59187" lon="4.82317">
        <ele>386</ele>
        <time>2012-08-17T08:22:42.000Z</time>
      </trkpt>
      <trkpt lat="46.59188" lon="4.82317">
        <ele>385</ele>
        <time>2012-08-17T08:22:45.000Z</time>
      </trkpt>
      <trkpt lat="46.59191" lon="4.82314">
        <ele>384</ele>
        <time>2012-08-17T08:22:53.000Z</time>
      </trkpt>
      <trkpt lat="46.59195" lon="4.82311">
        <ele>383</ele>
        <time>2012-08-17T08:23:03.000Z</time>
      </trkpt>
      <trkpt lat="46.59195" lon="4.82313">
        <ele>383</ele>
        <time>2012-08-17T08:23:07.000Z</time>
      </trkpt>
      <trkpt lat="46.59196" lon="4.82315">
        <ele>382</ele>
        <time>2012-08-17T08:23:10.000Z</time>
      </trkpt>
      <trkpt lat="46.59195" lon="4.82316">
        <ele>382</ele>
        <time>2012-08-17T08:23:13.000Z</time>
      </trkpt>
      <trkpt lat="46.5919" lon="4.82314">
        <ele>382</ele>
        <time>2012-08-17T08:23:16.000Z</time>
      </trkpt>
      <trkpt lat="46.59188" lon="4.82315">
        <ele>383</ele>
        <time>2012-08-17T08:23:19.000Z</time>
      </trkpt>
      <trkpt lat="46.59185" lon="4.82319">
        <ele>383</ele>
        <time>2012-08-17T08:23:22.000Z</time>
      </trkpt>
      <trkpt lat="46.59183" lon="4.82322">
        <ele>384</ele>
        <time>2012-08-17T08:23:24.000Z</time>
      </trkpt>
      <trkpt lat="46.59181" lon="4.82322">
        <ele>385</ele>
        <time>2012-08-17T08:23:27.000Z</time>
      </trkpt>
      <trkpt lat="46.5918" lon="4.82322">
        <ele>386</ele>
        <time>2012-08-17T08:23:30.000Z</time>
      </trkpt>
      <trkpt lat="46.59179" lon="4.82321">
        <ele>386</ele>
        <time>2012-08-17T08:23:32.000Z</time>
      </trkpt>
      <trkpt lat="46.59179" lon="4.8232">
        <ele>387</ele>
        <time>2012-08-17T08:23:35.000Z</time>
      </trkpt>
      <trkpt lat="46.5918" lon="4.82318">
        <ele>387</ele>
        <time>2012-08-17T08:23:38.000Z</time>
      </trkpt>
      <trkpt lat="46.59182" lon="4.82318">
        <ele>387</ele>
        <time>2012-08-17T08:23:41.000Z</time>
      </trkpt>
      <trkpt lat="46.59183" lon="4.82318">
        <ele>386</ele>
        <time>2012-08-17T08:23:44.000Z</time>
      </trkpt>
      <trkpt lat="46.59186" lon="4.82318">
        <ele>386</ele>
        <time>2012-08-17T08:23:52.000Z</time>
      </trkpt>
      <trkpt lat="46.59188" lon="4.82314">
        <ele>385</ele>
        <time>2012-08-17T08:23:55.000Z</time>
      </trkpt>
      <trkpt lat="46.59191" lon="4.82308">
        <ele>385</ele>
        <time>2012-08-17T08:23:58.000Z</time>
      </trkpt>
      <trkpt lat="46.59193" lon="4.82303">
        <ele>384</ele>
        <time>2012-08-17T08:24:03.000Z</time>
      </trkpt>
      <trkpt lat="46.5919" lon="4.82304">
        <ele>383</ele>
        <time>2012-08-17T08:24:10.000Z</time>
      </trkpt>
      <trkpt lat="46.59189" lon="4.82304">
        <ele>383</ele>
        <time>2012-08-17T08:24:16.000Z</time>
      </trkpt>
      <trkpt lat="46.59188" lon="4.82303">
        <ele>383</ele>
        <time>2012-08-17T08:24:18.000Z</time>
      </trkpt>
      <trkpt lat="46.59186" lon="4.82297">
        <ele>383</ele>
        <time>2012-08-17T08:24:21.000Z</time>
      </trkpt>
      <trkpt lat="46.59185" lon="4.82291">
        <ele>384</ele>
        <time>2012-08-17T08:24:24.000Z</time>
      </trkpt>
      <trkpt lat="46.59183" lon="4.82287">
        <ele>384</ele>
        <time>2012-08-17T08:24:27.000Z</time>
      </trkpt>
      <trkpt lat="46.59182" lon="4.82284">
        <ele>384</ele>
        <time>2012-08-17T08:24:29.000Z</time>
      </trkpt>
      <trkpt lat="46.59179" lon="4.82275">
        <ele>384</ele>
        <time>2012-08-17T08:24:36.000Z</time>
      </trkpt>
      <trkpt lat="46.59177" lon="4.82271">
        <ele>385</ele>
        <time>2012-08-17T08:24:39.000Z</time>
      </trkpt>
      <trkpt lat="46.59172" lon="4.82261">
        <ele>385</ele>
        <time>2012-08-17T08:24:45.000Z</time>
      </trkpt>
      <trkpt lat="46.59172" lon="4.82259">
        <ele>386</ele>
        <time>2012-08-17T08:24:47.000Z</time>
      </trkpt>
      <trkpt lat="46.59171" lon="4.82258">
        <ele>386</ele>
        <time>2012-08-17T08:24:53.000Z</time>
      </trkpt>
      <trkpt lat="46.59169" lon="4.82251">
        <ele>386</ele>
        <time>2012-08-17T08:25:04.000Z</time>
      </trkpt>
      <trkpt lat="46.59168" lon="4.8225">
        <ele>386</ele>
        <time>2012-08-17T08:25:06.000Z</time>
      </trkpt>
      <trkpt lat="46.59166" lon="4.82248">
        <ele>387</ele>
        <time>2012-08-17T08:25:09.000Z</time>
      </trkpt>
      <trkpt lat="46.59166" lon="4.82247">
        <ele>387</ele>
        <time>2012-08-17T08:25:12.000Z</time>
      </trkpt>
      <trkpt lat="46.59167" lon="4.82248">
        <ele>387</ele>
        <time>2012-08-17T08:25:15.000Z</time>
      </trkpt>
      <trkpt lat="46.59171" lon="4.8225">
        <ele>387</ele>
        <time>2012-08-17T08:25:21.000Z</time>
      </trkpt>
      <trkpt lat="46.59174" lon="4.82248">
        <ele>386</ele>
        <time>2012-08-17T08:25:23.000Z</time>
      </trkpt>
      <trkpt lat="46.59172" lon="4.82245">
        <ele>386</ele>
        <time>2012-08-17T08:25:26.000Z</time>
      </trkpt>
      <trkpt lat="46.5917" lon="4.82244">
        <ele>386</ele>
        <time>2012-08-17T08:25:28.000Z</time>
      </trkpt>
      <trkpt lat="46.59167" lon="4.82241">
        <ele>386</ele>
        <time>2012-08-17T08:25:31.000Z</time>
      </trkpt>
      <trkpt lat="46.59163" lon="4.82237">
        <ele>387</ele>
        <time>2012-08-17T08:25:36.000Z</time>
      </trkpt>
      <trkpt lat="46.59163" lon="4.82233">
        <ele>387</ele>
        <time>2012-08-17T08:25:39.000Z</time>
      </trkpt>
      <trkpt lat="46.59164" lon="4.82227">
        <ele>387</ele>
        <time>2012-08-17T08:25:42.000Z</time>
      </trkpt>
      <trkpt lat="46.59163" lon="4.82222">
        <ele>387</ele>
        <time>2012-08-17T08:25:44.000Z</time>
      </trkpt>
      <trkpt lat="46.59161" lon="4.82218">
        <ele>388</ele>
        <time>2012-08-17T08:25:47.000Z</time>
      </trkpt>
      <trkpt lat="46.59159" lon="4.82213">
        <ele>388</ele>
        <time>2012-08-17T08:25:50.000Z</time>
      </trkpt>
      <trkpt lat="46.59155" lon="4.82196">
        <ele>389</ele>
        <time>2012-08-17T08:25:59.000Z</time>
      </trkpt>
      <trkpt lat="46.59154" lon="4.82185">
        <ele>389</ele>
        <time>2012-08-17T08:26:06.000Z</time>
      </trkpt>
      <trkpt lat="46.59154" lon="4.82179">
        <ele>389</ele>
        <time>2012-08-17T08:26:09.000Z</time>
      </trkpt>
      <trkpt lat="46.59152" lon="4.82172">
        <ele>389</ele>
        <time>2012-08-17T08:26:12.000Z</time>
      </trkpt>
      <trkpt lat="46.59152" lon="4.82166">
        <ele>389</ele>
        <time>2012-08-17T08:26:15.000Z</time>
      </trkpt>
      <trkpt lat="46.5915" lon="4.82162">
        <ele>389</ele>
        <time>2012-08-17T08:26:17.000Z</time>
      </trkpt>
      <trkpt lat="46.59149" lon="4.82158">
        <ele>389</ele>
        <time>2012-08-17T08:26:20.000Z</time>
      </trkpt>
      <trkpt lat="46.59146" lon="4.82145">
        <ele>389</ele>
        <time>2012-08-17T08:26:28.000Z</time>
      </trkpt>
      <trkpt lat="46.59148" lon="4.82135">
        <ele>389</ele>
        <time>2012-08-17T08:26:31.000Z</time>
      </trkpt>
      <trkpt lat="46.5915" lon="4.82121">
        <ele>388</ele>
        <time>2012-08-17T08:26:38.000Z</time>
      </trkpt>
      <trkpt lat="46.59151" lon="4.82115">
        <ele>388</ele>
        <time>2012-08-17T08:26:41.000Z</time>
      </trkpt>
      <trkpt lat="46.59152" lon="4.82111">
        <ele>388</ele>
        <time>2012-08-17T08:26:43.000Z</time>
      </trkpt>
      <trkpt lat="46.59152" lon="4.82106">
        <ele>387</ele>
        <time>2012-08-17T08:26:45.000Z</time>
      </trkpt>
      <trkpt lat="46.59151" lon="4.821">
        <ele>387</ele>
        <time>2012-08-17T08:26:48.000Z</time>
      </trkpt>
      <trkpt lat="46.5915" lon="4.82096">
        <ele>387</ele>
        <time>2012-08-17T08:26:51.000Z</time>
      </trkpt>
      <trkpt lat="46.59142" lon="4.82075">
        <ele>387</ele>
        <time>2012-08-17T08:27:03.000Z</time>
      </trkpt>
      <trkpt lat="46.5914" lon="4.82071">
        <ele>388</ele>
        <time>2012-08-17T08:27:05.000Z</time>
      </trkpt>
      <trkpt lat="46.59136" lon="4.82057">
        <ele>389</ele>
        <time>2012-08-17T08:27:13.000Z</time>
      </trkpt>
      <trkpt lat="46.59135" lon="4.82054">
        <ele>389</ele>
        <time>2012-08-17T08:27:15.000Z</time>
      </trkpt>
      <trkpt lat="46.59132" lon="4.82045">
        <ele>389</ele>
        <time>2012-08-17T08:27:21.000Z</time>
      </trkpt>
      <trkpt lat="46.5913" lon="4.82038">
        <ele>390</ele>
        <time>2012-08-17T08:27:24.000Z</time>
      </trkpt>
      <trkpt lat="46.59122" lon="4.82012">
        <ele>390</ele>
        <time>2012-08-17T08:27:36.000Z</time>
      </trkpt>
      <trkpt lat="46.59118" lon="4.82009">
        <ele>390</ele>
        <time>2012-08-17T08:27:39.000Z</time>
      </trkpt>
      <trkpt lat="46.59114" lon="4.82006">
        <ele>390</ele>
        <time>2012-08-17T08:27:42.000Z</time>
      </trkpt>
      <trkpt lat="46.59113" lon="4.82001">
        <ele>390</ele>
        <time>2012-08-17T08:27:45.000Z</time>
      </trkpt>
      <trkpt lat="46.5911" lon="4.81999">
        <ele>390</ele>
        <time>2012-08-17T08:27:47.000Z</time>
      </trkpt>
      <trkpt lat="46.59101" lon="4.82001">
        <ele>390</ele>
        <time>2012-08-17T08:27:50.000Z</time>
      </trkpt>
      <trkpt lat="46.59098" lon="4.82001">
        <ele>390</ele>
        <time>2012-08-17T08:27:52.000Z</time>
      </trkpt>
      <trkpt lat="46.59092" lon="4.81998">
        <ele>390</ele>
        <time>2012-08-17T08:27:55.000Z</time>
      </trkpt>
      <trkpt lat="46.59079" lon="4.8199">
        <ele>390</ele>
        <time>2012-08-17T08:28:04.000Z</time>
      </trkpt>
      <trkpt lat="46.59076" lon="4.81985">
        <ele>390</ele>
        <time>2012-08-17T08:28:06.000Z</time>
      </trkpt>
      <trkpt lat="46.59074" lon="4.8198">
        <ele>390</ele>
        <time>2012-08-17T08:28:09.000Z</time>
      </trkpt>
      <trkpt lat="46.59065" lon="4.81966">
        <ele>390</ele>
        <time>2012-08-17T08:28:18.000Z</time>
      </trkpt>
      <trkpt lat="46.59059" lon="4.8196">
        <ele>390</ele>
        <time>2012-08-17T08:28:23.000Z</time>
      </trkpt>
      <trkpt lat="46.59052" lon="4.81957">
        <ele>390</ele>
        <time>2012-08-17T08:28:29.000Z</time>
      </trkpt>
      <trkpt lat="46.59053" lon="4.81962">
        <ele>390</ele>
        <time>2012-08-17T08:28:31.000Z</time>
      </trkpt>
      <trkpt lat="46.59052" lon="4.8197">
        <ele>390</ele>
        <time>2012-08-17T08:28:34.000Z</time>
      </trkpt>
      <trkpt lat="46.59053" lon="4.81979">
        <ele>390</ele>
        <time>2012-08-17T08:28:39.000Z</time>
      </trkpt>
      <trkpt lat="46.59055" lon="4.81982">
        <ele>390</ele>
        <time>2012-08-17T08:28:41.000Z</time>
      </trkpt>
      <trkpt lat="46.59055" lon="4.81986">
        <ele>390</ele>
        <time>2012-08-17T08:28:44.000Z</time>
      </trkpt>
      <trkpt lat="46.59054" lon="4.81991">
        <ele>390</ele>
        <time>2012-08-17T08:28:47.000Z</time>
      </trkpt>
      <trkpt lat="46.59052" lon="4.81994">
        <ele>390</ele>
        <time>2012-08-17T08:28:49.000Z</time>
      </trkpt>
      <trkpt lat="46.5905" lon="4.81999">
        <ele>390</ele>
        <time>2012-08-17T08:28:52.000Z</time>
      </trkpt>
      <trkpt lat="46.5905" lon="4.82002">
        <ele>390</ele>
        <time>2012-08-17T08:28:54.000Z</time>
      </trkpt>
      <trkpt lat="46.5905" lon="4.82006">
        <ele>390</ele>
        <time>2012-08-17T08:28:57.000Z</time>
      </trkpt>
      <trkpt lat="46.59048" lon="4.82009">
        <ele>390</ele>
        <time>2012-08-17T08:28:59.000Z</time>
      </trkpt>
      <trkpt lat="46.59045" lon="4.82016">
        <ele>391</ele>
        <time>2012-08-17T08:29:06.000Z</time>
      </trkpt>
      <trkpt lat="46.59044" lon="4.82017">
        <ele>391</ele>
        <time>2012-08-17T08:29:08.000Z</time>
      </trkpt>
      <trkpt lat="46.59045" lon="4.8202">
        <ele>391</ele>
        <time>2012-08-17T08:29:11.000Z</time>
      </trkpt>
      <trkpt lat="46.59046" lon="4.82021">
        <ele>391</ele>
        <time>2012-08-17T08:29:14.000Z</time>
      </trkpt>
      <trkpt lat="46.59045" lon="4.82023">
        <ele>391</ele>
        <time>2012-08-17T08:29:16.000Z</time>
      </trkpt>
      <trkpt lat="46.59044" lon="4.82027">
        <ele>391</ele>
        <time>2012-08-17T08:29:19.000Z</time>
      </trkpt>
      <trkpt lat="46.59046" lon="4.82027">
        <ele>392</ele>
        <time>2012-08-17T08:29:22.000Z</time>
      </trkpt>
      <trkpt lat="46.59045" lon="4.82029">
        <ele>392</ele>
        <time>2012-08-17T08:29:26.000Z</time>
      </trkpt>
      <trkpt lat="46.59044" lon="4.82029">
        <ele>392</ele>
        <time>2012-08-17T08:29:29.000Z</time>
      </trkpt>
      <trkpt lat="46.5904" lon="4.82035">
        <ele>392</ele>
        <time>2012-08-17T08:29:34.000Z</time>
      </trkpt>
      <trkpt lat="46.59039" lon="4.82038">
        <ele>392</ele>
        <time>2012-08-17T08:29:37.000Z</time>
      </trkpt>
      <trkpt lat="46.59037" lon="4.8204">
        <ele>393</ele>
        <time>2012-08-17T08:29:39.000Z</time>
      </trkpt>
      <trkpt lat="46.59035" lon="4.82042">
        <ele>393</ele>
        <time>2012-08-17T08:29:41.000Z</time>
      </trkpt>
      <trkpt lat="46.59031" lon="4.82048">
        <ele>394</ele>
        <time>2012-08-17T08:29:48.000Z</time>
      </trkpt>
      <trkpt lat="46.5903" lon="4.82048">
        <ele>394</ele>
        <time>2012-08-17T08:29:51.000Z</time>
      </trkpt>
      <trkpt lat="46.59029" lon="4.82048">
        <ele>394</ele>
        <time>2012-08-17T08:29:53.000Z</time>
      </trkpt>
      <trkpt lat="46.59027" lon="4.8205">
        <ele>394</ele>
        <time>2012-08-17T08:29:56.000Z</time>
      </trkpt>
      <trkpt lat="46.59023" lon="4.82052">
        <ele>394</ele>
        <time>2012-08-17T08:30:03.000Z</time>
      </trkpt>
      <trkpt lat="46.59021" lon="4.82052">
        <ele>394</ele>
        <time>2012-08-17T08:30:06.000Z</time>
      </trkpt>
      <trkpt lat="46.59016" lon="4.82055">
        <ele>394</ele>
        <time>2012-08-17T08:30:14.000Z</time>
      </trkpt>
      <trkpt lat="46.59013" lon="4.82058">
        <ele>395</ele>
        <time>2012-08-17T08:30:17.000Z</time>
      </trkpt>
      <trkpt lat="46.59009" lon="4.82066">
        <ele>395</ele>
        <time>2012-08-17T08:30:23.000Z</time>
      </trkpt>
      <trkpt lat="46.59009" lon="4.8207">
        <ele>396</ele>
        <time>2012-08-17T08:30:26.000Z</time>
      </trkpt>
      <trkpt lat="46.5901" lon="4.82076">
        <ele>396</ele>
        <time>2012-08-17T08:30:31.000Z</time>
      </trkpt>
      <trkpt lat="46.5901" lon="4.82078">
        <ele>397</ele>
        <time>2012-08-17T08:30:33.000Z</time>
      </trkpt>
      <trkpt lat="46.59009" lon="4.82079">
        <ele>397</ele>
        <time>2012-08-17T08:30:36.000Z</time>
      </trkpt>
      <trkpt lat="46.5901" lon="4.8208">
        <ele>397</ele>
        <time>2012-08-17T08:30:40.000Z</time>
      </trkpt>
      <trkpt lat="46.59011" lon="4.82079">
        <ele>397</ele>
        <time>2012-08-17T08:30:43.000Z</time>
      </trkpt>
      <trkpt lat="46.59011" lon="4.82081">
        <ele>397</ele>
        <time>2012-08-17T08:30:52.000Z</time>
      </trkpt>
      <trkpt lat="46.59009" lon="4.82083">
        <ele>398</ele>
        <time>2012-08-17T08:31:07.000Z</time>
      </trkpt>
      <trkpt lat="46.59009" lon="4.82081">
        <ele>398</ele>
        <time>2012-08-17T08:31:09.000Z</time>
      </trkpt>
      <trkpt lat="46.59008" lon="4.82079">
        <ele>398</ele>
        <time>2012-08-17T08:31:12.000Z</time>
      </trkpt>
      <trkpt lat="46.5901" lon="4.82075">
        <ele>397</ele>
        <time>2012-08-17T08:31:22.000Z</time>
      </trkpt>
      <trkpt lat="46.59009" lon="4.82078">
        <ele>397</ele>
        <time>2012-08-17T08:31:32.000Z</time>
      </trkpt>
      <trkpt lat="46.59008" lon="4.82081">
        <ele>397</ele>
        <time>2012-08-17T08:31:35.000Z</time>
      </trkpt>
      <trkpt lat="46.59006" lon="4.82084">
        <ele>397</ele>
        <time>2012-08-17T08:31:43.000Z</time>
      </trkpt>
      <trkpt lat="46.59006" lon="4.82086">
        <ele>397</ele>
        <time>2012-08-17T08:31:45.000Z</time>
      </trkpt>
      <trkpt lat="46.59004" lon="4.82092">
        <ele>398</ele>
        <time>2012-08-17T08:31:48.000Z</time>
      </trkpt>
      <trkpt lat="46.59003" lon="4.82098">
        <ele>398</ele>
        <time>2012-08-17T08:31:51.000Z</time>
      </trkpt>
      <trkpt lat="46.59003" lon="4.82104">
        <ele>399</ele>
        <time>2012-08-17T08:31:54.000Z</time>
      </trkpt>
      <trkpt lat="46.59002" lon="4.82114">
        <ele>400</ele>
        <time>2012-08-17T08:31:58.000Z</time>
      </trkpt>
      <trkpt lat="46.59" lon="4.82129">
        <ele>401</ele>
        <time>2012-08-17T08:32:04.000Z</time>
      </trkpt>
      <trkpt lat="46.58999" lon="4.82135">
        <ele>402</ele>
        <time>2012-08-17T08:32:09.000Z</time>
      </trkpt>
      <trkpt lat="46.58996" lon="4.82156">
        <ele>403</ele>
        <time>2012-08-17T08:32:19.000Z</time>
      </trkpt>
      <trkpt lat="46.58996" lon="4.82164">
        <ele>403</ele>
        <time>2012-08-17T08:32:23.000Z</time>
      </trkpt>
      <trkpt lat="46.58997" lon="4.82167">
        <ele>404</ele>
        <time>2012-08-17T08:32:26.000Z</time>
      </trkpt>
      <trkpt lat="46.58997" lon="4.82171">
        <ele>404</ele>
        <time>2012-08-17T08:32:28.000Z</time>
      </trkpt>
      <trkpt lat="46.58997" lon="4.82176">
        <ele>405</ele>
        <time>2012-08-17T08:32:30.000Z</time>
      </trkpt>
      <trkpt lat="46.58997" lon="4.82193">
        <ele>406</ele>
        <time>2012-08-17T08:32:38.000Z</time>
      </trkpt>
      <trkpt lat="46.58998" lon="4.82203">
        <ele>407</ele>
        <time>2012-08-17T08:32:43.000Z</time>
      </trkpt>
      <trkpt lat="46.58998" lon="4.8221">
        <ele>407</ele>
        <time>2012-08-17T08:32:46.000Z</time>
      </trkpt>
      <trkpt lat="46.58998" lon="4.82215">
        <ele>408</ele>
        <time>2012-08-17T08:32:48.000Z</time>
      </trkpt>
      <trkpt lat="46.59" lon="4.82231">
        <ele>409</ele>
        <time>2012-08-17T08:32:54.000Z</time>
      </trkpt>
      <trkpt lat="46.59002" lon="4.82236">
        <ele>410</ele>
        <time>2012-08-17T08:32:56.000Z</time>
      </trkpt>
      <trkpt lat="46.59003" lon="4.8224">
        <ele>410</ele>
        <time>2012-08-17T08:32:59.000Z</time>
      </trkpt>
      <trkpt lat="46.59005" lon="4.82244">
        <ele>411</ele>
        <time>2012-08-17T08:33:01.000Z</time>
      </trkpt>
      <trkpt lat="46.59005" lon="4.82248">
        <ele>411</ele>
        <time>2012-08-17T08:33:03.000Z</time>
      </trkpt>
      <trkpt lat="46.59006" lon="4.82252">
        <ele>412</ele>
        <time>2012-08-17T08:33:05.000Z</time>
      </trkpt>
      <trkpt lat="46.59007" lon="4.82255">
        <ele>412</ele>
        <time>2012-08-17T08:33:08.000Z</time>
      </trkpt>
      <trkpt lat="46.59008" lon="4.82262">
        <ele>412</ele>
        <time>2012-08-17T08:33:11.000Z</time>
      </trkpt>
      <trkpt lat="46.59008" lon="4.82268">
        <ele>413</ele>
        <time>2012-08-17T08:33:14.000Z</time>
      </trkpt>
      <trkpt lat="46.59009" lon="4.82283">
        <ele>414</ele>
        <time>2012-08-17T08:33:22.000Z</time>
      </trkpt>
      <trkpt lat="46.59011" lon="4.82286">
        <ele>414</ele>
        <time>2012-08-17T08:33:25.000Z</time>
      </trkpt>
      <trkpt lat="46.59012" lon="4.8229">
        <ele>414</ele>
        <time>2012-08-17T08:33:27.000Z</time>
      </trkpt>
      <trkpt lat="46.59012" lon="4.82297">
        <ele>414</ele>
        <time>2012-08-17T08:33:29.000Z</time>
      </trkpt>
      <trkpt lat="46.59011" lon="4.82303">
        <ele>415</ele>
        <time>2012-08-17T08:33:31.000Z</time>
      </trkpt>
      <trkpt lat="46.59008" lon="4.82318">
        <ele>416</ele>
        <time>2012-08-17T08:33:39.000Z</time>
      </trkpt>
      <trkpt lat="46.59006" lon="4.82324">
        <ele>416</ele>
        <time>2012-08-17T08:33:42.000Z</time>
      </trkpt>
      <trkpt lat="46.59006" lon="4.82327">
        <ele>416</ele>
        <time>2012-08-17T08:33:44.000Z</time>
      </trkpt>
      <trkpt lat="46.59006" lon="4.82328">
        <ele>416</ele>
        <time>2012-08-17T08:33:46.000Z</time>
      </trkpt>
      <trkpt lat="46.59006" lon="4.82331">
        <ele>417</ele>
        <time>2012-08-17T08:33:49.000Z</time>
      </trkpt>
      <trkpt lat="46.59002" lon="4.82353">
        <ele>418</ele>
        <time>2012-08-17T08:33:59.000Z</time>
      </trkpt>
      <trkpt lat="46.59" lon="4.82357">
        <ele>418</ele>
        <time>2012-08-17T08:34:06.000Z</time>
      </trkpt>
      <trkpt lat="46.58999" lon="4.82356">
        <ele>419</ele>
        <time>2012-08-17T08:34:09.000Z</time>
      </trkpt>
      <trkpt lat="46.58997" lon="4.82352">
        <ele>419</ele>
        <time>2012-08-17T08:34:27.000Z</time>
      </trkpt>
      <trkpt lat="46.58995" lon="4.82352">
        <ele>419</ele>
        <time>2012-08-17T08:34:30.000Z</time>
      </trkpt>
      <trkpt lat="46.58994" lon="4.82353">
        <ele>418</ele>
        <time>2012-08-17T08:34:32.000Z</time>
      </trkpt>
      <trkpt lat="46.58993" lon="4.82354">
        <ele>418</ele>
        <time>2012-08-17T08:34:35.000Z</time>
      </trkpt>
      <trkpt lat="46.58994" lon="4.82352">
        <ele>418</ele>
        <time>2012-08-17T08:34:38.000Z</time>
      </trkpt>
      <trkpt lat="46.58994" lon="4.82355">
        <ele>418</ele>
        <time>2012-08-17T08:34:43.000Z</time>
      </trkpt>
      <trkpt lat="46.58993" lon="4.82357">
        <ele>419</ele>
        <time>2012-08-17T08:34:46.000Z</time>
      </trkpt>
      <trkpt lat="46.58993" lon="4.82354">
        <ele>419</ele>
        <time>2012-08-17T08:34:53.000Z</time>
      </trkpt>
      <trkpt lat="46.58997" lon="4.8236">
        <ele>419</ele>
        <time>2012-08-17T08:35:01.000Z</time>
      </trkpt>
      <trkpt lat="46.58998" lon="4.82361">
        <ele>419</ele>
        <time>2012-08-17T08:35:11.000Z</time>
      </trkpt>
      <trkpt lat="46.58998" lon="4.82362">
        <ele>419</ele>
        <time>2012-08-17T08:35:16.000Z</time>
      </trkpt>
      <trkpt lat="46.58995" lon="4.82364">
        <ele>419</ele>
        <time>2012-08-17T08:35:25.000Z</time>
      </trkpt>
      <trkpt lat="46.58992" lon="4.82368">
        <ele>419</ele>
        <time>2012-08-17T08:35:28.000Z</time>
      </trkpt>
      <trkpt lat="46.58987" lon="4.82376">
        <ele>420</ele>
        <time>2012-08-17T08:35:33.000Z</time>
      </trkpt>
      <trkpt lat="46.58987" lon="4.82371">
        <ele>420</ele>
        <time>2012-08-17T08:35:40.000Z</time>
      </trkpt>
      <trkpt lat="46.58988" lon="4.82373">
        <ele>420</ele>
        <time>2012-08-17T08:35:43.000Z</time>
      </trkpt>
      <trkpt lat="46.58993" lon="4.82388">
        <ele>421</ele>
        <time>2012-08-17T08:35:54.000Z</time>
      </trkpt>
      <trkpt lat="46.58994" lon="4.82397">
        <ele>421</ele>
        <time>2012-08-17T08:35:57.000Z</time>
      </trkpt>
      <trkpt lat="46.58994" lon="4.82404">
        <ele>422</ele>
        <time>2012-08-17T08:36:02.000Z</time>
      </trkpt>
      <trkpt lat="46.58995" lon="4.82407">
        <ele>422</ele>
        <time>2012-08-17T08:36:04.000Z</time>
      </trkpt>
      <trkpt lat="46.58998" lon="4.82412">
        <ele>423</ele>
        <time>2012-08-17T08:36:09.000Z</time>
      </trkpt>
      <trkpt lat="46.59" lon="4.82414">
        <ele>423</ele>
        <time>2012-08-17T08:36:12.000Z</time>
      </trkpt>
      <trkpt lat="46.59002" lon="4.82418">
        <ele>423</ele>
        <time>2012-08-17T08:36:25.000Z</time>
      </trkpt>
      <trkpt lat="46.59002" lon="4.82421">
        <ele>423</ele>
        <time>2012-08-17T08:36:30.000Z</time>
      </trkpt>
      <trkpt lat="46.59002" lon="4.82424">
        <ele>423</ele>
        <time>2012-08-17T08:36:32.000Z</time>
      </trkpt>
      <trkpt lat="46.59002" lon="4.82428">
        <ele>423</ele>
        <time>2012-08-17T08:36:35.000Z</time>
      </trkpt>
      <trkpt lat="46.59002" lon="4.82433">
        <ele>424</ele>
        <time>2012-08-17T08:36:38.000Z</time>
      </trkpt>
      <trkpt lat="46.59002" lon="4.82437">
        <ele>424</ele>
        <time>2012-08-17T08:36:42.000Z</time>
      </trkpt>
      <trkpt lat="46.59004" lon="4.82437">
        <ele>424</ele>
        <time>2012-08-17T08:36:45.000Z</time>
      </trkpt>
      <trkpt lat="46.59005" lon="4.82439">
        <ele>424</ele>
        <time>2012-08-17T08:36:48.000Z</time>
      </trkpt>
      <trkpt lat="46.59005" lon="4.82442">
        <ele>424</ele>
        <time>2012-08-17T08:36:51.000Z</time>
      </trkpt>
      <trkpt lat="46.59006" lon="4.82447">
        <ele>425</ele>
        <time>2012-08-17T08:36:55.000Z</time>
      </trkpt>
      <trkpt lat="46.59007" lon="4.82452">
        <ele>425</ele>
        <time>2012-08-17T08:36:58.000Z</time>
      </trkpt>
      <trkpt lat="46.59009" lon="4.82462">
        <ele>425</ele>
        <time>2012-08-17T08:37:03.000Z</time>
      </trkpt>
      <trkpt lat="46.59011" lon="4.82466">
        <ele>426</ele>
        <time>2012-08-17T08:37:06.000Z</time>
      </trkpt>
      <trkpt lat="46.59012" lon="4.82468">
        <ele>426</ele>
        <time>2012-08-17T08:37:08.000Z</time>
      </trkpt>
      <trkpt lat="46.59015" lon="4.82488">
        <ele>427</ele>
        <time>2012-08-17T08:37:18.000Z</time>
      </trkpt>
      <trkpt lat="46.59018" lon="4.82507">
        <ele>428</ele>
        <time>2012-08-17T08:37:28.000Z</time>
      </trkpt>
      <trkpt lat="46.59018" lon="4.82509">
        <ele>428</ele>
        <time>2012-08-17T08:37:30.000Z</time>
      </trkpt>
      <trkpt lat="46.59016" lon="4.82516">
        <ele>429</ele>
        <time>2012-08-17T08:37:34.000Z</time>
      </trkpt>
      <trkpt lat="46.59016" lon="4.82523">
        <ele>429</ele>
        <time>2012-08-17T08:37:37.000Z</time>
      </trkpt>
      <trkpt lat="46.59017" lon="4.82533">
        <ele>430</ele>
        <time>2012-08-17T08:37:42.000Z</time>
      </trkpt>
      <trkpt lat="46.59018" lon="4.82549">
        <ele>431</ele>
        <time>2012-08-17T08:37:50.000Z</time>
      </trkpt>
      <trkpt lat="46.5902" lon="4.82553">
        <ele>431</ele>
        <time>2012-08-17T08:37:53.000Z</time>
      </trkpt>
      <trkpt lat="46.59023" lon="4.82555">
        <ele>431</ele>
        <time>2012-08-17T08:38:08.000Z</time>
      </trkpt>
      <trkpt lat="46.59024" lon="4.82556">
        <ele>431</ele>
        <time>2012-08-17T08:38:11.000Z</time>
      </trkpt>
      <trkpt lat="46.59026" lon="4.82556">
        <ele>431</ele>
        <time>2012-08-17T08:38:14.000Z</time>
      </trkpt>
      <trkpt lat="46.59023" lon="4.82561">
        <ele>431</ele>
        <time>2012-08-17T08:38:17.000Z</time>
      </trkpt>
      <trkpt lat="46.59022" lon="4.82567">
        <ele>431</ele>
        <time>2012-08-17T08:38:19.000Z</time>
      </trkpt>
      <trkpt lat="46.59023" lon="4.82572">
        <ele>431</ele>
        <time>2012-08-17T08:38:21.000Z</time>
      </trkpt>
      <trkpt lat="46.59023" lon="4.82576">
        <ele>432</ele>
        <time>2012-08-17T08:38:23.000Z</time>
      </trkpt>
      <trkpt lat="46.59025" lon="4.82582">
        <ele>432</ele>
        <time>2012-08-17T08:38:26.000Z</time>
      </trkpt>
      <trkpt lat="46.59027" lon="4.82593">
        <ele>433</ele>
        <time>2012-08-17T08:38:31.000Z</time>
      </trkpt>
      <trkpt lat="46.59027" lon="4.82601">
        <ele>433</ele>
        <time>2012-08-17T08:38:34.000Z</time>
      </trkpt>
      <trkpt lat="46.59029" lon="4.8262">
        <ele>434</ele>
        <time>2012-08-17T08:38:41.000Z</time>
      </trkpt>
      <trkpt lat="46.59031" lon="4.82644">
        <ele>435</ele>
        <time>2012-08-17T08:38:49.000Z</time>
      </trkpt>
      <trkpt lat="46.59033" lon="4.82653">
        <ele>435</ele>
        <time>2012-08-17T08:38:52.000Z</time>
      </trkpt>
      <trkpt lat="46.59036" lon="4.82671">
        <ele>436</ele>
        <time>2012-08-17T08:38:59.000Z</time>
      </trkpt>
      <trkpt lat="46.5904" lon="4.82715">
        <ele>437</ele>
        <time>2012-08-17T08:39:15.000Z</time>
      </trkpt>
      <trkpt lat="46.5905" lon="4.82768">
        <ele>438</ele>
        <time>2012-08-17T08:39:31.000Z</time>
      </trkpt>
      <trkpt lat="46.59054" lon="4.82774">
        <ele>438</ele>
        <time>2012-08-17T08:39:34.000Z</time>
      </trkpt>
      <trkpt lat="46.59056" lon="4.82781">
        <ele>437</ele>
        <time>2012-08-17T08:39:37.000Z</time>
      </trkpt>
      <trkpt lat="46.59057" lon="4.82786">
        <ele>437</ele>
        <time>2012-08-17T08:39:39.000Z</time>
      </trkpt>
      <trkpt lat="46.59058" lon="4.82794">
        <ele>437</ele>
        <time>2012-08-17T08:39:42.000Z</time>
      </trkpt>
      <trkpt lat="46.5906" lon="4.82813">
        <ele>438</ele>
        <time>2012-08-17T08:39:50.000Z</time>
      </trkpt>
      <trkpt lat="46.5906" lon="4.82827">
        <ele>438</ele>
        <time>2012-08-17T08:39:53.000Z</time>
      </trkpt>
      <trkpt lat="46.5906" lon="4.82848">
        <ele>439</ele>
        <time>2012-08-17T08:39:58.000Z</time>
      </trkpt>
      <trkpt lat="46.59061" lon="4.82856">
        <ele>439</ele>
        <time>2012-08-17T08:40:00.000Z</time>
      </trkpt>
      <trkpt lat="46.59062" lon="4.82864">
        <ele>440</ele>
        <time>2012-08-17T08:40:02.000Z</time>
      </trkpt>
      <trkpt lat="46.59063" lon="4.82874">
        <ele>441</ele>
        <time>2012-08-17T08:40:05.000Z</time>
      </trkpt>
      <trkpt lat="46.59062" lon="4.82887">
        <ele>442</ele>
        <time>2012-08-17T08:40:13.000Z</time>
      </trkpt>
      <trkpt lat="46.5906" lon="4.82892">
        <ele>442</ele>
        <time>2012-08-17T08:40:15.000Z</time>
      </trkpt>
      <trkpt lat="46.59058" lon="4.82898">
        <ele>443</ele>
        <time>2012-08-17T08:40:17.000Z</time>
      </trkpt>
      <trkpt lat="46.59056" lon="4.82905">
        <ele>444</ele>
        <time>2012-08-17T08:40:20.000Z</time>
      </trkpt>
      <trkpt lat="46.59056" lon="4.8291">
        <ele>445</ele>
        <time>2012-08-17T08:40:22.000Z</time>
      </trkpt>
      <trkpt lat="46.59055" lon="4.82927">
        <ele>446</ele>
        <time>2012-08-17T08:40:28.000Z</time>
      </trkpt>
      <trkpt lat="46.59055" lon="4.82932">
        <ele>447</ele>
        <time>2012-08-17T08:40:30.000Z</time>
      </trkpt>
      <trkpt lat="46.59056" lon="4.82939">
        <ele>447</ele>
        <time>2012-08-17T08:40:33.000Z</time>
      </trkpt>
      <trkpt lat="46.59055" lon="4.82948">
        <ele>447</ele>
        <time>2012-08-17T08:40:36.000Z</time>
      </trkpt>
      <trkpt lat="46.59055" lon="4.82954">
        <ele>448</ele>
        <time>2012-08-17T08:40:38.000Z</time>
      </trkpt>
      <trkpt lat="46.59053" lon="4.82978">
        <ele>449</ele>
        <time>2012-08-17T08:40:46.000Z</time>
      </trkpt>
      <trkpt lat="46.59052" lon="4.82991">
        <ele>450</ele>
        <time>2012-08-17T08:40:51.000Z</time>
      </trkpt>
      <trkpt lat="46.5905" lon="4.83004">
        <ele>451</ele>
        <time>2012-08-17T08:40:56.000Z</time>
      </trkpt>
      <trkpt lat="46.5905" lon="4.83022">
        <ele>452</ele>
        <time>2012-08-17T08:41:05.000Z</time>
      </trkpt>
      <trkpt lat="46.59048" lon="4.83036">
        <ele>452</ele>
        <time>2012-08-17T08:41:10.000Z</time>
      </trkpt>
      <trkpt lat="46.59048" lon="4.83041">
        <ele>452</ele>
        <time>2012-08-17T08:41:12.000Z</time>
      </trkpt>
      <trkpt lat="46.59046" lon="4.83049">
        <ele>452</ele>
        <time>2012-08-17T08:41:15.000Z</time>
      </trkpt>
      <trkpt lat="46.59045" lon="4.83053">
        <ele>452</ele>
        <time>2012-08-17T08:41:17.000Z</time>
      </trkpt>
      <trkpt lat="46.59042" lon="4.83062">
        <ele>452</ele>
        <time>2012-08-17T08:41:22.000Z</time>
      </trkpt>
      <trkpt lat="46.59042" lon="4.83064">
        <ele>453</ele>
        <time>2012-08-17T08:41:24.000Z</time>
      </trkpt>
      <trkpt lat="46.59044" lon="4.83069">
        <ele>453</ele>
        <time>2012-08-17T08:41:27.000Z</time>
      </trkpt>
      <trkpt lat="46.59045" lon="4.83088">
        <ele>452</ele>
        <time>2012-08-17T08:41:34.000Z</time>
      </trkpt>
      <trkpt lat="46.59042" lon="4.83099">
        <ele>452</ele>
        <time>2012-08-17T08:41:37.000Z</time>
      </trkpt>
      <trkpt lat="46.59039" lon="4.83104">
        <ele>452</ele>
        <time>2012-08-17T08:41:39.000Z</time>
      </trkpt>
      <trkpt lat="46.59036" lon="4.83105">
        <ele>453</ele>
        <time>2012-08-17T08:41:41.000Z</time>
      </trkpt>
      <trkpt lat="46.59032" lon="4.83104">
        <ele>453</ele>
        <time>2012-08-17T08:41:44.000Z</time>
      </trkpt>
      <trkpt lat="46.59029" lon="4.83103">
        <ele>454</ele>
        <time>2012-08-17T08:41:48.000Z</time>
      </trkpt>
      <trkpt lat="46.59028" lon="4.83104">
        <ele>454</ele>
        <time>2012-08-17T08:41:50.000Z</time>
      </trkpt>
      <trkpt lat="46.59026" lon="4.83106">
        <ele>455</ele>
        <time>2012-08-17T08:41:53.000Z</time>
      </trkpt>
      <trkpt lat="46.59024" lon="4.83113">
        <ele>455</ele>
        <time>2012-08-17T08:42:00.000Z</time>
      </trkpt>
      <trkpt lat="46.59022" lon="4.83115">
        <ele>455</ele>
        <time>2012-08-17T08:42:03.000Z</time>
      </trkpt>
      <trkpt lat="46.59019" lon="4.83116">
        <ele>455</ele>
        <time>2012-08-17T08:42:05.000Z</time>
      </trkpt>
      <trkpt lat="46.59014" lon="4.83117">
        <ele>456</ele>
        <time>2012-08-17T08:42:08.000Z</time>
      </trkpt>
      <trkpt lat="46.59011" lon="4.83119">
        <ele>456</ele>
        <time>2012-08-17T08:42:11.000Z</time>
      </trkpt>
      <trkpt lat="46.59012" lon="4.83118">
        <ele>456</ele>
        <time>2012-08-17T08:42:14.000Z</time>
      </trkpt>
      <trkpt lat="46.59011" lon="4.83117">
        <ele>457</ele>
        <time>2012-08-17T08:42:20.000Z</time>
      </trkpt>
      <trkpt lat="46.5901" lon="4.83116">
        <ele>457</ele>
        <time>2012-08-17T08:42:22.000Z</time>
      </trkpt>
      <trkpt lat="46.59008" lon="4.83117">
        <ele>457</ele>
        <time>2012-08-17T08:42:24.000Z</time>
      </trkpt>
      <trkpt lat="46.59004" lon="4.83117">
        <ele>458</ele>
        <time>2012-08-17T08:42:27.000Z</time>
      </trkpt>
      <trkpt lat="46.59002" lon="4.83116">
        <ele>458</ele>
        <time>2012-08-17T08:42:29.000Z</time>
      </trkpt>
      <trkpt lat="46.59004" lon="4.83115">
        <ele>458</ele>
        <time>2012-08-17T08:42:35.000Z</time>
      </trkpt>
      <trkpt lat="46.59009" lon="4.83113">
        <ele>458</ele>
        <time>2012-08-17T08:42:38.000Z</time>
      </trkpt>
      <trkpt lat="46.59009" lon="4.83113">
        <ele>458</ele>
        <time>2012-08-17T08:42:58.000Z</time>
      </trkpt>
      <trkpt lat="46.59013" lon="4.83116">
        <ele>458</ele>
        <time>2012-08-17T08:43:13.000Z</time>
      </trkpt>
      <trkpt lat="46.59017" lon="4.83113">
        <ele>458</ele>
        <time>2012-08-17T08:43:16.000Z</time>
      </trkpt>
      <trkpt lat="46.59018" lon="4.83109">
        <ele>457</ele>
        <time>2012-08-17T08:43:18.000Z</time>
      </trkpt>
      <trkpt lat="46.59019" lon="4.83105">
        <ele>457</ele>
        <time>2012-08-17T08:43:20.000Z</time>
      </trkpt>
      <trkpt lat="46.59023" lon="4.83098">
        <ele>456</ele>
        <time>2012-08-17T08:43:27.000Z</time>
      </trkpt>
      <trkpt lat="46.59023" lon="4.83098">
        <ele>456</ele>
        <time>2012-08-17T08:43:47.000Z</time>
      </trkpt>
      <trkpt lat="46.59026" lon="4.83098">
        <ele>456</ele>
        <time>2012-08-17T08:43:52.000Z</time>
      </trkpt>
      <trkpt lat="46.59024" lon="4.831">
        <ele>456</ele>
        <time>2012-08-17T08:43:55.000Z</time>
      </trkpt>
      <trkpt lat="46.59019" lon="4.83107">
        <ele>456</ele>
        <time>2012-08-17T08:44:03.000Z</time>
      </trkpt>
      <trkpt lat="46.59015" lon="4.83114">
        <ele>457</ele>
        <time>2012-08-17T08:44:12.000Z</time>
      </trkpt>
      <trkpt lat="46.59014" lon="4.83115">
        <ele>457</ele>
        <time>2012-08-17T08:44:14.000Z</time>
      </trkpt>
      <trkpt lat="46.59015" lon="4.83115">
        <ele>457</ele>
        <time>2012-08-17T08:44:16.000Z</time>
      </trkpt>
      <trkpt lat="46.5902" lon="4.83117">
        <ele>457</ele>
        <time>2012-08-17T08:44:20.000Z</time>
      </trkpt>
      <trkpt lat="46.59021" lon="4.83118">
        <ele>456</ele>
        <time>2012-08-17T08:44:23.000Z</time>
      </trkpt>
      <trkpt lat="46.59025" lon="4.83118">
        <ele>456</ele>
        <time>2012-08-17T08:44:26.000Z</time>
      </trkpt>
      <trkpt lat="46.59027" lon="4.83119">
        <ele>455</ele>
        <time>2012-08-17T08:44:31.000Z</time>
      </trkpt>
      <trkpt lat="46.59027" lon="4.8312">
        <ele>455</ele>
        <time>2012-08-17T08:44:34.000Z</time>
      </trkpt>
      <trkpt lat="46.59027" lon="4.8312">
        <ele>455</ele>
        <time>2012-08-17T08:44:40.000Z</time>
      </trkpt>
      <trkpt lat="46.59026" lon="4.8312">
        <ele>454</ele>
        <time>2012-08-17T08:44:52.000Z</time>
      </trkpt>
      <trkpt lat="46.59026" lon="4.8312">
        <ele>454</ele>
        <time>2012-08-17T08:44:54.000Z</time>
      </trkpt>
      <trkpt lat="46.59027" lon="4.83115">
        <ele>454</ele>
        <time>2012-08-17T08:44:57.000Z</time>
      </trkpt>
      <trkpt lat="46.59031" lon="4.83112">
        <ele>454</ele>
        <time>2012-08-17T08:44:59.000Z</time>
      </trkpt>
      <trkpt lat="46.59042" lon="4.83108">
        <ele>454</ele>
        <time>2012-08-17T08:45:02.000Z</time>
      </trkpt>
      <trkpt lat="46.59047" lon="4.83108">
        <ele>453</ele>
        <time>2012-08-17T08:45:04.000Z</time>
      </trkpt>
      <trkpt lat="46.5905" lon="4.83109">
        <ele>452</ele>
        <time>2012-08-17T08:45:06.000Z</time>
      </trkpt>
      <trkpt lat="46.59053" lon="4.83111">
        <ele>452</ele>
        <time>2012-08-17T08:45:08.000Z</time>
      </trkpt>
      <trkpt lat="46.59058" lon="4.83117">
        <ele>451</ele>
        <time>2012-08-17T08:45:11.000Z</time>
      </trkpt>
      <trkpt lat="46.59063" lon="4.83121">
        <ele>450</ele>
        <time>2012-08-17T08:45:13.000Z</time>
      </trkpt>
      <trkpt lat="46.59067" lon="4.83123">
        <ele>449</ele>
        <time>2012-08-17T08:45:15.000Z</time>
      </trkpt>
      <trkpt lat="46.59072" lon="4.83124">
        <ele>448</ele>
        <time>2012-08-17T08:45:18.000Z</time>
      </trkpt>
      <trkpt lat="46.59077" lon="4.83125">
        <ele>447</ele>
        <time>2012-08-17T08:45:21.000Z</time>
      </trkpt>
      <trkpt lat="46.59083" lon="4.83126">
        <ele>446</ele>
        <time>2012-08-17T08:45:24.000Z</time>
      </trkpt>
      <trkpt lat="46.59087" lon="4.83127">
        <ele>446</ele>
        <time>2012-08-17T08:45:26.000Z</time>
      </trkpt>
      <trkpt lat="46.59093" lon="4.83131">
        <ele>445</ele>
        <time>2012-08-17T08:45:29.000Z</time>
      </trkpt>
      <trkpt lat="46.59126" lon="4.83146">
        <ele>446</ele>
        <time>2012-08-17T08:45:42.000Z</time>
      </trkpt>
      <trkpt lat="46.5913" lon="4.83149">
        <ele>446</ele>
        <time>2012-08-17T08:45:44.000Z</time>
      </trkpt>
      <trkpt lat="46.59144" lon="4.83156">
        <ele>446</ele>
        <time>2012-08-17T08:45:50.000Z</time>
      </trkpt>
      <trkpt lat="46.59148" lon="4.83157">
        <ele>447</ele>
        <time>2012-08-17T08:45:52.000Z</time>
      </trkpt>
      <trkpt lat="46.59158" lon="4.83161">
        <ele>447</ele>
        <time>2012-08-17T08:45:57.000Z</time>
      </trkpt>
      <trkpt lat="46.59163" lon="4.83164">
        <ele>447</ele>
        <time>2012-08-17T08:46:00.000Z</time>
      </trkpt>
      <trkpt lat="46.59166" lon="4.83166">
        <ele>448</ele>
        <time>2012-08-17T08:46:02.000Z</time>
      </trkpt>
      <trkpt lat="46.59171" lon="4.83168">
        <ele>448</ele>
        <time>2012-08-17T08:46:05.000Z</time>
      </trkpt>
      <trkpt lat="46.59177" lon="4.83171">
        <ele>448</ele>
        <time>2012-08-17T08:46:09.000Z</time>
      </trkpt>
      <trkpt lat="46.59182" lon="4.83174">
        <ele>449</ele>
        <time>2012-08-17T08:46:12.000Z</time>
      </trkpt>
      <trkpt lat="46.59191" lon="4.83179">
        <ele>450</ele>
        <time>2012-08-17T08:46:20.000Z</time>
      </trkpt>
      <trkpt lat="46.59201" lon="4.83186">
        <ele>451</ele>
        <time>2012-08-17T08:46:28.000Z</time>
      </trkpt>
      <trkpt lat="46.59212" lon="4.83193">
        <ele>452</ele>
        <time>2012-08-17T08:46:38.000Z</time>
      </trkpt>
      <trkpt lat="46.59216" lon="4.83196">
        <ele>452</ele>
        <time>2012-08-17T08:46:41.000Z</time>
      </trkpt>
      <trkpt lat="46.59226" lon="4.83204">
        <ele>453</ele>
        <time>2012-08-17T08:46:50.000Z</time>
      </trkpt>
      <trkpt lat="46.5924" lon="4.83217">
        <ele>454</ele>
        <time>2012-08-17T08:47:01.000Z</time>
      </trkpt>
      <trkpt lat="46.59247" lon="4.83223">
        <ele>454</ele>
        <time>2012-08-17T08:47:07.000Z</time>
      </trkpt>
      <trkpt lat="46.59248" lon="4.83224">
        <ele>454</ele>
        <time>2012-08-17T08:47:13.000Z</time>
      </trkpt>
      <trkpt lat="46.59254" lon="4.83229">
        <ele>455</ele>
        <time>2012-08-17T08:47:21.000Z</time>
      </trkpt>
      <trkpt lat="46.59255" lon="4.83231">
        <ele>455</ele>
        <time>2012-08-17T08:47:24.000Z</time>
      </trkpt>
      <trkpt lat="46.59259" lon="4.83237">
        <ele>455</ele>
        <time>2012-08-17T08:47:32.000Z</time>
      </trkpt>
      <trkpt lat="46.59261" lon="4.83238">
        <ele>455</ele>
        <time>2012-08-17T08:47:51.000Z</time>
      </trkpt>
      <trkpt lat="46.59263" lon="4.83241">
        <ele>455</ele>
        <time>2012-08-17T08:47:54.000Z</time>
      </trkpt>
      <trkpt lat="46.59264" lon="4.83244">
        <ele>455</ele>
        <time>2012-08-17T08:48:01.000Z</time>
      </trkpt>
      <trkpt lat="46.59266" lon="4.83246">
        <ele>455</ele>
        <time>2012-08-17T08:48:03.000Z</time>
      </trkpt>
      <trkpt lat="46.5927" lon="4.83251">
        <ele>456</ele>
        <time>2012-08-17T08:48:06.000Z</time>
      </trkpt>
      <trkpt lat="46.59285" lon="4.83268">
        <ele>457</ele>
        <time>2012-08-17T08:48:17.000Z</time>
      </trkpt>
      <trkpt lat="46.59293" lon="4.83277">
        <ele>458</ele>
        <time>2012-08-17T08:48:24.000Z</time>
      </trkpt>
      <trkpt lat="46.59301" lon="4.83286">
        <ele>459</ele>
        <time>2012-08-17T08:48:30.000Z</time>
      </trkpt>
      <trkpt lat="46.59314" lon="4.83298">
        <ele>460</ele>
        <time>2012-08-17T08:48:38.000Z</time>
      </trkpt>
      <trkpt lat="46.59322" lon="4.83308">
        <ele>461</ele>
        <time>2012-08-17T08:48:44.000Z</time>
      </trkpt>
      <trkpt lat="46.59333" lon="4.83318">
        <ele>462</ele>
        <time>2012-08-17T08:48:51.000Z</time>
      </trkpt>
      <trkpt lat="46.5934" lon="4.83325">
        <ele>463</ele>
        <time>2012-08-17T08:48:56.000Z</time>
      </trkpt>
      <trkpt lat="46.59343" lon="4.83327">
        <ele>463</ele>
        <time>2012-08-17T08:48:58.000Z</time>
      </trkpt>
      <trkpt lat="46.59348" lon="4.8333">
        <ele>464</ele>
        <time>2012-08-17T08:49:01.000Z</time>
      </trkpt>
      <trkpt lat="46.59351" lon="4.83331">
        <ele>464</ele>
        <time>2012-08-17T08:49:03.000Z</time>
      </trkpt>
      <trkpt lat="46.59357" lon="4.8333">
        <ele>465</ele>
        <time>2012-08-17T08:49:06.000Z</time>
      </trkpt>
      <trkpt lat="46.59366" lon="4.83329">
        <ele>466</ele>
        <time>2012-08-17T08:49:11.000Z</time>
      </trkpt>
      <trkpt lat="46.59369" lon="4.8333">
        <ele>466</ele>
        <time>2012-08-17T08:49:13.000Z</time>
      </trkpt>
      <trkpt lat="46.59372" lon="4.8333">
        <ele>467</ele>
        <time>2012-08-17T08:49:15.000Z</time>
      </trkpt>
      <trkpt lat="46.59381" lon="4.83332">
        <ele>468</ele>
        <time>2012-08-17T08:49:21.000Z</time>
      </trkpt>
      <trkpt lat="46.59389" lon="4.83334">
        <ele>469</ele>
        <time>2012-08-17T08:49:26.000Z</time>
      </trkpt>
      <trkpt lat="46.59395" lon="4.83336">
        <ele>470</ele>
        <time>2012-08-17T08:49:30.000Z</time>
      </trkpt>
      <trkpt lat="46.59408" lon="4.83339">
        <ele>471</ele>
        <time>2012-08-17T08:49:38.000Z</time>
      </trkpt>
      <trkpt lat="46.59416" lon="4.83341">
        <ele>472</ele>
        <time>2012-08-17T08:49:43.000Z</time>
      </trkpt>
      <trkpt lat="46.59423" lon="4.83343">
        <ele>472</ele>
        <time>2012-08-17T08:49:47.000Z</time>
      </trkpt>
      <trkpt lat="46.59427" lon="4.83345">
        <ele>473</ele>
        <time>2012-08-17T08:49:49.000Z</time>
      </trkpt>
      <trkpt lat="46.59432" lon="4.83348">
        <ele>473</ele>
        <time>2012-08-17T08:49:52.000Z</time>
      </trkpt>
      <trkpt lat="46.59457" lon="4.8336">
        <ele>473</ele>
        <time>2012-08-17T08:50:07.000Z</time>
      </trkpt>
      <trkpt lat="46.59462" lon="4.8336">
        <ele>474</ele>
        <time>2012-08-17T08:50:09.000Z</time>
      </trkpt>
      <trkpt lat="46.59477" lon="4.83363">
        <ele>474</ele>
        <time>2012-08-17T08:50:17.000Z</time>
      </trkpt>
      <trkpt lat="46.5948" lon="4.83365">
        <ele>474</ele>
        <time>2012-08-17T08:50:19.000Z</time>
      </trkpt>
      <trkpt lat="46.59484" lon="4.83366">
        <ele>475</ele>
        <time>2012-08-17T08:50:21.000Z</time>
      </trkpt>
      <trkpt lat="46.5949" lon="4.83369">
        <ele>475</ele>
        <time>2012-08-17T08:50:24.000Z</time>
      </trkpt>
      <trkpt lat="46.59535" lon="4.83401">
        <ele>475</ele>
        <time>2012-08-17T08:50:52.000Z</time>
      </trkpt>
      <trkpt lat="46.59538" lon="4.83404">
        <ele>475</ele>
        <time>2012-08-17T08:50:54.000Z</time>
      </trkpt>
      <trkpt lat="46.5957" lon="4.83454">
        <ele>475</ele>
        <time>2012-08-17T08:51:20.000Z</time>
      </trkpt>
      <trkpt lat="46.59575" lon="4.83458">
        <ele>475</ele>
        <time>2012-08-17T08:51:23.000Z</time>
      </trkpt>
      <trkpt lat="46.5958" lon="4.83459">
        <ele>475</ele>
        <time>2012-08-17T08:51:26.000Z</time>
      </trkpt>
      <trkpt lat="46.59584" lon="4.83463">
        <ele>475</ele>
        <time>2012-08-17T08:51:32.000Z</time>
      </trkpt>
      <trkpt lat="46.59583" lon="4.83465">
        <ele>475</ele>
        <time>2012-08-17T08:51:34.000Z</time>
      </trkpt>
      <trkpt lat="46.59581" lon="4.83469">
        <ele>475</ele>
        <time>2012-08-17T08:51:37.000Z</time>
      </trkpt>
      <trkpt lat="46.59582" lon="4.83469">
        <ele>475</ele>
        <time>2012-08-17T08:51:43.000Z</time>
      </trkpt>
      <trkpt lat="46.59583" lon="4.83469">
        <ele>475</ele>
        <time>2012-08-17T08:51:47.000Z</time>
      </trkpt>
      <trkpt lat="46.59587" lon="4.83466">
        <ele>475</ele>
        <time>2012-08-17T08:51:53.000Z</time>
      </trkpt>
      <trkpt lat="46.59587" lon="4.83466">
        <ele>475</ele>
        <time>2012-08-17T08:52:13.000Z</time>
      </trkpt>
      <trkpt lat="46.59589" lon="4.8347">
        <ele>475</ele>
        <time>2012-08-17T08:52:22.000Z</time>
      </trkpt>
      <trkpt lat="46.59589" lon="4.83474">
        <ele>475</ele>
        <time>2012-08-17T08:52:25.000Z</time>
      </trkpt>
      <trkpt lat="46.59588" lon="4.83472">
        <ele>475</ele>
        <time>2012-08-17T08:52:28.000Z</time>
      </trkpt>
      <trkpt lat="46.5959" lon="4.83467">
        <ele>475</ele>
        <time>2012-08-17T08:52:33.000Z</time>
      </trkpt>
      <trkpt lat="46.59595" lon="4.83466">
        <ele>475</ele>
        <time>2012-08-17T08:52:39.000Z</time>
      </trkpt>
      <trkpt lat="46.59595" lon="4.83466">
        <ele>475</ele>
        <time>2012-08-17T08:52:59.000Z</time>
      </trkpt>
      <trkpt lat="46.59596" lon="4.83465">
        <ele>475</ele>
        <time>2012-08-17T08:53:06.000Z</time>
      </trkpt>
      <trkpt lat="46.59597" lon="4.83463">
        <ele>475</ele>
        <time>2012-08-17T08:53:08.000Z</time>
      </trkpt>
      <trkpt lat="46.59595" lon="4.83463">
        <ele>475</ele>
        <time>2012-08-17T08:53:11.000Z</time>
      </trkpt>
      <trkpt lat="46.59594" lon="4.83462">
        <ele>475</ele>
        <time>2012-08-17T08:53:13.000Z</time>
      </trkpt>
      <trkpt lat="46.59592" lon="4.83463">
        <ele>475</ele>
        <time>2012-08-17T08:53:16.000Z</time>
      </trkpt>
      <trkpt lat="46.59591" lon="4.83463">
        <ele>475</ele>
        <time>2012-08-17T08:53:19.000Z</time>
      </trkpt>
      <trkpt lat="46.59589" lon="4.83464">
        <ele>475</ele>
        <time>2012-08-17T08:53:31.000Z</time>
      </trkpt>
      <trkpt lat="46.59591" lon="4.83464">
        <ele>475</ele>
        <time>2012-08-17T08:53:33.000Z</time>
      </trkpt>
      <trkpt lat="46.59597" lon="4.83467">
        <ele>475</ele>
        <time>2012-08-17T08:53:36.000Z</time>
      </trkpt>
      <trkpt lat="46.59604" lon="4.83475">
        <ele>475</ele>
        <time>2012-08-17T08:53:39.000Z</time>
      </trkpt>
      <trkpt lat="46.59616" lon="4.83486">
        <ele>474</ele>
        <time>2012-08-17T08:53:44.000Z</time>
      </trkpt>
      <trkpt lat="46.59631" lon="4.83505">
        <ele>473</ele>
        <time>2012-08-17T08:53:49.000Z</time>
      </trkpt>
      <trkpt lat="46.59649" lon="4.83519">
        <ele>473</ele>
        <time>2012-08-17T08:53:56.000Z</time>
      </trkpt>
      <trkpt lat="46.59655" lon="4.83521">
        <ele>473</ele>
        <time>2012-08-17T08:53:58.000Z</time>
      </trkpt>
      <trkpt lat="46.59662" lon="4.83523">
        <ele>472</ele>
        <time>2012-08-17T08:54:01.000Z</time>
      </trkpt>
      <trkpt lat="46.59672" lon="4.83531">
        <ele>472</ele>
        <time>2012-08-17T08:54:07.000Z</time>
      </trkpt>
      <trkpt lat="46.59674" lon="4.83534">
        <ele>472</ele>
        <time>2012-08-17T08:54:09.000Z</time>
      </trkpt>
      <trkpt lat="46.59677" lon="4.83539">
        <ele>472</ele>
        <time>2012-08-17T08:54:11.000Z</time>
      </trkpt>
      <trkpt lat="46.59694" lon="4.83579">
        <ele>471</ele>
        <time>2012-08-17T08:54:16.000Z</time>
      </trkpt>
      <trkpt lat="46.59701" lon="4.83573">
        <ele>471</ele>
        <time>2012-08-17T08:54:19.000Z</time>
      </trkpt>
      <trkpt lat="46.59706" lon="4.83576">
        <ele>470</ele>
        <time>2012-08-17T08:54:22.000Z</time>
      </trkpt>
      <trkpt lat="46.59708" lon="4.83576">
        <ele>470</ele>
        <time>2012-08-17T08:54:24.000Z</time>
      </trkpt>
      <trkpt lat="46.59711" lon="4.8358">
        <ele>470</ele>
        <time>2012-08-17T08:54:26.000Z</time>
      </trkpt>
      <trkpt lat="46.59716" lon="4.83592">
        <ele>469</ele>
        <time>2012-08-17T08:54:29.000Z</time>
      </trkpt>
      <trkpt lat="46.59726" lon="4.83601">
        <ele>469</ele>
        <time>2012-08-17T08:54:34.000Z</time>
      </trkpt>
      <trkpt lat="46.59729" lon="4.836">
        <ele>469</ele>
        <time>2012-08-17T08:54:36.000Z</time>
      </trkpt>
      <trkpt lat="46.59737" lon="4.83597">
        <ele>468</ele>
        <time>2012-08-17T08:54:39.000Z</time>
      </trkpt>
      <trkpt lat="46.59742" lon="4.83596">
        <ele>468</ele>
        <time>2012-08-17T08:54:41.000Z</time>
      </trkpt>
      <trkpt lat="46.59747" lon="4.83597">
        <ele>468</ele>
        <time>2012-08-17T08:54:43.000Z</time>
      </trkpt>
      <trkpt lat="46.59757" lon="4.83603">
        <ele>467</ele>
        <time>2012-08-17T08:54:46.000Z</time>
      </trkpt>
      <trkpt lat="46.59795" lon="4.83629">
        <ele>467</ele>
        <time>2012-08-17T08:54:59.000Z</time>
      </trkpt>
      <trkpt lat="46.59803" lon="4.83633">
        <ele>467</ele>
        <time>2012-08-17T08:55:02.000Z</time>
      </trkpt>
      <trkpt lat="46.59818" lon="4.83643">
        <ele>467</ele>
        <time>2012-08-17T08:55:09.000Z</time>
      </trkpt>
      <trkpt lat="46.5984" lon="4.83655">
        <ele>467</ele>
        <time>2012-08-17T08:55:19.000Z</time>
      </trkpt>
      <trkpt lat="46.59845" lon="4.83656">
        <ele>468</ele>
        <time>2012-08-17T08:55:22.000Z</time>
      </trkpt>
      <trkpt lat="46.59865" lon="4.83662">
        <ele>469</ele>
        <time>2012-08-17T08:55:32.000Z</time>
      </trkpt>
      <trkpt lat="46.59878" lon="4.83663">
        <ele>469</ele>
        <time>2012-08-17T08:55:38.000Z</time>
      </trkpt>
      <trkpt lat="46.59882" lon="4.83662">
        <ele>470</ele>
        <time>2012-08-17T08:55:40.000Z</time>
      </trkpt>
      <trkpt lat="46.59895" lon="4.83659">
        <ele>470</ele>
        <time>2012-08-17T08:55:46.000Z</time>
      </trkpt>
      <trkpt lat="46.59904" lon="4.83659">
        <ele>471</ele>
        <time>2012-08-17T08:55:51.000Z</time>
      </trkpt>
      <trkpt lat="46.59911" lon="4.83661">
        <ele>471</ele>
        <time>2012-08-17T08:55:54.000Z</time>
      </trkpt>
      <trkpt lat="46.59916" lon="4.83662">
        <ele>471</ele>
        <time>2012-08-17T08:55:56.000Z</time>
      </trkpt>
      <trkpt lat="46.59922" lon="4.83662">
        <ele>471</ele>
        <time>2012-08-17T08:55:59.000Z</time>
      </trkpt>
      <trkpt lat="46.59934" lon="4.83662">
        <ele>472</ele>
        <time>2012-08-17T08:56:04.000Z</time>
      </trkpt>
      <trkpt lat="46.59938" lon="4.83663">
        <ele>472</ele>
        <time>2012-08-17T08:56:06.000Z</time>
      </trkpt>
      <trkpt lat="46.59945" lon="4.83663">
        <ele>472</ele>
        <time>2012-08-17T08:56:09.000Z</time>
      </trkpt>
      <trkpt lat="46.59956" lon="4.83662">
        <ele>472</ele>
        <time>2012-08-17T08:56:14.000Z</time>
      </trkpt>
      <trkpt lat="46.59963" lon="4.83662">
        <ele>472</ele>
        <time>2012-08-17T08:56:18.000Z</time>
      </trkpt>
      <trkpt lat="46.59994" lon="4.83666">
        <ele>472</ele>
        <time>2012-08-17T08:56:29.000Z</time>
      </trkpt>
      <trkpt lat="46.59998" lon="4.83668">
        <ele>472</ele>
        <time>2012-08-17T08:56:31.000Z</time>
      </trkpt>
      <trkpt lat="46.60009" lon="4.83677">
        <ele>472</ele>
        <time>2012-08-17T08:56:36.000Z</time>
      </trkpt>
      <trkpt lat="46.6002" lon="4.83684">
        <ele>472</ele>
        <time>2012-08-17T08:56:41.000Z</time>
      </trkpt>
      <trkpt lat="46.60067" lon="4.83708">
        <ele>471</ele>
        <time>2012-08-17T08:57:00.000Z</time>
      </trkpt>
      <trkpt lat="46.60106" lon="4.83729">
        <ele>470</ele>
        <time>2012-08-17T08:57:18.000Z</time>
      </trkpt>
      <trkpt lat="46.60113" lon="4.83736">
        <ele>470</ele>
        <time>2012-08-17T08:57:21.000Z</time>
      </trkpt>
      <trkpt lat="46.60139" lon="4.83766">
        <ele>469</ele>
        <time>2012-08-17T08:57:37.000Z</time>
      </trkpt>
      <trkpt lat="46.60149" lon="4.83781">
        <ele>469</ele>
        <time>2012-08-17T08:57:46.000Z</time>
      </trkpt>
      <trkpt lat="46.60151" lon="4.83785">
        <ele>469</ele>
        <time>2012-08-17T08:57:48.000Z</time>
      </trkpt>
      <trkpt lat="46.60156" lon="4.83789">
        <ele>468</ele>
        <time>2012-08-17T08:57:51.000Z</time>
      </trkpt>
      <trkpt lat="46.6016" lon="4.83792">
        <ele>468</ele>
        <time>2012-08-17T08:57:53.000Z</time>
      </trkpt>
      <trkpt lat="46.6017" lon="4.83802">
        <ele>468</ele>
        <time>2012-08-17T08:57:59.000Z</time>
      </trkpt>
      <trkpt lat="46.60176" lon="4.83808">
        <ele>468</ele>
        <time>2012-08-17T08:58:02.000Z</time>
      </trkpt>
      <trkpt lat="46.60181" lon="4.83816">
        <ele>467</ele>
        <time>2012-08-17T08:58:05.000Z</time>
      </trkpt>
      <trkpt lat="46.60184" lon="4.83823">
        <ele>467</ele>
        <time>2012-08-17T08:58:08.000Z</time>
      </trkpt>
      <trkpt lat="46.60188" lon="4.8383">
        <ele>467</ele>
        <time>2012-08-17T08:58:11.000Z</time>
      </trkpt>
      <trkpt lat="46.60192" lon="4.83835">
        <ele>468</ele>
        <time>2012-08-17T08:58:14.000Z</time>
      </trkpt>
      <trkpt lat="46.60195" lon="4.83837">
        <ele>468</ele>
        <time>2012-08-17T08:58:16.000Z</time>
      </trkpt>
      <trkpt lat="46.60197" lon="4.83838">
        <ele>468</ele>
        <time>2012-08-17T08:58:18.000Z</time>
      </trkpt>
      <trkpt lat="46.60202" lon="4.83843">
        <ele>468</ele>
        <time>2012-08-17T08:58:21.000Z</time>
      </trkpt>
      <trkpt lat="46.60206" lon="4.83846">
        <ele>468</ele>
        <time>2012-08-17T08:58:24.000Z</time>
      </trkpt>
      <trkpt lat="46.60211" lon="4.83847">
        <ele>468</ele>
        <time>2012-08-17T08:58:27.000Z</time>
      </trkpt>
      <trkpt lat="46.60217" lon="4.83848">
        <ele>468</ele>
        <time>2012-08-17T08:58:30.000Z</time>
      </trkpt>
      <trkpt lat="46.60223" lon="4.83848">
        <ele>468</ele>
        <time>2012-08-17T08:58:33.000Z</time>
      </trkpt>
      <trkpt lat="46.6023" lon="4.8385">
        <ele>468</ele>
        <time>2012-08-17T08:58:38.000Z</time>
      </trkpt>
      <trkpt lat="46.60241" lon="4.83852">
        <ele>468</ele>
        <time>2012-08-17T08:58:43.000Z</time>
      </trkpt>
      <trkpt lat="46.60246" lon="4.8385">
        <ele>468</ele>
        <time>2012-08-17T08:58:45.000Z</time>
      </trkpt>
      <trkpt lat="46.60251" lon="4.83851">
        <ele>468</ele>
        <time>2012-08-17T08:58:48.000Z</time>
      </trkpt>
      <trkpt lat="46.60255" lon="4.83851">
        <ele>468</ele>
        <time>2012-08-17T08:58:50.000Z</time>
      </trkpt>
      <trkpt lat="46.60258" lon="4.83851">
        <ele>468</ele>
        <time>2012-08-17T08:58:53.000Z</time>
      </trkpt>
      <trkpt lat="46.6026" lon="4.83851">
        <ele>468</ele>
        <time>2012-08-17T08:58:55.000Z</time>
      </trkpt>
      <trkpt lat="46.60265" lon="4.83851">
        <ele>467</ele>
        <time>2012-08-17T08:58:58.000Z</time>
      </trkpt>
      <trkpt lat="46.60271" lon="4.83854">
        <ele>467</ele>
        <time>2012-08-17T08:59:01.000Z</time>
      </trkpt>
      <trkpt lat="46.60274" lon="4.83856">
        <ele>467</ele>
        <time>2012-08-17T08:59:03.000Z</time>
      </trkpt>
      <trkpt lat="46.60276" lon="4.83857">
        <ele>466</ele>
        <time>2012-08-17T08:59:06.000Z</time>
      </trkpt>
      <trkpt lat="46.60278" lon="4.83859">
        <ele>466</ele>
        <time>2012-08-17T08:59:08.000Z</time>
      </trkpt>
      <trkpt lat="46.60293" lon="4.83872">
        <ele>466</ele>
        <time>2012-08-17T08:59:16.000Z</time>
      </trkpt>
      <trkpt lat="46.60313" lon="4.83885">
        <ele>465</ele>
        <time>2012-08-17T08:59:26.000Z</time>
      </trkpt>
      <trkpt lat="46.60322" lon="4.83894">
        <ele>466</ele>
        <time>2012-08-17T08:59:34.000Z</time>
      </trkpt>
      <trkpt lat="46.60325" lon="4.83895">
        <ele>466</ele>
        <time>2012-08-17T08:59:36.000Z</time>
      </trkpt>
      <trkpt lat="46.60332" lon="4.83894">
        <ele>466</ele>
        <time>2012-08-17T08:59:39.000Z</time>
      </trkpt>
      <trkpt lat="46.60336" lon="4.83894">
        <ele>466</ele>
        <time>2012-08-17T08:59:41.000Z</time>
      </trkpt>
      <trkpt lat="46.60343" lon="4.83894">
        <ele>465</ele>
        <time>2012-08-17T08:59:44.000Z</time>
      </trkpt>
      <trkpt lat="46.60347" lon="4.83895">
        <ele>465</ele>
        <time>2012-08-17T08:59:46.000Z</time>
      </trkpt>
      <trkpt lat="46.60366" lon="4.83901">
        <ele>464</ele>
        <time>2012-08-17T08:59:54.000Z</time>
      </trkpt>
      <trkpt lat="46.60385" lon="4.83906">
        <ele>463</ele>
        <time>2012-08-17T09:00:01.000Z</time>
      </trkpt>
      <trkpt lat="46.60391" lon="4.83909">
        <ele>463</ele>
        <time>2012-08-17T09:00:04.000Z</time>
      </trkpt>
      <trkpt lat="46.60397" lon="4.83912">
        <ele>463</ele>
        <time>2012-08-17T09:00:06.000Z</time>
      </trkpt>
      <trkpt lat="46.60435" lon="4.83942">
        <ele>462</ele>
        <time>2012-08-17T09:00:23.000Z</time>
      </trkpt>
      <trkpt lat="46.60437" lon="4.83951">
        <ele>462</ele>
        <time>2012-08-17T09:00:25.000Z</time>
      </trkpt>
      <trkpt lat="46.60437" lon="4.83963">
        <ele>462</ele>
        <time>2012-08-17T09:00:27.000Z</time>
      </trkpt>
      <trkpt lat="46.60441" lon="4.83999">
        <ele>463</ele>
        <time>2012-08-17T09:00:33.000Z</time>
      </trkpt>
      <trkpt lat="46.60447" lon="4.8401">
        <ele>463</ele>
        <time>2012-08-17T09:00:35.000Z</time>
      </trkpt>
      <trkpt lat="46.60477" lon="4.8407">
        <ele>463</ele>
        <time>2012-08-17T09:00:42.000Z</time>
      </trkpt>
      <trkpt lat="46.60482" lon="4.84091">
        <ele>462</ele>
        <time>2012-08-17T09:00:44.000Z</time>
      </trkpt>
      <trkpt lat="46.60492" lon="4.84114">
        <ele>462</ele>
        <time>2012-08-17T09:00:47.000Z</time>
      </trkpt>
      <trkpt lat="46.60496" lon="4.84138">
        <ele>461</ele>
        <time>2012-08-17T09:00:50.000Z</time>
      </trkpt>
      <trkpt lat="46.60499" lon="4.84152">
        <ele>460</ele>
        <time>2012-08-17T09:00:52.000Z</time>
      </trkpt>
      <trkpt lat="46.6051" lon="4.84167">
        <ele>459</ele>
        <time>2012-08-17T09:00:55.000Z</time>
      </trkpt>
      <trkpt lat="46.60522" lon="4.84179">
        <ele>458</ele>
        <time>2012-08-17T09:00:58.000Z</time>
      </trkpt>
      <trkpt lat="46.60528" lon="4.84184">
        <ele>456</ele>
        <time>2012-08-17T09:01:00.000Z</time>
      </trkpt>
      <trkpt lat="46.60534" lon="4.84189">
        <ele>455</ele>
        <time>2012-08-17T09:01:02.000Z</time>
      </trkpt>
      <trkpt lat="46.60545" lon="4.84199">
        <ele>454</ele>
        <time>2012-08-17T09:01:05.000Z</time>
      </trkpt>
      <trkpt lat="46.60558" lon="4.84209">
        <ele>453</ele>
        <time>2012-08-17T09:01:08.000Z</time>
      </trkpt>
      <trkpt lat="46.60568" lon="4.84215">
        <ele>452</ele>
        <time>2012-08-17T09:01:10.000Z</time>
      </trkpt>
      <trkpt lat="46.60602" lon="4.84231">
        <ele>450</ele>
        <time>2012-08-17T09:01:14.000Z</time>
      </trkpt>
      <trkpt lat="46.60613" lon="4.84235">
        <ele>449</ele>
        <time>2012-08-17T09:01:16.000Z</time>
      </trkpt>
      <trkpt lat="46.60627" lon="4.84242">
        <ele>448</ele>
        <time>2012-08-17T09:01:19.000Z</time>
      </trkpt>
      <trkpt lat="46.60632" lon="4.84248">
        <ele>447</ele>
        <time>2012-08-17T09:01:21.000Z</time>
      </trkpt>
      <trkpt lat="46.60635" lon="4.8425">
        <ele>447</ele>
        <time>2012-08-17T09:01:23.000Z</time>
      </trkpt>
      <trkpt lat="46.60636" lon="4.84253">
        <ele>446</ele>
        <time>2012-08-17T09:01:26.000Z</time>
      </trkpt>
      <trkpt lat="46.60637" lon="4.84254">
        <ele>446</ele>
        <time>2012-08-17T09:01:28.000Z</time>
      </trkpt>
      <trkpt lat="46.60639" lon="4.84256">
        <ele>446</ele>
        <time>2012-08-17T09:01:33.000Z</time>
      </trkpt>
      <trkpt lat="46.60639" lon="4.84256">
        <ele>446</ele>
        <time>2012-08-17T09:01:53.000Z</time>
      </trkpt>
      <trkpt lat="46.60637" lon="4.84254">
        <ele>446</ele>
        <time>2012-08-17T09:02:18.000Z</time>
      </trkpt>
      <trkpt lat="46.60641" lon="4.84258">
        <ele>446</ele>
        <time>2012-08-17T09:02:29.000Z</time>
      </trkpt>
      <trkpt lat="46.60649" lon="4.84265">
        <ele>445</ele>
        <time>2012-08-17T09:02:35.000Z</time>
      </trkpt>
      <trkpt lat="46.60653" lon="4.8427">
        <ele>445</ele>
        <time>2012-08-17T09:02:37.000Z</time>
      </trkpt>
      <trkpt lat="46.60663" lon="4.84294">
        <ele>444</ele>
        <time>2012-08-17T09:02:43.000Z</time>
      </trkpt>
      <trkpt lat="46.60664" lon="4.84301">
        <ele>443</ele>
        <time>2012-08-17T09:02:45.000Z</time>
      </trkpt>
      <trkpt lat="46.60667" lon="4.84311">
        <ele>442</ele>
        <time>2012-08-17T09:02:48.000Z</time>
      </trkpt>
      <trkpt lat="46.60673" lon="4.84319">
        <ele>441</ele>
        <time>2012-08-17T09:02:51.000Z</time>
      </trkpt>
      <trkpt lat="46.60682" lon="4.84331">
        <ele>440</ele>
        <time>2012-08-17T09:02:56.000Z</time>
      </trkpt>
      <trkpt lat="46.60685" lon="4.84337">
        <ele>439</ele>
        <time>2012-08-17T09:02:59.000Z</time>
      </trkpt>
      <trkpt lat="46.60694" lon="4.84348">
        <ele>438</ele>
        <time>2012-08-17T09:03:04.000Z</time>
      </trkpt>
      <trkpt lat="46.60705" lon="4.84363">
        <ele>437</ele>
        <time>2012-08-17T09:03:12.000Z</time>
      </trkpt>
      <trkpt lat="46.60709" lon="4.84371">
        <ele>437</ele>
        <time>2012-08-17T09:03:18.000Z</time>
      </trkpt>
      <trkpt lat="46.6071" lon="4.84376">
        <ele>436</ele>
        <time>2012-08-17T09:03:21.000Z</time>
      </trkpt>
      <trkpt lat="46.60709" lon="4.84384">
        <ele>436</ele>
        <time>2012-08-17T09:03:24.000Z</time>
      </trkpt>
      <trkpt lat="46.60709" lon="4.84391">
        <ele>435</ele>
        <time>2012-08-17T09:03:27.000Z</time>
      </trkpt>
      <trkpt lat="46.60711" lon="4.84395">
        <ele>435</ele>
        <time>2012-08-17T09:03:30.000Z</time>
      </trkpt>
      <trkpt lat="46.60712" lon="4.84397">
        <ele>434</ele>
        <time>2012-08-17T09:03:32.000Z</time>
      </trkpt>
      <trkpt lat="46.60714" lon="4.84401">
        <ele>434</ele>
        <time>2012-08-17T09:03:35.000Z</time>
      </trkpt>
      <trkpt lat="46.60714" lon="4.84409">
        <ele>434</ele>
        <time>2012-08-17T09:03:38.000Z</time>
      </trkpt>
      <trkpt lat="46.60715" lon="4.84415">
        <ele>433</ele>
        <time>2012-08-17T09:03:40.000Z</time>
      </trkpt>
      <trkpt lat="46.6072" lon="4.84424">
        <ele>433</ele>
        <time>2012-08-17T09:03:43.000Z</time>
      </trkpt>
      <trkpt lat="46.60726" lon="4.84432">
        <ele>432</ele>
        <time>2012-08-17T09:03:46.000Z</time>
      </trkpt>
      <trkpt lat="46.60729" lon="4.84439">
        <ele>431</ele>
        <time>2012-08-17T09:03:48.000Z</time>
      </trkpt>
      <trkpt lat="46.60738" lon="4.84455">
        <ele>430</ele>
        <time>2012-08-17T09:03:54.000Z</time>
      </trkpt>
      <trkpt lat="46.60744" lon="4.8446">
        <ele>429</ele>
        <time>2012-08-17T09:03:57.000Z</time>
      </trkpt>
      <trkpt lat="46.60749" lon="4.84468">
        <ele>429</ele>
        <time>2012-08-17T09:04:00.000Z</time>
      </trkpt>
      <trkpt lat="46.60752" lon="4.84475">
        <ele>428</ele>
        <time>2012-08-17T09:04:02.000Z</time>
      </trkpt>
      <trkpt lat="46.60761" lon="4.84499">
        <ele>427</ele>
        <time>2012-08-17T09:04:07.000Z</time>
      </trkpt>
      <trkpt lat="46.60765" lon="4.84508">
        <ele>426</ele>
        <time>2012-08-17T09:04:10.000Z</time>
      </trkpt>
      <trkpt lat="46.60771" lon="4.84516">
        <ele>425</ele>
        <time>2012-08-17T09:04:13.000Z</time>
      </trkpt>
      <trkpt lat="46.60776" lon="4.84523">
        <ele>424</ele>
        <time>2012-08-17T09:04:16.000Z</time>
      </trkpt>
      <trkpt lat="46.60778" lon="4.84527">
        <ele>423</ele>
        <time>2012-08-17T09:04:18.000Z</time>
      </trkpt>
      <trkpt lat="46.60783" lon="4.84529">
        <ele>422</ele>
        <time>2012-08-17T09:04:21.000Z</time>
      </trkpt>
      <trkpt lat="46.60787" lon="4.84531">
        <ele>421</ele>
        <time>2012-08-17T09:04:24.000Z</time>
      </trkpt>
      <trkpt lat="46.6079" lon="4.84533">
        <ele>421</ele>
        <time>2012-08-17T09:04:28.000Z</time>
      </trkpt>
      <trkpt lat="46.60791" lon="4.84535">
        <ele>421</ele>
        <time>2012-08-17T09:04:40.000Z</time>
      </trkpt>
      <trkpt lat="46.6079" lon="4.84535">
        <ele>420</ele>
        <time>2012-08-17T09:04:48.000Z</time>
      </trkpt>
      <trkpt lat="46.60788" lon="4.84534">
        <ele>420</ele>
        <time>2012-08-17T09:04:51.000Z</time>
      </trkpt>
      <trkpt lat="46.60787" lon="4.84535">
        <ele>420</ele>
        <time>2012-08-17T09:04:54.000Z</time>
      </trkpt>
      <trkpt lat="46.60785" lon="4.84535">
        <ele>420</ele>
        <time>2012-08-17T09:05:06.000Z</time>
      </trkpt>
      <trkpt lat="46.60783" lon="4.84531">
        <ele>420</ele>
        <time>2012-08-17T09:05:09.000Z</time>
      </trkpt>
      <trkpt lat="46.60783" lon="4.84529">
        <ele>420</ele>
        <time>2012-08-17T09:05:12.000Z</time>
      </trkpt>
      <trkpt lat="46.60785" lon="4.84534">
        <ele>420</ele>
        <time>2012-08-17T09:05:15.000Z</time>
      </trkpt>
      <trkpt lat="46.60785" lon="4.84534">
        <ele>420</ele>
        <time>2012-08-17T09:05:35.000Z</time>
      </trkpt>
      <trkpt lat="46.60788" lon="4.84539">
        <ele>420</ele>
        <time>2012-08-17T09:05:46.000Z</time>
      </trkpt>
      <trkpt lat="46.60788" lon="4.84543">
        <ele>420</ele>
        <time>2012-08-17T09:05:51.000Z</time>
      </trkpt>
      <trkpt lat="46.60786" lon="4.84544">
        <ele>420</ele>
        <time>2012-08-17T09:05:55.000Z</time>
      </trkpt>
      <trkpt lat="46.60786" lon="4.84545">
        <ele>419</ele>
        <time>2012-08-17T09:05:58.000Z</time>
      </trkpt>
      <trkpt lat="46.60788" lon="4.84544">
        <ele>419</ele>
        <time>2012-08-17T09:06:09.000Z</time>
      </trkpt>
      <trkpt lat="46.60787" lon="4.84544">
        <ele>419</ele>
        <time>2012-08-17T09:06:12.000Z</time>
      </trkpt>
      <trkpt lat="46.60786" lon="4.84543">
        <ele>419</ele>
        <time>2012-08-17T09:06:14.000Z</time>
      </trkpt>
      <trkpt lat="46.60787" lon="4.84544">
        <ele>419</ele>
        <time>2012-08-17T09:06:19.000Z</time>
      </trkpt>
      <trkpt lat="46.60788" lon="4.84546">
        <ele>419</ele>
        <time>2012-08-17T09:06:21.000Z</time>
      </trkpt>
      <trkpt lat="46.60788" lon="4.84547">
        <ele>419</ele>
        <time>2012-08-17T09:06:23.000Z</time>
      </trkpt>
      <trkpt lat="46.60787" lon="4.84548">
        <ele>418</ele>
        <time>2012-08-17T09:06:25.000Z</time>
      </trkpt>
      <trkpt lat="46.60784" lon="4.84548">
        <ele>418</ele>
        <time>2012-08-17T09:06:28.000Z</time>
      </trkpt>
      <trkpt lat="46.60781" lon="4.84548">
        <ele>418</ele>
        <time>2012-08-17T09:06:31.000Z</time>
      </trkpt>
      <trkpt lat="46.60779" lon="4.8455">
        <ele>418</ele>
        <time>2012-08-17T09:06:34.000Z</time>
      </trkpt>
      <trkpt lat="46.60778" lon="4.84552">
        <ele>418</ele>
        <time>2012-08-17T09:06:37.000Z</time>
      </trkpt>
      <trkpt lat="46.60777" lon="4.84552">
        <ele>417</ele>
        <time>2012-08-17T09:06:43.000Z</time>
      </trkpt>
      <trkpt lat="46.60776" lon="4.8455">
        <ele>417</ele>
        <time>2012-08-17T09:06:46.000Z</time>
      </trkpt>
      <trkpt lat="46.60776" lon="4.8455">
        <ele>417</ele>
        <time>2012-08-17T09:07:06.000Z</time>
      </trkpt>
      <trkpt lat="46.60778" lon="4.84549">
        <ele>417</ele>
        <time>2012-08-17T09:07:21.000Z</time>
      </trkpt>
      <trkpt lat="46.60779" lon="4.84545">
        <ele>417</ele>
        <time>2012-08-17T09:07:26.000Z</time>
      </trkpt>
      <trkpt lat="46.60779" lon="4.84542">
        <ele>418</ele>
        <time>2012-08-17T09:07:28.000Z</time>
      </trkpt>
      <trkpt lat="46.60779" lon="4.84541">
        <ele>418</ele>
        <time>2012-08-17T09:07:30.000Z</time>
      </trkpt>
      <trkpt lat="46.60779" lon="4.84537">
        <ele>419</ele>
        <time>2012-08-17T09:07:38.000Z</time>
      </trkpt>
      <trkpt lat="46.60778" lon="4.84537">
        <ele>419</ele>
        <time>2012-08-17T09:07:54.000Z</time>
      </trkpt>
      <trkpt lat="46.60778" lon="4.84547">
        <ele>419</ele>
        <time>2012-08-17T09:07:57.000Z</time>
      </trkpt>
      <trkpt lat="46.60778" lon="4.84562">
        <ele>418</ele>
        <time>2012-08-17T09:08:02.000Z</time>
      </trkpt>
      <trkpt lat="46.60778" lon="4.84568">
        <ele>417</ele>
        <time>2012-08-17T09:08:04.000Z</time>
      </trkpt>
      <trkpt lat="46.60779" lon="4.8458">
        <ele>415</ele>
        <time>2012-08-17T09:08:07.000Z</time>
      </trkpt>
      <trkpt lat="46.60778" lon="4.84592">
        <ele>414</ele>
        <time>2012-08-17T09:08:10.000Z</time>
      </trkpt>
      <trkpt lat="46.60777" lon="4.84599">
        <ele>413</ele>
        <time>2012-08-17T09:08:12.000Z</time>
      </trkpt>
      <trkpt lat="46.60777" lon="4.84604">
        <ele>411</ele>
        <time>2012-08-17T09:08:15.000Z</time>
      </trkpt>
      <trkpt lat="46.60777" lon="4.84609">
        <ele>410</ele>
        <time>2012-08-17T09:08:17.000Z</time>
      </trkpt>
      <trkpt lat="46.60776" lon="4.84615">
        <ele>409</ele>
        <time>2012-08-17T09:08:20.000Z</time>
      </trkpt>
      <trkpt lat="46.60774" lon="4.84619">
        <ele>409</ele>
        <time>2012-08-17T09:08:23.000Z</time>
      </trkpt>
      <trkpt lat="46.60771" lon="4.84622">
        <ele>408</ele>
        <time>2012-08-17T09:08:26.000Z</time>
      </trkpt>
      <trkpt lat="46.6077" lon="4.84621">
        <ele>408</ele>
        <time>2012-08-17T09:08:29.000Z</time>
      </trkpt>
      <trkpt lat="46.60769" lon="4.84622">
        <ele>407</ele>
        <time>2012-08-17T09:08:37.000Z</time>
      </trkpt>
      <trkpt lat="46.60767" lon="4.84623">
        <ele>407</ele>
        <time>2012-08-17T09:08:39.000Z</time>
      </trkpt>
      <trkpt lat="46.60761" lon="4.84628">
        <ele>406</ele>
        <time>2012-08-17T09:08:44.000Z</time>
      </trkpt>
      <trkpt lat="46.6076" lon="4.84626">
        <ele>406</ele>
        <time>2012-08-17T09:08:47.000Z</time>
      </trkpt>
      <trkpt lat="46.60761" lon="4.84623">
        <ele>406</ele>
        <time>2012-08-17T09:08:49.000Z</time>
      </trkpt>
      <trkpt lat="46.60761" lon="4.84621">
        <ele>406</ele>
        <time>2012-08-17T09:08:51.000Z</time>
      </trkpt>
      <trkpt lat="46.60762" lon="4.84621">
        <ele>406</ele>
        <time>2012-08-17T09:08:57.000Z</time>
      </trkpt>
      <trkpt lat="46.60762" lon="4.8462">
        <ele>406</ele>
        <time>2012-08-17T09:09:01.000Z</time>
      </trkpt>
      <trkpt lat="46.60761" lon="4.84621">
        <ele>407</ele>
        <time>2012-08-17T09:09:04.000Z</time>
      </trkpt>
      <trkpt lat="46.60759" lon="4.84623">
        <ele>407</ele>
        <time>2012-08-17T09:09:07.000Z</time>
      </trkpt>
      <trkpt lat="46.60759" lon="4.84624">
        <ele>406</ele>
        <time>2012-08-17T09:09:10.000Z</time>
      </trkpt>
      <trkpt lat="46.60758" lon="4.84626">
        <ele>406</ele>
        <time>2012-08-17T09:09:14.000Z</time>
      </trkpt>
      <trkpt lat="46.60758" lon="4.84628">
        <ele>406</ele>
        <time>2012-08-17T09:09:17.000Z</time>
      </trkpt>
      <trkpt lat="46.60758" lon="4.84629">
        <ele>406</ele>
        <time>2012-08-17T09:09:20.000Z</time>
      </trkpt>
      <trkpt lat="46.60757" lon="4.84629">
        <ele>406</ele>
        <time>2012-08-17T09:09:22.000Z</time>
      </trkpt>
      <trkpt lat="46.60754" lon="4.84624">
        <ele>406</ele>
        <time>2012-08-17T09:09:25.000Z</time>
      </trkpt>
      <trkpt lat="46.60754" lon="4.84623">
        <ele>406</ele>
        <time>2012-08-17T09:09:28.000Z</time>
      </trkpt>
      <trkpt lat="46.60753" lon="4.84624">
        <ele>406</ele>
        <time>2012-08-17T09:09:32.000Z</time>
      </trkpt>
      <trkpt lat="46.60751" lon="4.84623">
        <ele>406</ele>
        <time>2012-08-17T09:09:35.000Z</time>
      </trkpt>
      <trkpt lat="46.6075" lon="4.84625">
        <ele>406</ele>
        <time>2012-08-17T09:09:39.000Z</time>
      </trkpt>
      <trkpt lat="46.60749" lon="4.84629">
        <ele>406</ele>
        <time>2012-08-17T09:09:42.000Z</time>
      </trkpt>
      <trkpt lat="46.60748" lon="4.8463">
        <ele>405</ele>
        <time>2012-08-17T09:09:45.000Z</time>
      </trkpt>
      <trkpt lat="46.60748" lon="4.84634">
        <ele>405</ele>
        <time>2012-08-17T09:09:48.000Z</time>
      </trkpt>
      <trkpt lat="46.60748" lon="4.84635">
        <ele>405</ele>
        <time>2012-08-17T09:09:50.000Z</time>
      </trkpt>
      <trkpt lat="46.60748" lon="4.84636">
        <ele>404</ele>
        <time>2012-08-17T09:09:53.000Z</time>
      </trkpt>
      <trkpt lat="46.60749" lon="4.84635">
        <ele>404</ele>
        <time>2012-08-17T09:10:16.000Z</time>
      </trkpt>
      <trkpt lat="46.60753" lon="4.84636">
        <ele>404</ele>
        <time>2012-08-17T09:10:22.000Z</time>
      </trkpt>
      <trkpt lat="46.60756" lon="4.84637">
        <ele>404</ele>
        <time>2012-08-17T09:10:24.000Z</time>
      </trkpt>
      <trkpt lat="46.60758" lon="4.84637">
        <ele>404</ele>
        <time>2012-08-17T09:10:26.000Z</time>
      </trkpt>
      <trkpt lat="46.60759" lon="4.84635">
        <ele>404</ele>
        <time>2012-08-17T09:10:29.000Z</time>
      </trkpt>
      <trkpt lat="46.60759" lon="4.84633">
        <ele>404</ele>
        <time>2012-08-17T09:10:31.000Z</time>
      </trkpt>
      <trkpt lat="46.60756" lon="4.84632">
        <ele>405</ele>
        <time>2012-08-17T09:10:34.000Z</time>
      </trkpt>
      <trkpt lat="46.60755" lon="4.84632">
        <ele>405</ele>
        <time>2012-08-17T09:10:36.000Z</time>
      </trkpt>
      <trkpt lat="46.60754" lon="4.84632">
        <ele>405</ele>
        <time>2012-08-17T09:10:39.000Z</time>
      </trkpt>
      <trkpt lat="46.6075" lon="4.84633">
        <ele>405</ele>
        <time>2012-08-17T09:10:42.000Z</time>
      </trkpt>
      <trkpt lat="46.60749" lon="4.84632">
        <ele>405</ele>
        <time>2012-08-17T09:10:45.000Z</time>
      </trkpt>
      <trkpt lat="46.60748" lon="4.84628">
        <ele>405</ele>
        <time>2012-08-17T09:10:48.000Z</time>
      </trkpt>
      <trkpt lat="46.60748" lon="4.84626">
        <ele>405</ele>
        <time>2012-08-17T09:10:50.000Z</time>
      </trkpt>
      <trkpt lat="46.60748" lon="4.84625">
        <ele>405</ele>
        <time>2012-08-17T09:10:53.000Z</time>
      </trkpt>
      <trkpt lat="46.6075" lon="4.84624">
        <ele>405</ele>
        <time>2012-08-17T09:10:56.000Z</time>
      </trkpt>
      <trkpt lat="46.60752" lon="4.84625">
        <ele>405</ele>
        <time>2012-08-17T09:10:58.000Z</time>
      </trkpt>
      <trkpt lat="46.60753" lon="4.84627">
        <ele>405</ele>
        <time>2012-08-17T09:11:00.000Z</time>
      </trkpt>
      <trkpt lat="46.60754" lon="4.84634">
        <ele>405</ele>
        <time>2012-08-17T09:11:03.000Z</time>
      </trkpt>
      <trkpt lat="46.60755" lon="4.84638">
        <ele>405</ele>
        <time>2012-08-17T09:11:06.000Z</time>
      </trkpt>
      <trkpt lat="46.60756" lon="4.84634">
        <ele>405</ele>
        <time>2012-08-17T09:11:08.000Z</time>
      </trkpt>
      <trkpt lat="46.6076" lon="4.84625">
        <ele>405</ele>
        <time>2012-08-17T09:11:15.000Z</time>
      </trkpt>
      <trkpt lat="46.60764" lon="4.84624">
        <ele>406</ele>
        <time>2012-08-17T09:11:18.000Z</time>
      </trkpt>
      <trkpt lat="46.60764" lon="4.84621">
        <ele>406</ele>
        <time>2012-08-17T09:11:21.000Z</time>
      </trkpt>
      <trkpt lat="46.60766" lon="4.84614">
        <ele>407</ele>
        <time>2012-08-17T09:11:26.000Z</time>
      </trkpt>
      <trkpt lat="46.60767" lon="4.84609">
        <ele>408</ele>
        <time>2012-08-17T09:11:32.000Z</time>
      </trkpt>
      <trkpt lat="46.60769" lon="4.84605">
        <ele>408</ele>
        <time>2012-08-17T09:11:37.000Z</time>
      </trkpt>
      <trkpt lat="46.6077" lon="4.84604">
        <ele>409</ele>
        <time>2012-08-17T09:11:40.000Z</time>
      </trkpt>
      <trkpt lat="46.60771" lon="4.84601">
        <ele>409</ele>
        <time>2012-08-17T09:11:42.000Z</time>
      </trkpt>
      <trkpt lat="46.60772" lon="4.84599">
        <ele>409</ele>
        <time>2012-08-17T09:11:44.000Z</time>
      </trkpt>
      <trkpt lat="46.60774" lon="4.84597">
        <ele>410</ele>
        <time>2012-08-17T09:11:46.000Z</time>
      </trkpt>
      <trkpt lat="46.60774" lon="4.84595">
        <ele>410</ele>
        <time>2012-08-17T09:11:49.000Z</time>
      </trkpt>
      <trkpt lat="46.60774" lon="4.84593">
        <ele>410</ele>
        <time>2012-08-17T09:11:52.000Z</time>
      </trkpt>
      <trkpt lat="46.60776" lon="4.84581">
        <ele>411</ele>
        <time>2012-08-17T09:11:55.000Z</time>
      </trkpt>
      <trkpt lat="46.60776" lon="4.84574">
        <ele>411</ele>
        <time>2012-08-17T09:11:57.000Z</time>
      </trkpt>
      <trkpt lat="46.60777" lon="4.84571">
        <ele>412</ele>
        <time>2012-08-17T09:12:00.000Z</time>
      </trkpt>
      <trkpt lat="46.60777" lon="4.84569">
        <ele>413</ele>
        <time>2012-08-17T09:12:02.000Z</time>
      </trkpt>
      <trkpt lat="46.60779" lon="4.84569">
        <ele>414</ele>
        <time>2012-08-17T09:12:05.000Z</time>
      </trkpt>
      <trkpt lat="46.6078" lon="4.84568">
        <ele>414</ele>
        <time>2012-08-17T09:12:08.000Z</time>
      </trkpt>
      <trkpt lat="46.60782" lon="4.84564">
        <ele>415</ele>
        <time>2012-08-17T09:12:13.000Z</time>
      </trkpt>
      <trkpt lat="46.60782" lon="4.84562">
        <ele>415</ele>
        <time>2012-08-17T09:12:15.000Z</time>
      </trkpt>
      <trkpt lat="46.60783" lon="4.8456">
        <ele>415</ele>
        <time>2012-08-17T09:12:17.000Z</time>
      </trkpt>
      <trkpt lat="46.60785" lon="4.84559">
        <ele>416</ele>
        <time>2012-08-17T09:12:20.000Z</time>
      </trkpt>
      <trkpt lat="46.60786" lon="4.84555">
        <ele>416</ele>
        <time>2012-08-17T09:12:25.000Z</time>
      </trkpt>
      <trkpt lat="46.60786" lon="4.84552">
        <ele>417</ele>
        <time>2012-08-17T09:12:27.000Z</time>
      </trkpt>
      <trkpt lat="46.60786" lon="4.84549">
        <ele>417</ele>
        <time>2012-08-17T09:12:29.000Z</time>
      </trkpt>
      <trkpt lat="46.60788" lon="4.8454">
        <ele>418</ele>
        <time>2012-08-17T09:12:34.000Z</time>
      </trkpt>
      <trkpt lat="46.60788" lon="4.84539">
        <ele>419</ele>
        <time>2012-08-17T09:12:38.000Z</time>
      </trkpt>
      <trkpt lat="46.60787" lon="4.84538">
        <ele>419</ele>
        <time>2012-08-17T09:12:40.000Z</time>
      </trkpt>
      <trkpt lat="46.60785" lon="4.84535">
        <ele>420</ele>
        <time>2012-08-17T09:12:43.000Z</time>
      </trkpt>
      <trkpt lat="46.60783" lon="4.84533">
        <ele>420</ele>
        <time>2012-08-17T09:12:49.000Z</time>
      </trkpt>
      <trkpt lat="46.60784" lon="4.84533">
        <ele>420</ele>
        <time>2012-08-17T09:12:55.000Z</time>
      </trkpt>
      <trkpt lat="46.60786" lon="4.84532">
        <ele>420</ele>
        <time>2012-08-17T09:12:58.000Z</time>
      </trkpt>
      <trkpt lat="46.60787" lon="4.84531">
        <ele>420</ele>
        <time>2012-08-17T09:13:11.000Z</time>
      </trkpt>
      <trkpt lat="46.60788" lon="4.8453">
        <ele>421</ele>
        <time>2012-08-17T09:13:15.000Z</time>
      </trkpt>
      <trkpt lat="46.6079" lon="4.84531">
        <ele>421</ele>
        <time>2012-08-17T09:13:18.000Z</time>
      </trkpt>
      <trkpt lat="46.60792" lon="4.84535">
        <ele>421</ele>
        <time>2012-08-17T09:13:21.000Z</time>
      </trkpt>
      <trkpt lat="46.60793" lon="4.84539">
        <ele>421</ele>
        <time>2012-08-17T09:13:23.000Z</time>
      </trkpt>
      <trkpt lat="46.60794" lon="4.84542">
        <ele>420</ele>
        <time>2012-08-17T09:13:26.000Z</time>
      </trkpt>
      <trkpt lat="46.60797" lon="4.84544">
        <ele>420</ele>
        <time>2012-08-17T09:13:28.000Z</time>
      </trkpt>
      <trkpt lat="46.60799" lon="4.84548">
        <ele>419</ele>
        <time>2012-08-17T09:13:31.000Z</time>
      </trkpt>
      <trkpt lat="46.60799" lon="4.84549">
        <ele>419</ele>
        <time>2012-08-17T09:13:33.000Z</time>
      </trkpt>
      <trkpt lat="46.60798" lon="4.84549">
        <ele>419</ele>
        <time>2012-08-17T09:13:36.000Z</time>
      </trkpt>
      <trkpt lat="46.60798" lon="4.84551">
        <ele>418</ele>
        <time>2012-08-17T09:13:40.000Z</time>
      </trkpt>
      <trkpt lat="46.60801" lon="4.84551">
        <ele>418</ele>
        <time>2012-08-17T09:13:43.000Z</time>
      </trkpt>
      <trkpt lat="46.60802" lon="4.84552">
        <ele>418</ele>
        <time>2012-08-17T09:13:45.000Z</time>
      </trkpt>
      <trkpt lat="46.60808" lon="4.84554">
        <ele>418</ele>
        <time>2012-08-17T09:13:50.000Z</time>
      </trkpt>
      <trkpt lat="46.60811" lon="4.84558">
        <ele>418</ele>
        <time>2012-08-17T09:13:53.000Z</time>
      </trkpt>
      <trkpt lat="46.60816" lon="4.84566">
        <ele>417</ele>
        <time>2012-08-17T09:13:58.000Z</time>
      </trkpt>
      <trkpt lat="46.60822" lon="4.84578">
        <ele>416</ele>
        <time>2012-08-17T09:14:02.000Z</time>
      </trkpt>
      <trkpt lat="46.60825" lon="4.84588">
        <ele>415</ele>
        <time>2012-08-17T09:14:05.000Z</time>
      </trkpt>
      <trkpt lat="46.60826" lon="4.84595">
        <ele>414</ele>
        <time>2012-08-17T09:14:07.000Z</time>
      </trkpt>
      <trkpt lat="46.60828" lon="4.84605">
        <ele>413</ele>
        <time>2012-08-17T09:14:10.000Z</time>
      </trkpt>
      <trkpt lat="46.60832" lon="4.84612">
        <ele>413</ele>
        <time>2012-08-17T09:14:13.000Z</time>
      </trkpt>
      <trkpt lat="46.60838" lon="4.84625">
        <ele>412</ele>
        <time>2012-08-17T09:14:16.000Z</time>
      </trkpt>
      <trkpt lat="46.60842" lon="4.84636">
        <ele>411</ele>
        <time>2012-08-17T09:14:19.000Z</time>
      </trkpt>
      <trkpt lat="46.60844" lon="4.84641">
        <ele>410</ele>
        <time>2012-08-17T09:14:21.000Z</time>
      </trkpt>
      <trkpt lat="46.60847" lon="4.84649">
        <ele>409</ele>
        <time>2012-08-17T09:14:24.000Z</time>
      </trkpt>
      <trkpt lat="46.60847" lon="4.84653">
        <ele>408</ele>
        <time>2012-08-17T09:14:26.000Z</time>
      </trkpt>
      <trkpt lat="46.60848" lon="4.8466">
        <ele>407</ele>
        <time>2012-08-17T09:14:29.000Z</time>
      </trkpt>
      <trkpt lat="46.60849" lon="4.84665">
        <ele>406</ele>
        <time>2012-08-17T09:14:31.000Z</time>
      </trkpt>
      <trkpt lat="46.60851" lon="4.8467">
        <ele>406</ele>
        <time>2012-08-17T09:14:33.000Z</time>
      </trkpt>
      <trkpt lat="46.60852" lon="4.84675">
        <ele>405</ele>
        <time>2012-08-17T09:14:35.000Z</time>
      </trkpt>
      <trkpt lat="46.60856" lon="4.84688">
        <ele>404</ele>
        <time>2012-08-17T09:14:41.000Z</time>
      </trkpt>
      <trkpt lat="46.6086" lon="4.84693">
        <ele>404</ele>
        <time>2012-08-17T09:14:44.000Z</time>
      </trkpt>
      <trkpt lat="46.60863" lon="4.84696">
        <ele>403</ele>
        <time>2012-08-17T09:14:46.000Z</time>
      </trkpt>
      <trkpt lat="46.60874" lon="4.84706">
        <ele>402</ele>
        <time>2012-08-17T09:14:53.000Z</time>
      </trkpt>
      <trkpt lat="46.60876" lon="4.8471">
        <ele>402</ele>
        <time>2012-08-17T09:14:56.000Z</time>
      </trkpt>
      <trkpt lat="46.60876" lon="4.84711">
        <ele>402</ele>
        <time>2012-08-17T09:14:58.000Z</time>
      </trkpt>
      <trkpt lat="46.60874" lon="4.84712">
        <ele>402</ele>
        <time>2012-08-17T09:15:01.000Z</time>
      </trkpt>
      <trkpt lat="46.60874" lon="4.84711">
        <ele>402</ele>
        <time>2012-08-17T09:15:04.000Z</time>
      </trkpt>
      <trkpt lat="46.60875" lon="4.8471">
        <ele>402</ele>
        <time>2012-08-17T09:15:07.000Z</time>
      </trkpt>
      <trkpt lat="46.60873" lon="4.84713">
        <ele>402</ele>
        <time>2012-08-17T09:15:16.000Z</time>
      </trkpt>
      <trkpt lat="46.60871" lon="4.84715">
        <ele>401</ele>
        <time>2012-08-17T09:15:18.000Z</time>
      </trkpt>
      <trkpt lat="46.60869" lon="4.84717">
        <ele>401</ele>
        <time>2012-08-17T09:15:23.000Z</time>
      </trkpt>
      <trkpt lat="46.6087" lon="4.84716">
        <ele>401</ele>
        <time>2012-08-17T09:15:27.000Z</time>
      </trkpt>
      <trkpt lat="46.60871" lon="4.84715">
        <ele>401</ele>
        <time>2012-08-17T09:15:30.000Z</time>
      </trkpt>
      <trkpt lat="46.60873" lon="4.84711">
        <ele>401</ele>
        <time>2012-08-17T09:15:33.000Z</time>
      </trkpt>
      <trkpt lat="46.60877" lon="4.84709">
        <ele>401</ele>
        <time>2012-08-17T09:15:36.000Z</time>
      </trkpt>
      <trkpt lat="46.6088" lon="4.84706">
        <ele>402</ele>
        <time>2012-08-17T09:15:39.000Z</time>
      </trkpt>
      <trkpt lat="46.60883" lon="4.84706">
        <ele>402</ele>
        <time>2012-08-17T09:15:41.000Z</time>
      </trkpt>
      <trkpt lat="46.60893" lon="4.84706">
        <ele>402</ele>
        <time>2012-08-17T09:15:44.000Z</time>
      </trkpt>
      <trkpt lat="46.609" lon="4.84708">
        <ele>402</ele>
        <time>2012-08-17T09:15:46.000Z</time>
      </trkpt>
      <trkpt lat="46.6091" lon="4.84712">
        <ele>402</ele>
        <time>2012-08-17T09:15:49.000Z</time>
      </trkpt>
      <trkpt lat="46.60919" lon="4.84718">
        <ele>402</ele>
        <time>2012-08-17T09:15:52.000Z</time>
      </trkpt>
      <trkpt lat="46.60934" lon="4.84726">
        <ele>401</ele>
        <time>2012-08-17T09:15:57.000Z</time>
      </trkpt>
      <trkpt lat="46.60979" lon="4.84749">
        <ele>400</ele>
        <time>2012-08-17T09:16:07.000Z</time>
      </trkpt>
      <trkpt lat="46.60989" lon="4.84756">
        <ele>400</ele>
        <time>2012-08-17T09:16:09.000Z</time>
      </trkpt>
      <trkpt lat="46.6102" lon="4.84788">
        <ele>398</ele>
        <time>2012-08-17T09:16:13.000Z</time>
      </trkpt>
      <trkpt lat="46.6103" lon="4.84798">
        <ele>397</ele>
        <time>2012-08-17T09:16:15.000Z</time>
      </trkpt>
      <trkpt lat="46.61045" lon="4.84813">
        <ele>395</ele>
        <time>2012-08-17T09:16:18.000Z</time>
      </trkpt>
      <trkpt lat="46.61066" lon="4.84828">
        <ele>393</ele>
        <time>2012-08-17T09:16:21.000Z</time>
      </trkpt>
      <trkpt lat="46.61084" lon="4.8484">
        <ele>391</ele>
        <time>2012-08-17T09:16:23.000Z</time>
      </trkpt>
      <trkpt lat="46.61109" lon="4.84848">
        <ele>388</ele>
        <time>2012-08-17T09:16:26.000Z</time>
      </trkpt>
      <trkpt lat="46.61149" lon="4.8487">
        <ele>386</ele>
        <time>2012-08-17T09:16:30.000Z</time>
      </trkpt>
      <trkpt lat="46.61164" lon="4.84881">
        <ele>383</ele>
        <time>2012-08-17T09:16:32.000Z</time>
      </trkpt>
      <trkpt lat="46.61171" lon="4.84891">
        <ele>381</ele>
        <time>2012-08-17T09:16:34.000Z</time>
      </trkpt>
      <trkpt lat="46.61187" lon="4.84899">
        <ele>379</ele>
        <time>2012-08-17T09:16:37.000Z</time>
      </trkpt>
      <trkpt lat="46.612" lon="4.84914">
        <ele>378</ele>
        <time>2012-08-17T09:16:40.000Z</time>
      </trkpt>
      <trkpt lat="46.61207" lon="4.84933">
        <ele>378</ele>
        <time>2012-08-17T09:16:43.000Z</time>
      </trkpt>
      <trkpt lat="46.61211" lon="4.84938">
        <ele>378</ele>
        <time>2012-08-17T09:16:46.000Z</time>
      </trkpt>
      <trkpt lat="46.61232" lon="4.8495">
        <ele>377</ele>
        <time>2012-08-17T09:16:57.000Z</time>
      </trkpt>
      <trkpt lat="46.61244" lon="4.84962">
        <ele>377</ele>
        <time>2012-08-17T09:17:02.000Z</time>
      </trkpt>
      <trkpt lat="46.61247" lon="4.84967">
        <ele>377</ele>
        <time>2012-08-17T09:17:04.000Z</time>
      </trkpt>
      <trkpt lat="46.61253" lon="4.84972">
        <ele>377</ele>
        <time>2012-08-17T09:17:07.000Z</time>
      </trkpt>
      <trkpt lat="46.61257" lon="4.84974">
        <ele>377</ele>
        <time>2012-08-17T09:17:09.000Z</time>
      </trkpt>
      <trkpt lat="46.61263" lon="4.84976">
        <ele>378</ele>
        <time>2012-08-17T09:17:12.000Z</time>
      </trkpt>
      <trkpt lat="46.61267" lon="4.84975">
        <ele>378</ele>
        <time>2012-08-17T09:17:15.000Z</time>
      </trkpt>
      <trkpt lat="46.6127" lon="4.84971">
        <ele>378</ele>
        <time>2012-08-17T09:17:18.000Z</time>
      </trkpt>
      <trkpt lat="46.61275" lon="4.84967">
        <ele>378</ele>
        <time>2012-08-17T09:17:21.000Z</time>
      </trkpt>
      <trkpt lat="46.61279" lon="4.84965">
        <ele>379</ele>
        <time>2012-08-17T09:17:24.000Z</time>
      </trkpt>
      <trkpt lat="46.61283" lon="4.84961">
        <ele>379</ele>
        <time>2012-08-17T09:17:27.000Z</time>
      </trkpt>
      <trkpt lat="46.61286" lon="4.84957">
        <ele>379</ele>
        <time>2012-08-17T09:17:29.000Z</time>
      </trkpt>
      <trkpt lat="46.613" lon="4.84942">
        <ele>380</ele>
        <time>2012-08-17T09:17:35.000Z</time>
      </trkpt>
      <trkpt lat="46.61304" lon="4.84939">
        <ele>380</ele>
        <time>2012-08-17T09:17:37.000Z</time>
      </trkpt>
      <trkpt lat="46.6131" lon="4.84937">
        <ele>380</ele>
        <time>2012-08-17T09:17:39.000Z</time>
      </trkpt>
      <trkpt lat="46.61317" lon="4.84937">
        <ele>381</ele>
        <time>2012-08-17T09:17:42.000Z</time>
      </trkpt>
      <trkpt lat="46.61332" lon="4.84937">
        <ele>382</ele>
        <time>2012-08-17T09:17:49.000Z</time>
      </trkpt>
      <trkpt lat="46.61334" lon="4.84939">
        <ele>382</ele>
        <time>2012-08-17T09:17:51.000Z</time>
      </trkpt>
      <trkpt lat="46.61343" lon="4.84944">
        <ele>383</ele>
        <time>2012-08-17T09:17:57.000Z</time>
      </trkpt>
      <trkpt lat="46.61356" lon="4.84948">
        <ele>383</ele>
        <time>2012-08-17T09:18:05.000Z</time>
      </trkpt>
      <trkpt lat="46.61361" lon="4.84947">
        <ele>383</ele>
        <time>2012-08-17T09:18:08.000Z</time>
      </trkpt>
      <trkpt lat="46.61365" lon="4.84947">
        <ele>382</ele>
        <time>2012-08-17T09:18:11.000Z</time>
      </trkpt>
      <trkpt lat="46.61368" lon="4.84949">
        <ele>382</ele>
        <time>2012-08-17T09:18:14.000Z</time>
      </trkpt>
      <trkpt lat="46.6137" lon="4.84952">
        <ele>382</ele>
        <time>2012-08-17T09:18:17.000Z</time>
      </trkpt>
      <trkpt lat="46.61379" lon="4.84958">
        <ele>382</ele>
        <time>2012-08-17T09:18:27.000Z</time>
      </trkpt>
      <trkpt lat="46.61383" lon="4.84959">
        <ele>382</ele>
        <time>2012-08-17T09:18:36.000Z</time>
      </trkpt>
      <trkpt lat="46.61385" lon="4.8496">
        <ele>382</ele>
        <time>2012-08-17T09:18:51.000Z</time>
      </trkpt>
      <trkpt lat="46.61386" lon="4.8496">
        <ele>383</ele>
        <time>2012-08-17T09:19:04.000Z</time>
      </trkpt>
      <trkpt lat="46.61386" lon="4.84959">
        <ele>383</ele>
        <time>2012-08-17T09:19:16.000Z</time>
      </trkpt>
      <trkpt lat="46.61388" lon="4.84961">
        <ele>383</ele>
        <time>2012-08-17T09:19:18.000Z</time>
      </trkpt>
      <trkpt lat="46.6139" lon="4.84964">
        <ele>383</ele>
        <time>2012-08-17T09:19:20.000Z</time>
      </trkpt>
      <trkpt lat="46.61393" lon="4.84965">
        <ele>383</ele>
        <time>2012-08-17T09:19:23.000Z</time>
      </trkpt>
      <trkpt lat="46.614" lon="4.84965">
        <ele>383</ele>
        <time>2012-08-17T09:19:26.000Z</time>
      </trkpt>
      <trkpt lat="46.61407" lon="4.84968">
        <ele>383</ele>
        <time>2012-08-17T09:19:29.000Z</time>
      </trkpt>
      <trkpt lat="46.61411" lon="4.8497">
        <ele>383</ele>
        <time>2012-08-17T09:19:31.000Z</time>
      </trkpt>
      <trkpt lat="46.61416" lon="4.84974">
        <ele>383</ele>
        <time>2012-08-17T09:19:34.000Z</time>
      </trkpt>
      <trkpt lat="46.61421" lon="4.84979">
        <ele>383</ele>
        <time>2012-08-17T09:19:37.000Z</time>
      </trkpt>
      <trkpt lat="46.61425" lon="4.84987">
        <ele>383</ele>
        <time>2012-08-17T09:19:40.000Z</time>
      </trkpt>
      <trkpt lat="46.61429" lon="4.8499">
        <ele>383</ele>
        <time>2012-08-17T09:19:42.000Z</time>
      </trkpt>
      <trkpt lat="46.61433" lon="4.84992">
        <ele>383</ele>
        <time>2012-08-17T09:19:44.000Z</time>
      </trkpt>
      <trkpt lat="46.61439" lon="4.84996">
        <ele>382</ele>
        <time>2012-08-17T09:19:47.000Z</time>
      </trkpt>
      <trkpt lat="46.61445" lon="4.84997">
        <ele>382</ele>
        <time>2012-08-17T09:19:50.000Z</time>
      </trkpt>
      <trkpt lat="46.61451" lon="4.84997">
        <ele>382</ele>
        <time>2012-08-17T09:19:53.000Z</time>
      </trkpt>
      <trkpt lat="46.61456" lon="4.84998">
        <ele>381</ele>
        <time>2012-08-17T09:19:56.000Z</time>
      </trkpt>
      <trkpt lat="46.61458" lon="4.84998">
        <ele>381</ele>
        <time>2012-08-17T09:19:58.000Z</time>
      </trkpt>
      <trkpt lat="46.6146" lon="4.85001">
        <ele>381</ele>
        <time>2012-08-17T09:20:01.000Z</time>
      </trkpt>
      <trkpt lat="46.61463" lon="4.85007">
        <ele>380</ele>
        <time>2012-08-17T09:20:03.000Z</time>
      </trkpt>
      <trkpt lat="46.61469" lon="4.85016">
        <ele>380</ele>
        <time>2012-08-17T09:20:06.000Z</time>
      </trkpt>
      <trkpt lat="46.61475" lon="4.85023">
        <ele>379</ele>
        <time>2012-08-17T09:20:09.000Z</time>
      </trkpt>
      <trkpt lat="46.61483" lon="4.85033">
        <ele>378</ele>
        <time>2012-08-17T09:20:13.000Z</time>
      </trkpt>
      <trkpt lat="46.61501" lon="4.8505">
        <ele>377</ele>
        <time>2012-08-17T09:20:18.000Z</time>
      </trkpt>
      <trkpt lat="46.61512" lon="4.85055">
        <ele>376</ele>
        <time>2012-08-17T09:20:21.000Z</time>
      </trkpt>
      <trkpt lat="46.61521" lon="4.85055">
        <ele>376</ele>
        <time>2012-08-17T09:20:24.000Z</time>
      </trkpt>
      <trkpt lat="46.61525" lon="4.85057">
        <ele>376</ele>
        <time>2012-08-17T09:20:26.000Z</time>
      </trkpt>
      <trkpt lat="46.61531" lon="4.85058">
        <ele>375</ele>
        <time>2012-08-17T09:20:29.000Z</time>
      </trkpt>
      <trkpt lat="46.61538" lon="4.85061">
        <ele>375</ele>
        <time>2012-08-17T09:20:33.000Z</time>
      </trkpt>
      <trkpt lat="46.61542" lon="4.85066">
        <ele>375</ele>
        <time>2012-08-17T09:20:36.000Z</time>
      </trkpt>
      <trkpt lat="46.61547" lon="4.8507">
        <ele>375</ele>
        <time>2012-08-17T09:20:39.000Z</time>
      </trkpt>
      <trkpt lat="46.61556" lon="4.85077">
        <ele>375</ele>
        <time>2012-08-17T09:20:44.000Z</time>
      </trkpt>
      <trkpt lat="46.61562" lon="4.8508">
        <ele>375</ele>
        <time>2012-08-17T09:20:47.000Z</time>
      </trkpt>
      <trkpt lat="46.61567" lon="4.85084">
        <ele>376</ele>
        <time>2012-08-17T09:20:50.000Z</time>
      </trkpt>
      <trkpt lat="46.61572" lon="4.85084">
        <ele>376</ele>
        <time>2012-08-17T09:20:52.000Z</time>
      </trkpt>
      <trkpt lat="46.61587" lon="4.85088">
        <ele>376</ele>
        <time>2012-08-17T09:20:59.000Z</time>
      </trkpt>
      <trkpt lat="46.61592" lon="4.85092">
        <ele>376</ele>
        <time>2012-08-17T09:21:02.000Z</time>
      </trkpt>
      <trkpt lat="46.61594" lon="4.85094">
        <ele>376</ele>
        <time>2012-08-17T09:21:05.000Z</time>
      </trkpt>
      <trkpt lat="46.61595" lon="4.85094">
        <ele>375</ele>
        <time>2012-08-17T09:21:09.000Z</time>
      </trkpt>
      <trkpt lat="46.61598" lon="4.85098">
        <ele>375</ele>
        <time>2012-08-17T09:21:11.000Z</time>
      </trkpt>
      <trkpt lat="46.6161" lon="4.85101">
        <ele>375</ele>
        <time>2012-08-17T09:21:14.000Z</time>
      </trkpt>
      <trkpt lat="46.6163" lon="4.85104">
        <ele>374</ele>
        <time>2012-08-17T09:21:19.000Z</time>
      </trkpt>
      <trkpt lat="46.61637" lon="4.85104">
        <ele>374</ele>
        <time>2012-08-17T09:21:21.000Z</time>
      </trkpt>
      <trkpt lat="46.61646" lon="4.85103">
        <ele>374</ele>
        <time>2012-08-17T09:21:24.000Z</time>
      </trkpt>
      <trkpt lat="46.61685" lon="4.85103">
        <ele>374</ele>
        <time>2012-08-17T09:21:39.000Z</time>
      </trkpt>
      <trkpt lat="46.61691" lon="4.85104">
        <ele>373</ele>
        <time>2012-08-17T09:21:41.000Z</time>
      </trkpt>
      <trkpt lat="46.61697" lon="4.85104">
        <ele>373</ele>
        <time>2012-08-17T09:21:43.000Z</time>
      </trkpt>
      <trkpt lat="46.61705" lon="4.85103">
        <ele>373</ele>
        <time>2012-08-17T09:21:46.000Z</time>
      </trkpt>
      <trkpt lat="46.61711" lon="4.85099">
        <ele>373</ele>
        <time>2012-08-17T09:21:49.000Z</time>
      </trkpt>
      <trkpt lat="46.61728" lon="4.85093">
        <ele>373</ele>
        <time>2012-08-17T09:21:56.000Z</time>
      </trkpt>
      <trkpt lat="46.61732" lon="4.85093">
        <ele>373</ele>
        <time>2012-08-17T09:21:58.000Z</time>
      </trkpt>
      <trkpt lat="46.61735" lon="4.85094">
        <ele>372</ele>
        <time>2012-08-17T09:22:00.000Z</time>
      </trkpt>
      <trkpt lat="46.61739" lon="4.85098">
        <ele>372</ele>
        <time>2012-08-17T09:22:03.000Z</time>
      </trkpt>
      <trkpt lat="46.61757" lon="4.8511">
        <ele>371</ele>
        <time>2012-08-17T09:22:13.000Z</time>
      </trkpt>
      <trkpt lat="46.61776" lon="4.85124">
        <ele>370</ele>
        <time>2012-08-17T09:22:20.000Z</time>
      </trkpt>
      <trkpt lat="46.61788" lon="4.85131">
        <ele>370</ele>
        <time>2012-08-17T09:22:23.000Z</time>
      </trkpt>
      <trkpt lat="46.61798" lon="4.85135">
        <ele>369</ele>
        <time>2012-08-17T09:22:26.000Z</time>
      </trkpt>
      <trkpt lat="46.61805" lon="4.85138">
        <ele>368</ele>
        <time>2012-08-17T09:22:29.000Z</time>
      </trkpt>
      <trkpt lat="46.6181" lon="4.85141">
        <ele>367</ele>
        <time>2012-08-17T09:22:32.000Z</time>
      </trkpt>
      <trkpt lat="46.61818" lon="4.85144">
        <ele>367</ele>
        <time>2012-08-17T09:22:35.000Z</time>
      </trkpt>
      <trkpt lat="46.61823" lon="4.85144">
        <ele>366</ele>
        <time>2012-08-17T09:22:37.000Z</time>
      </trkpt>
      <trkpt lat="46.61829" lon="4.85141">
        <ele>366</ele>
        <time>2012-08-17T09:22:40.000Z</time>
      </trkpt>
      <trkpt lat="46.61838" lon="4.85141">
        <ele>365</ele>
        <time>2012-08-17T09:22:43.000Z</time>
      </trkpt>
      <trkpt lat="46.61846" lon="4.85145">
        <ele>365</ele>
        <time>2012-08-17T09:22:46.000Z</time>
      </trkpt>
      <trkpt lat="46.6185" lon="4.85148">
        <ele>364</ele>
        <time>2012-08-17T09:22:48.000Z</time>
      </trkpt>
      <trkpt lat="46.61864" lon="4.85158">
        <ele>363</ele>
        <time>2012-08-17T09:22:56.000Z</time>
      </trkpt>
      <trkpt lat="46.61871" lon="4.85165">
        <ele>363</ele>
        <time>2012-08-17T09:22:59.000Z</time>
      </trkpt>
      <trkpt lat="46.61879" lon="4.85177">
        <ele>362</ele>
        <time>2012-08-17T09:23:04.000Z</time>
      </trkpt>
      <trkpt lat="46.61886" lon="4.85186">
        <ele>361</ele>
        <time>2012-08-17T09:23:09.000Z</time>
      </trkpt>
      <trkpt lat="46.61891" lon="4.8519">
        <ele>360</ele>
        <time>2012-08-17T09:23:11.000Z</time>
      </trkpt>
      <trkpt lat="46.61903" lon="4.85198">
        <ele>359</ele>
        <time>2012-08-17T09:23:14.000Z</time>
      </trkpt>
      <trkpt lat="46.61917" lon="4.85206">
        <ele>358</ele>
        <time>2012-08-17T09:23:17.000Z</time>
      </trkpt>
      <trkpt lat="46.61929" lon="4.85206">
        <ele>357</ele>
        <time>2012-08-17T09:23:20.000Z</time>
      </trkpt>
      <trkpt lat="46.6194" lon="4.85206">
        <ele>356</ele>
        <time>2012-08-17T09:23:23.000Z</time>
      </trkpt>
      <trkpt lat="46.61945" lon="4.85207">
        <ele>355</ele>
        <time>2012-08-17T09:23:25.000Z</time>
      </trkpt>
      <trkpt lat="46.61952" lon="4.85208">
        <ele>354</ele>
        <time>2012-08-17T09:23:28.000Z</time>
      </trkpt>
      <trkpt lat="46.61959" lon="4.85209">
        <ele>354</ele>
        <time>2012-08-17T09:23:31.000Z</time>
      </trkpt>
      <trkpt lat="46.61971" lon="4.8521">
        <ele>353</ele>
        <time>2012-08-17T09:23:36.000Z</time>
      </trkpt>
      <trkpt lat="46.61976" lon="4.85212">
        <ele>353</ele>
        <time>2012-08-17T09:23:39.000Z</time>
      </trkpt>
      <trkpt lat="46.61982" lon="4.85214">
        <ele>353</ele>
        <time>2012-08-17T09:23:42.000Z</time>
      </trkpt>
      <trkpt lat="46.61988" lon="4.85214">
        <ele>352</ele>
        <time>2012-08-17T09:23:45.000Z</time>
      </trkpt>
      <trkpt lat="46.61994" lon="4.85212">
        <ele>352</ele>
        <time>2012-08-17T09:23:48.000Z</time>
      </trkpt>
      <trkpt lat="46.62002" lon="4.85211">
        <ele>352</ele>
        <time>2012-08-17T09:23:51.000Z</time>
      </trkpt>
      <trkpt lat="46.62012" lon="4.85207">
        <ele>352</ele>
        <time>2012-08-17T09:23:54.000Z</time>
      </trkpt>
      <trkpt lat="46.6202" lon="4.85205">
        <ele>352</ele>
        <time>2012-08-17T09:23:57.000Z</time>
      </trkpt>
      <trkpt lat="46.62025" lon="4.85205">
        <ele>352</ele>
        <time>2012-08-17T09:23:59.000Z</time>
      </trkpt>
      <trkpt lat="46.62055" lon="4.85206">
        <ele>351</ele>
        <time>2012-08-17T09:24:10.000Z</time>
      </trkpt>
      <trkpt lat="46.62067" lon="4.85206">
        <ele>350</ele>
        <time>2012-08-17T09:24:15.000Z</time>
      </trkpt>
      <trkpt lat="46.62072" lon="4.85204">
        <ele>350</ele>
        <time>2012-08-17T09:24:18.000Z</time>
      </trkpt>
      <trkpt lat="46.62073" lon="4.85198">
        <ele>350</ele>
        <time>2012-08-17T09:24:21.000Z</time>
      </trkpt>
      <trkpt lat="46.62078" lon="4.85195">
        <ele>350</ele>
        <time>2012-08-17T09:24:24.000Z</time>
      </trkpt>
      <trkpt lat="46.62088" lon="4.85191">
        <ele>350</ele>
        <time>2012-08-17T09:24:27.000Z</time>
      </trkpt>
      <trkpt lat="46.62099" lon="4.85194">
        <ele>350</ele>
        <time>2012-08-17T09:24:30.000Z</time>
      </trkpt>
      <trkpt lat="46.62107" lon="4.85198">
        <ele>350</ele>
        <time>2012-08-17T09:24:32.000Z</time>
      </trkpt>
      <trkpt lat="46.62125" lon="4.85207">
        <ele>349</ele>
        <time>2012-08-17T09:24:38.000Z</time>
      </trkpt>
      <trkpt lat="46.62132" lon="4.85211">
        <ele>348</ele>
        <time>2012-08-17T09:24:40.000Z</time>
      </trkpt>
      <trkpt lat="46.62141" lon="4.85214">
        <ele>347</ele>
        <time>2012-08-17T09:24:43.000Z</time>
      </trkpt>
      <trkpt lat="46.62146" lon="4.85213">
        <ele>347</ele>
        <time>2012-08-17T09:24:45.000Z</time>
      </trkpt>
      <trkpt lat="46.62152" lon="4.85214">
        <ele>346</ele>
        <time>2012-08-17T09:24:48.000Z</time>
      </trkpt>
      <trkpt lat="46.62158" lon="4.85212">
        <ele>346</ele>
        <time>2012-08-17T09:24:51.000Z</time>
      </trkpt>
      <trkpt lat="46.62163" lon="4.85212">
        <ele>346</ele>
        <time>2012-08-17T09:24:53.000Z</time>
      </trkpt>
      <trkpt lat="46.62171" lon="4.85215">
        <ele>345</ele>
        <time>2012-08-17T09:24:56.000Z</time>
      </trkpt>
      <trkpt lat="46.6218" lon="4.85221">
        <ele>345</ele>
        <time>2012-08-17T09:24:59.000Z</time>
      </trkpt>
      <trkpt lat="46.62191" lon="4.85232">
        <ele>345</ele>
        <time>2012-08-17T09:25:02.000Z</time>
      </trkpt>
      <trkpt lat="46.62196" lon="4.85236">
        <ele>344</ele>
        <time>2012-08-17T09:25:04.000Z</time>
      </trkpt>
      <trkpt lat="46.62204" lon="4.85238">
        <ele>343</ele>
        <time>2012-08-17T09:25:07.000Z</time>
      </trkpt>
      <trkpt lat="46.62209" lon="4.85238">
        <ele>343</ele>
        <time>2012-08-17T09:25:09.000Z</time>
      </trkpt>
      <trkpt lat="46.62236" lon="4.85237">
        <ele>342</ele>
        <time>2012-08-17T09:25:17.000Z</time>
      </trkpt>
      <trkpt lat="46.62253" lon="4.85238">
        <ele>342</ele>
        <time>2012-08-17T09:25:22.000Z</time>
      </trkpt>
      <trkpt lat="46.62263" lon="4.85242">
        <ele>342</ele>
        <time>2012-08-17T09:25:25.000Z</time>
      </trkpt>
      <trkpt lat="46.62285" lon="4.85255">
        <ele>342</ele>
        <time>2012-08-17T09:25:32.000Z</time>
      </trkpt>
      <trkpt lat="46.62291" lon="4.8526">
        <ele>342</ele>
        <time>2012-08-17T09:25:34.000Z</time>
      </trkpt>
      <trkpt lat="46.62299" lon="4.85267">
        <ele>341</ele>
        <time>2012-08-17T09:25:37.000Z</time>
      </trkpt>
      <trkpt lat="46.62304" lon="4.8527">
        <ele>341</ele>
        <time>2012-08-17T09:25:39.000Z</time>
      </trkpt>
      <trkpt lat="46.62311" lon="4.85274">
        <ele>340</ele>
        <time>2012-08-17T09:25:42.000Z</time>
      </trkpt>
      <trkpt lat="46.62323" lon="4.85279">
        <ele>339</ele>
        <time>2012-08-17T09:25:47.000Z</time>
      </trkpt>
      <trkpt lat="46.62328" lon="4.8528">
        <ele>339</ele>
        <time>2012-08-17T09:25:49.000Z</time>
      </trkpt>
      <trkpt lat="46.62336" lon="4.85278">
        <ele>339</ele>
        <time>2012-08-17T09:25:52.000Z</time>
      </trkpt>
      <trkpt lat="46.62349" lon="4.85278">
        <ele>339</ele>
        <time>2012-08-17T09:26:01.000Z</time>
      </trkpt>
      <trkpt lat="46.62355" lon="4.85282">
        <ele>339</ele>
        <time>2012-08-17T09:26:04.000Z</time>
      </trkpt>
      <trkpt lat="46.62365" lon="4.85292">
        <ele>338</ele>
        <time>2012-08-17T09:26:09.000Z</time>
      </trkpt>
      <trkpt lat="46.62368" lon="4.85297">
        <ele>338</ele>
        <time>2012-08-17T09:26:12.000Z</time>
      </trkpt>
      <trkpt lat="46.62372" lon="4.85302">
        <ele>338</ele>
        <time>2012-08-17T09:26:15.000Z</time>
      </trkpt>
      <trkpt lat="46.62374" lon="4.85306">
        <ele>337</ele>
        <time>2012-08-17T09:26:17.000Z</time>
      </trkpt>
      <trkpt lat="46.62379" lon="4.85319">
        <ele>336</ele>
        <time>2012-08-17T09:26:22.000Z</time>
      </trkpt>
      <trkpt lat="46.62383" lon="4.85326">
        <ele>336</ele>
        <time>2012-08-17T09:26:25.000Z</time>
      </trkpt>
      <trkpt lat="46.62392" lon="4.85337">
        <ele>336</ele>
        <time>2012-08-17T09:26:33.000Z</time>
      </trkpt>
      <trkpt lat="46.62395" lon="4.8534">
        <ele>335</ele>
        <time>2012-08-17T09:26:36.000Z</time>
      </trkpt>
      <trkpt lat="46.62397" lon="4.85342">
        <ele>335</ele>
        <time>2012-08-17T09:26:38.000Z</time>
      </trkpt>
      <trkpt lat="46.624" lon="4.85344">
        <ele>335</ele>
        <time>2012-08-17T09:26:41.000Z</time>
      </trkpt>
      <trkpt lat="46.62402" lon="4.85346">
        <ele>334</ele>
        <time>2012-08-17T09:26:43.000Z</time>
      </trkpt>
      <trkpt lat="46.62405" lon="4.8535">
        <ele>334</ele>
        <time>2012-08-17T09:26:46.000Z</time>
      </trkpt>
      <trkpt lat="46.6241" lon="4.85357">
        <ele>333</ele>
        <time>2012-08-17T09:26:51.000Z</time>
      </trkpt>
      <trkpt lat="46.62412" lon="4.85359">
        <ele>333</ele>
        <time>2012-08-17T09:26:53.000Z</time>
      </trkpt>
      <trkpt lat="46.62416" lon="4.85363">
        <ele>332</ele>
        <time>2012-08-17T09:26:56.000Z</time>
      </trkpt>
      <trkpt lat="46.62424" lon="4.85368">
        <ele>331</ele>
        <time>2012-08-17T09:27:00.000Z</time>
      </trkpt>
      <trkpt lat="46.62437" lon="4.85374">
        <ele>330</ele>
        <time>2012-08-17T09:27:06.000Z</time>
      </trkpt>
      <trkpt lat="46.62443" lon="4.85378">
        <ele>329</ele>
        <time>2012-08-17T09:27:09.000Z</time>
      </trkpt>
      <trkpt lat="46.62446" lon="4.8538">
        <ele>329</ele>
        <time>2012-08-17T09:27:11.000Z</time>
      </trkpt>
      <trkpt lat="46.62452" lon="4.8538">
        <ele>328</ele>
        <time>2012-08-17T09:27:14.000Z</time>
      </trkpt>
      <trkpt lat="46.62456" lon="4.85381">
        <ele>327</ele>
        <time>2012-08-17T09:27:16.000Z</time>
      </trkpt>
      <trkpt lat="46.62459" lon="4.85383">
        <ele>327</ele>
        <time>2012-08-17T09:27:18.000Z</time>
      </trkpt>
      <trkpt lat="46.62469" lon="4.85389">
        <ele>326</ele>
        <time>2012-08-17T09:27:24.000Z</time>
      </trkpt>
      <trkpt lat="46.6248" lon="4.85395">
        <ele>325</ele>
        <time>2012-08-17T09:27:29.000Z</time>
      </trkpt>
      <trkpt lat="46.62484" lon="4.85399">
        <ele>325</ele>
        <time>2012-08-17T09:27:31.000Z</time>
      </trkpt>
      <trkpt lat="46.62493" lon="4.85403">
        <ele>324</ele>
        <time>2012-08-17T09:27:34.000Z</time>
      </trkpt>
      <trkpt lat="46.62512" lon="4.85413">
        <ele>323</ele>
        <time>2012-08-17T09:27:39.000Z</time>
      </trkpt>
      <trkpt lat="46.62525" lon="4.85421">
        <ele>322</ele>
        <time>2012-08-17T09:27:42.000Z</time>
      </trkpt>
      <trkpt lat="46.62538" lon="4.85432">
        <ele>320</ele>
        <time>2012-08-17T09:27:45.000Z</time>
      </trkpt>
      <trkpt lat="46.62546" lon="4.85439">
        <ele>318</ele>
        <time>2012-08-17T09:27:47.000Z</time>
      </trkpt>
      <trkpt lat="46.62558" lon="4.85449">
        <ele>316</ele>
        <time>2012-08-17T09:27:50.000Z</time>
      </trkpt>
      <trkpt lat="46.62569" lon="4.85459">
        <ele>314</ele>
        <time>2012-08-17T09:27:53.000Z</time>
      </trkpt>
      <trkpt lat="46.62585" lon="4.85477">
        <ele>311</ele>
        <time>2012-08-17T09:27:56.000Z</time>
      </trkpt>
      <trkpt lat="46.62602" lon="4.85495">
        <ele>308</ele>
        <time>2012-08-17T09:27:59.000Z</time>
      </trkpt>
      <trkpt lat="46.62611" lon="4.85504">
        <ele>305</ele>
        <time>2012-08-17T09:28:01.000Z</time>
      </trkpt>
      <trkpt lat="46.62622" lon="4.85512">
        <ele>302</ele>
        <time>2012-08-17T09:28:03.000Z</time>
      </trkpt>
      <trkpt lat="46.62638" lon="4.85525">
        <ele>299</ele>
        <time>2012-08-17T09:28:06.000Z</time>
      </trkpt>
      <trkpt lat="46.62651" lon="4.85535">
        <ele>296</ele>
        <time>2012-08-17T09:28:08.000Z</time>
      </trkpt>
      <trkpt lat="46.62665" lon="4.85543">
        <ele>294</ele>
        <time>2012-08-17T09:28:11.000Z</time>
      </trkpt>
      <trkpt lat="46.62674" lon="4.85551">
        <ele>292</ele>
        <time>2012-08-17T09:28:13.000Z</time>
      </trkpt>
      <trkpt lat="46.62689" lon="4.85562">
        <ele>290</ele>
        <time>2012-08-17T09:28:16.000Z</time>
      </trkpt>
      <trkpt lat="46.62708" lon="4.85575">
        <ele>288</ele>
        <time>2012-08-17T09:28:19.000Z</time>
      </trkpt>
      <trkpt lat="46.62727" lon="4.8559">
        <ele>285</ele>
        <time>2012-08-17T09:28:22.000Z</time>
      </trkpt>
      <trkpt lat="46.62739" lon="4.85597">
        <ele>283</ele>
        <time>2012-08-17T09:28:24.000Z</time>
      </trkpt>
      <trkpt lat="46.62756" lon="4.85609">
        <ele>281</ele>
        <time>2012-08-17T09:28:27.000Z</time>
      </trkpt>
      <trkpt lat="46.62767" lon="4.85618">
        <ele>279</ele>
        <time>2012-08-17T09:28:29.000Z</time>
      </trkpt>
      <trkpt lat="46.62784" lon="4.85627">
        <ele>277</ele>
        <time>2012-08-17T09:28:32.000Z</time>
      </trkpt>
      <trkpt lat="46.62801" lon="4.85642">
        <ele>276</ele>
        <time>2012-08-17T09:28:35.000Z</time>
      </trkpt>
      <trkpt lat="46.62812" lon="4.85652">
        <ele>275</ele>
        <time>2012-08-17T09:28:38.000Z</time>
      </trkpt>
      <trkpt lat="46.62829" lon="4.85663">
        <ele>275</ele>
        <time>2012-08-17T09:28:41.000Z</time>
      </trkpt>
      <trkpt lat="46.62841" lon="4.85666">
        <ele>274</ele>
        <time>2012-08-17T09:28:43.000Z</time>
      </trkpt>
      <trkpt lat="46.6286" lon="4.85673">
        <ele>274</ele>
        <time>2012-08-17T09:28:46.000Z</time>
      </trkpt>
      <trkpt lat="46.62879" lon="4.85683">
        <ele>273</ele>
        <time>2012-08-17T09:28:49.000Z</time>
      </trkpt>
      <trkpt lat="46.62895" lon="4.85694">
        <ele>271</ele>
        <time>2012-08-17T09:28:52.000Z</time>
      </trkpt>
      <trkpt lat="46.62908" lon="4.85699">
        <ele>270</ele>
        <time>2012-08-17T09:28:55.000Z</time>
      </trkpt>
      <trkpt lat="46.62917" lon="4.85702">
        <ele>268</ele>
        <time>2012-08-17T09:28:57.000Z</time>
      </trkpt>
      <trkpt lat="46.62932" lon="4.85711">
        <ele>267</ele>
        <time>2012-08-17T09:29:00.000Z</time>
      </trkpt>
      <trkpt lat="46.62939" lon="4.85714">
        <ele>266</ele>
        <time>2012-08-17T09:29:02.000Z</time>
      </trkpt>
      <trkpt lat="46.62955" lon="4.85726">
        <ele>265</ele>
        <time>2012-08-17T09:29:05.000Z</time>
      </trkpt>
      <trkpt lat="46.62972" lon="4.85735">
        <ele>264</ele>
        <time>2012-08-17T09:29:08.000Z</time>
      </trkpt>
      <trkpt lat="46.62982" lon="4.85741">
        <ele>262</ele>
        <time>2012-08-17T09:29:10.000Z</time>
      </trkpt>
      <trkpt lat="46.62998" lon="4.85752">
        <ele>261</ele>
        <time>2012-08-17T09:29:13.000Z</time>
      </trkpt>
      <trkpt lat="46.63012" lon="4.85758">
        <ele>260</ele>
        <time>2012-08-17T09:29:16.000Z</time>
      </trkpt>
      <trkpt lat="46.63023" lon="4.85761">
        <ele>259</ele>
        <time>2012-08-17T09:29:18.000Z</time>
      </trkpt>
      <trkpt lat="46.63036" lon="4.85765">
        <ele>258</ele>
        <time>2012-08-17T09:29:21.000Z</time>
      </trkpt>
      <trkpt lat="46.63046" lon="4.85773">
        <ele>257</ele>
        <time>2012-08-17T09:29:23.000Z</time>
      </trkpt>
      <trkpt lat="46.6306" lon="4.85778">
        <ele>256</ele>
        <time>2012-08-17T09:29:26.000Z</time>
      </trkpt>
      <trkpt lat="46.6307" lon="4.85785">
        <ele>256</ele>
        <time>2012-08-17T09:29:28.000Z</time>
      </trkpt>
      <trkpt lat="46.63078" lon="4.8579">
        <ele>255</ele>
        <time>2012-08-17T09:29:30.000Z</time>
      </trkpt>
      <trkpt lat="46.631" lon="4.85807">
        <ele>254</ele>
        <time>2012-08-17T09:29:35.000Z</time>
      </trkpt>
      <trkpt lat="46.6312" lon="4.85829">
        <ele>253</ele>
        <time>2012-08-17T09:29:38.000Z</time>
      </trkpt>
      <trkpt lat="46.63136" lon="4.85845">
        <ele>252</ele>
        <time>2012-08-17T09:29:41.000Z</time>
      </trkpt>
      <trkpt lat="46.63151" lon="4.85857">
        <ele>251</ele>
        <time>2012-08-17T09:29:44.000Z</time>
      </trkpt>
      <trkpt lat="46.63161" lon="4.85865">
        <ele>250</ele>
        <time>2012-08-17T09:29:46.000Z</time>
      </trkpt>
      <trkpt lat="46.63173" lon="4.85873">
        <ele>248</ele>
        <time>2012-08-17T09:29:49.000Z</time>
      </trkpt>
      <trkpt lat="46.63191" lon="4.8589">
        <ele>247</ele>
        <time>2012-08-17T09:29:52.000Z</time>
      </trkpt>
      <trkpt lat="46.63209" lon="4.85907">
        <ele>246</ele>
        <time>2012-08-17T09:29:55.000Z</time>
      </trkpt>
      <trkpt lat="46.63218" lon="4.85916">
        <ele>245</ele>
        <time>2012-08-17T09:29:57.000Z</time>
      </trkpt>
      <trkpt lat="46.63227" lon="4.85924">
        <ele>243</ele>
        <time>2012-08-17T09:29:59.000Z</time>
      </trkpt>
      <trkpt lat="46.63234" lon="4.85933">
        <ele>242</ele>
        <time>2012-08-17T09:30:02.000Z</time>
      </trkpt>
      <trkpt lat="46.63239" lon="4.85946">
        <ele>241</ele>
        <time>2012-08-17T09:30:05.000Z</time>
      </trkpt>
      <trkpt lat="46.63242" lon="4.85953">
        <ele>241</ele>
        <time>2012-08-17T09:30:08.000Z</time>
      </trkpt>
      <trkpt lat="46.63245" lon="4.85959">
        <ele>240</ele>
        <time>2012-08-17T09:30:11.000Z</time>
      </trkpt>
      <trkpt lat="46.63245" lon="4.85963">
        <ele>240</ele>
        <time>2012-08-17T09:30:13.000Z</time>
      </trkpt>
      <trkpt lat="46.63246" lon="4.85965">
        <ele>239</ele>
        <time>2012-08-17T09:30:16.000Z</time>
      </trkpt>
      <trkpt lat="46.63247" lon="4.85963">
        <ele>239</ele>
        <time>2012-08-17T09:30:18.000Z</time>
      </trkpt>
      <trkpt lat="46.6326" lon="4.85953">
        <ele>239</ele>
        <time>2012-08-17T09:30:23.000Z</time>
      </trkpt>
      <trkpt lat="46.63276" lon="4.85934">
        <ele>238</ele>
        <time>2012-08-17T09:30:26.000Z</time>
      </trkpt>
      <trkpt lat="46.63284" lon="4.85919">
        <ele>238</ele>
        <time>2012-08-17T09:30:28.000Z</time>
      </trkpt>
      <trkpt lat="46.63282" lon="4.859">
        <ele>238</ele>
        <time>2012-08-17T09:30:31.000Z</time>
      </trkpt>
      <trkpt lat="46.63281" lon="4.85884">
        <ele>237</ele>
        <time>2012-08-17T09:30:33.000Z</time>
      </trkpt>
      <trkpt lat="46.63283" lon="4.85857">
        <ele>236</ele>
        <time>2012-08-17T09:30:36.000Z</time>
      </trkpt>
      <trkpt lat="46.63286" lon="4.8584">
        <ele>236</ele>
        <time>2012-08-17T09:30:38.000Z</time>
      </trkpt>
      <trkpt lat="46.63303" lon="4.85829">
        <ele>235</ele>
        <time>2012-08-17T09:30:41.000Z</time>
      </trkpt>
      <trkpt lat="46.63314" lon="4.85834">
        <ele>234</ele>
        <time>2012-08-17T09:30:43.000Z</time>
      </trkpt>
      <trkpt lat="46.63326" lon="4.85846">
        <ele>233</ele>
        <time>2012-08-17T09:30:45.000Z</time>
      </trkpt>
      <trkpt lat="46.63335" lon="4.85859">
        <ele>232</ele>
        <time>2012-08-17T09:30:48.000Z</time>
      </trkpt>
      <trkpt lat="46.63344" lon="4.8588">
        <ele>231</ele>
        <time>2012-08-17T09:30:51.000Z</time>
      </trkpt>
      <trkpt lat="46.63348" lon="4.85893">
        <ele>230</ele>
        <time>2012-08-17T09:30:53.000Z</time>
      </trkpt>
      <trkpt lat="46.63373" lon="4.8597">
        <ele>230</ele>
        <time>2012-08-17T09:31:05.000Z</time>
      </trkpt>
      <trkpt lat="46.63392" lon="4.86027">
        <ele>229</ele>
        <time>2012-08-17T09:31:13.000Z</time>
      </trkpt>
      <trkpt lat="46.63394" lon="4.86051">
        <ele>229</ele>
        <time>2012-08-17T09:31:16.000Z</time>
      </trkpt>
      <trkpt lat="46.63399" lon="4.86075">
        <ele>228</ele>
        <time>2012-08-17T09:31:19.000Z</time>
      </trkpt>
      <trkpt lat="46.63403" lon="4.86087">
        <ele>227</ele>
        <time>2012-08-17T09:31:21.000Z</time>
      </trkpt>
      <trkpt lat="46.63411" lon="4.86105">
        <ele>227</ele>
        <time>2012-08-17T09:31:24.000Z</time>
      </trkpt>
      <trkpt lat="46.63417" lon="4.86114">
        <ele>226</ele>
        <time>2012-08-17T09:31:26.000Z</time>
      </trkpt>
      <trkpt lat="46.63425" lon="4.8613">
        <ele>225</ele>
        <time>2012-08-17T09:31:29.000Z</time>
      </trkpt>
      <trkpt lat="46.6344" lon="4.86147">
        <ele>224</ele>
        <time>2012-08-17T09:31:35.000Z</time>
      </trkpt>
      <trkpt lat="46.63449" lon="4.8614">
        <ele>224</ele>
        <time>2012-08-17T09:31:37.000Z</time>
      </trkpt>
      <trkpt lat="46.63472" lon="4.86117">
        <ele>223</ele>
        <time>2012-08-17T09:31:42.000Z</time>
      </trkpt>
      <trkpt lat="46.63487" lon="4.86094">
        <ele>223</ele>
        <time>2012-08-17T09:31:47.000Z</time>
      </trkpt>
      <trkpt lat="46.63494" lon="4.86079">
        <ele>223</ele>
        <time>2012-08-17T09:31:50.000Z</time>
      </trkpt>
      <trkpt lat="46.63501" lon="4.86078">
        <ele>223</ele>
        <time>2012-08-17T09:31:53.000Z</time>
      </trkpt>
      <trkpt lat="46.63527" lon="4.8607">
        <ele>223</ele>
        <time>2012-08-17T09:31:59.000Z</time>
      </trkpt>
      <trkpt lat="46.63536" lon="4.86065">
        <ele>224</ele>
        <time>2012-08-17T09:32:01.000Z</time>
      </trkpt>
      <trkpt lat="46.63544" lon="4.86063">
        <ele>224</ele>
        <time>2012-08-17T09:32:03.000Z</time>
      </trkpt>
      <trkpt lat="46.63556" lon="4.86066">
        <ele>224</ele>
        <time>2012-08-17T09:32:06.000Z</time>
      </trkpt>
      <trkpt lat="46.63563" lon="4.86072">
        <ele>224</ele>
        <time>2012-08-17T09:32:08.000Z</time>
      </trkpt>
      <trkpt lat="46.63577" lon="4.86079">
        <ele>224</ele>
        <time>2012-08-17T09:32:13.000Z</time>
      </trkpt>
      <trkpt lat="46.6358" lon="4.86073">
        <ele>224</ele>
        <time>2012-08-17T09:32:16.000Z</time>
      </trkpt>
      <trkpt lat="46.63581" lon="4.86069">
        <ele>224</ele>
        <time>2012-08-17T09:32:18.000Z</time>
      </trkpt>
      <trkpt lat="46.63583" lon="4.86061">
        <ele>225</ele>
        <time>2012-08-17T09:32:24.000Z</time>
      </trkpt>
      <trkpt lat="46.63585" lon="4.86055">
        <ele>225</ele>
        <time>2012-08-17T09:32:29.000Z</time>
      </trkpt>
      <trkpt lat="46.63587" lon="4.86054">
        <ele>225</ele>
        <time>2012-08-17T09:32:31.000Z</time>
      </trkpt>
      <trkpt lat="46.6359" lon="4.86055">
        <ele>225</ele>
        <time>2012-08-17T09:32:34.000Z</time>
      </trkpt>
      <trkpt lat="46.63592" lon="4.86055">
        <ele>225</ele>
        <time>2012-08-17T09:32:36.000Z</time>
      </trkpt>
      <trkpt lat="46.63594" lon="4.86058">
        <ele>226</ele>
        <time>2012-08-17T09:32:39.000Z</time>
      </trkpt>
      <trkpt lat="46.63594" lon="4.8606">
        <ele>226</ele>
        <time>2012-08-17T09:32:41.000Z</time>
      </trkpt>
      <trkpt lat="46.63591" lon="4.86063">
        <ele>226</ele>
        <time>2012-08-17T09:32:44.000Z</time>
      </trkpt>
      <trkpt lat="46.6359" lon="4.86064">
        <ele>225</ele>
        <time>2012-08-17T09:32:46.000Z</time>
      </trkpt>
      <trkpt lat="46.63588" lon="4.86066">
        <ele>225</ele>
        <time>2012-08-17T09:32:49.000Z</time>
      </trkpt>
      <trkpt lat="46.63589" lon="4.86065">
        <ele>225</ele>
        <time>2012-08-17T09:32:57.000Z</time>
      </trkpt>
      <trkpt lat="46.6359" lon="4.86064">
        <ele>225</ele>
        <time>2012-08-17T09:33:00.000Z</time>
      </trkpt>
      <trkpt lat="46.63594" lon="4.86063">
        <ele>225</ele>
        <time>2012-08-17T09:33:03.000Z</time>
      </trkpt>
      <trkpt lat="46.63598" lon="4.86063">
        <ele>225</ele>
        <time>2012-08-17T09:33:06.000Z</time>
      </trkpt>
      <trkpt lat="46.636" lon="4.86064">
        <ele>225</ele>
        <time>2012-08-17T09:33:08.000Z</time>
      </trkpt>
      <trkpt lat="46.63601" lon="4.86065">
        <ele>225</ele>
        <time>2012-08-17T09:33:11.000Z</time>
      </trkpt>
      <trkpt lat="46.63599" lon="4.86065">
        <ele>226</ele>
        <time>2012-08-17T09:33:15.000Z</time>
      </trkpt>
      <trkpt lat="46.63599" lon="4.86063">
        <ele>226</ele>
        <time>2012-08-17T09:33:17.000Z</time>
      </trkpt>
      <trkpt lat="46.63604" lon="4.86065">
        <ele>226</ele>
        <time>2012-08-17T09:33:20.000Z</time>
      </trkpt>
      <trkpt lat="46.63607" lon="4.86069">
        <ele>226</ele>
        <time>2012-08-17T09:33:23.000Z</time>
      </trkpt>
      <trkpt lat="46.63612" lon="4.86073">
        <ele>226</ele>
        <time>2012-08-17T09:33:26.000Z</time>
      </trkpt>
      <trkpt lat="46.63607" lon="4.86075">
        <ele>226</ele>
        <time>2012-08-17T09:33:40.000Z</time>
      </trkpt>
      <trkpt lat="46.63603" lon="4.86073">
        <ele>226</ele>
        <time>2012-08-17T09:33:43.000Z</time>
      </trkpt>
      <trkpt lat="46.63599" lon="4.86073">
        <ele>225</ele>
        <time>2012-08-17T09:33:46.000Z</time>
      </trkpt>
      <trkpt lat="46.63594" lon="4.86075">
        <ele>225</ele>
        <time>2012-08-17T09:33:59.000Z</time>
      </trkpt>
      <trkpt lat="46.63596" lon="4.86075">
        <ele>225</ele>
        <time>2012-08-17T09:34:02.000Z</time>
      </trkpt>
      <trkpt lat="46.63597" lon="4.86072">
        <ele>225</ele>
        <time>2012-08-17T09:34:05.000Z</time>
      </trkpt>
      <trkpt lat="46.63597" lon="4.86064">
        <ele>225</ele>
        <time>2012-08-17T09:34:16.000Z</time>
      </trkpt>
      <trkpt lat="46.63596" lon="4.86063">
        <ele>225</ele>
        <time>2012-08-17T09:34:19.000Z</time>
      </trkpt>
      <trkpt lat="46.63594" lon="4.86063">
        <ele>225</ele>
        <time>2012-08-17T09:34:21.000Z</time>
      </trkpt>
      <trkpt lat="46.63593" lon="4.86064">
        <ele>225</ele>
        <time>2012-08-17T09:34:24.000Z</time>
      </trkpt>
      <trkpt lat="46.63593" lon="4.86057">
        <ele>225</ele>
        <time>2012-08-17T09:34:43.000Z</time>
      </trkpt>
      <trkpt lat="46.63593" lon="4.86055">
        <ele>226</ele>
        <time>2012-08-17T09:34:51.000Z</time>
      </trkpt>
      <trkpt lat="46.63594" lon="4.86056">
        <ele>226</ele>
        <time>2012-08-17T09:34:54.000Z</time>
      </trkpt>
      <trkpt lat="46.63594" lon="4.86057">
        <ele>226</ele>
        <time>2012-08-17T09:34:57.000Z</time>
      </trkpt>
      <trkpt lat="46.63594" lon="4.8606">
        <ele>226</ele>
        <time>2012-08-17T09:35:00.000Z</time>
      </trkpt>
      <trkpt lat="46.63594" lon="4.86061">
        <ele>226</ele>
        <time>2012-08-17T09:35:02.000Z</time>
      </trkpt>
      <trkpt lat="46.63592" lon="4.86063">
        <ele>226</ele>
        <time>2012-08-17T09:35:05.000Z</time>
      </trkpt>
      <trkpt lat="46.6359" lon="4.86063">
        <ele>225</ele>
        <time>2012-08-17T09:35:12.000Z</time>
      </trkpt>
      <trkpt lat="46.63588" lon="4.8606">
        <ele>225</ele>
        <time>2012-08-17T09:35:14.000Z</time>
      </trkpt>
      <trkpt lat="46.63585" lon="4.86056">
        <ele>225</ele>
        <time>2012-08-17T09:35:16.000Z</time>
      </trkpt>
      <trkpt lat="46.63586" lon="4.86052">
        <ele>225</ele>
        <time>2012-08-17T09:35:19.000Z</time>
      </trkpt>
      <trkpt lat="46.63589" lon="4.86053">
        <ele>225</ele>
        <time>2012-08-17T09:35:21.000Z</time>
      </trkpt>
      <trkpt lat="46.63593" lon="4.86056">
        <ele>226</ele>
        <time>2012-08-17T09:35:24.000Z</time>
      </trkpt>
      <trkpt lat="46.63596" lon="4.86058">
        <ele>226</ele>
        <time>2012-08-17T09:35:26.000Z</time>
      </trkpt>
      <trkpt lat="46.63616" lon="4.86071">
        <ele>226</ele>
        <time>2012-08-17T09:35:34.000Z</time>
      </trkpt>
      <trkpt lat="46.63623" lon="4.86073">
        <ele>226</ele>
        <time>2012-08-17T09:35:37.000Z</time>
      </trkpt>
      <trkpt lat="46.63647" lon="4.86082">
        <ele>227</ele>
        <time>2012-08-17T09:35:45.000Z</time>
      </trkpt>
      <trkpt lat="46.63682" lon="4.86091">
        <ele>228</ele>
        <time>2012-08-17T09:35:58.000Z</time>
      </trkpt>
      <trkpt lat="46.63687" lon="4.86091">
        <ele>228</ele>
        <time>2012-08-17T09:36:00.000Z</time>
      </trkpt>
      <trkpt lat="46.63712" lon="4.86085">
        <ele>228</ele>
        <time>2012-08-17T09:36:10.000Z</time>
      </trkpt>
      <trkpt lat="46.63723" lon="4.86079">
        <ele>228</ele>
        <time>2012-08-17T09:36:13.000Z</time>
      </trkpt>
      <trkpt lat="46.63771" lon="4.86052">
        <ele>228</ele>
        <time>2012-08-17T09:36:26.000Z</time>
      </trkpt>
      <trkpt lat="46.63781" lon="4.86048">
        <ele>228</ele>
        <time>2012-08-17T09:36:29.000Z</time>
      </trkpt>
      <trkpt lat="46.63795" lon="4.86046">
        <ele>227</ele>
        <time>2012-08-17T09:36:32.000Z</time>
      </trkpt>
      <trkpt lat="46.63802" lon="4.86048">
        <ele>227</ele>
        <time>2012-08-17T09:36:34.000Z</time>
      </trkpt>
      <trkpt lat="46.63813" lon="4.86052">
        <ele>226</ele>
        <time>2012-08-17T09:36:37.000Z</time>
      </trkpt>
      <trkpt lat="46.6383" lon="4.86058">
        <ele>225</ele>
        <time>2012-08-17T09:36:40.000Z</time>
      </trkpt>
      <trkpt lat="46.63844" lon="4.86062">
        <ele>224</ele>
        <time>2012-08-17T09:36:43.000Z</time>
      </trkpt>
      <trkpt lat="46.63856" lon="4.86067">
        <ele>223</ele>
        <time>2012-08-17T09:36:46.000Z</time>
      </trkpt>
      <trkpt lat="46.6387" lon="4.86071">
        <ele>222</ele>
        <time>2012-08-17T09:36:49.000Z</time>
      </trkpt>
      <trkpt lat="46.639" lon="4.86077">
        <ele>221</ele>
        <time>2012-08-17T09:36:55.000Z</time>
      </trkpt>
      <trkpt lat="46.63925" lon="4.86086">
        <ele>221</ele>
        <time>2012-08-17T09:37:00.000Z</time>
      </trkpt>
      <trkpt lat="46.63938" lon="4.86093">
        <ele>220</ele>
        <time>2012-08-17T09:37:03.000Z</time>
      </trkpt>
      <trkpt lat="46.63947" lon="4.86099">
        <ele>220</ele>
        <time>2012-08-17T09:37:05.000Z</time>
      </trkpt>
      <trkpt lat="46.63954" lon="4.86104">
        <ele>221</ele>
        <time>2012-08-17T09:37:07.000Z</time>
      </trkpt>
      <trkpt lat="46.63969" lon="4.8611">
        <ele>221</ele>
        <time>2012-08-17T09:37:10.000Z</time>
      </trkpt>
      <trkpt lat="46.64014" lon="4.86121">
        <ele>221</ele>
        <time>2012-08-17T09:37:19.000Z</time>
      </trkpt>
      <trkpt lat="46.6403" lon="4.86125">
        <ele>222</ele>
        <time>2012-08-17T09:37:22.000Z</time>
      </trkpt>
      <trkpt lat="46.64057" lon="4.86127">
        <ele>222</ele>
        <time>2012-08-17T09:37:27.000Z</time>
      </trkpt>
      <trkpt lat="46.64069" lon="4.86131">
        <ele>221</ele>
        <time>2012-08-17T09:37:29.000Z</time>
      </trkpt>
      <trkpt lat="46.6412" lon="4.86138">
        <ele>221</ele>
        <time>2012-08-17T09:37:39.000Z</time>
      </trkpt>
      <trkpt lat="46.64129" lon="4.86138">
        <ele>221</ele>
        <time>2012-08-17T09:37:41.000Z</time>
      </trkpt>
      <trkpt lat="46.64138" lon="4.86138">
        <ele>221</ele>
        <time>2012-08-17T09:37:43.000Z</time>
      </trkpt>
      <trkpt lat="46.64145" lon="4.86136">
        <ele>221</ele>
        <time>2012-08-17T09:37:45.000Z</time>
      </trkpt>
      <trkpt lat="46.64188" lon="4.86131">
        <ele>221</ele>
        <time>2012-08-17T09:37:54.000Z</time>
      </trkpt>
      <trkpt lat="46.64201" lon="4.86134">
        <ele>221</ele>
        <time>2012-08-17T09:37:57.000Z</time>
      </trkpt>
      <trkpt lat="46.64218" lon="4.86138">
        <ele>221</ele>
        <time>2012-08-17T09:38:00.000Z</time>
      </trkpt>
      <trkpt lat="46.64225" lon="4.86143">
        <ele>221</ele>
        <time>2012-08-17T09:38:02.000Z</time>
      </trkpt>
      <trkpt lat="46.6424" lon="4.86145">
        <ele>221</ele>
        <time>2012-08-17T09:38:05.000Z</time>
      </trkpt>
      <trkpt lat="46.64255" lon="4.86144">
        <ele>221</ele>
        <time>2012-08-17T09:38:08.000Z</time>
      </trkpt>
      <trkpt lat="46.64264" lon="4.86144">
        <ele>221</ele>
        <time>2012-08-17T09:38:10.000Z</time>
      </trkpt>
      <trkpt lat="46.64277" lon="4.86147">
        <ele>221</ele>
        <time>2012-08-17T09:38:13.000Z</time>
      </trkpt>
      <trkpt lat="46.64286" lon="4.86149">
        <ele>222</ele>
        <time>2012-08-17T09:38:15.000Z</time>
      </trkpt>
      <trkpt lat="46.64295" lon="4.86153">
        <ele>222</ele>
        <time>2012-08-17T09:38:17.000Z</time>
      </trkpt>
      <trkpt lat="46.64309" lon="4.86154">
        <ele>222</ele>
        <time>2012-08-17T09:38:20.000Z</time>
      </trkpt>
      <trkpt lat="46.64323" lon="4.86157">
        <ele>222</ele>
        <time>2012-08-17T09:38:23.000Z</time>
      </trkpt>
      <trkpt lat="46.64375" lon="4.86167">
        <ele>222</ele>
        <time>2012-08-17T09:38:34.000Z</time>
      </trkpt>
      <trkpt lat="46.64407" lon="4.8617">
        <ele>223</ele>
        <time>2012-08-17T09:38:41.000Z</time>
      </trkpt>
      <trkpt lat="46.64434" lon="4.86176">
        <ele>223</ele>
        <time>2012-08-17T09:38:46.000Z</time>
      </trkpt>
      <trkpt lat="46.64442" lon="4.86177">
        <ele>223</ele>
        <time>2012-08-17T09:38:48.000Z</time>
      </trkpt>
      <trkpt lat="46.64488" lon="4.86197">
        <ele>223</ele>
        <time>2012-08-17T09:38:58.000Z</time>
      </trkpt>
      <trkpt lat="46.64476" lon="4.86237">
        <ele>222</ele>
        <time>2012-08-17T09:39:02.000Z</time>
      </trkpt>
      <trkpt lat="46.64477" lon="4.86249">
        <ele>222</ele>
        <time>2012-08-17T09:39:04.000Z</time>
      </trkpt>
      <trkpt lat="46.64492" lon="4.86268">
        <ele>221</ele>
        <time>2012-08-17T09:39:07.000Z</time>
      </trkpt>
      <trkpt lat="46.64502" lon="4.86272">
        <ele>221</ele>
        <time>2012-08-17T09:39:09.000Z</time>
      </trkpt>
      <trkpt lat="46.64511" lon="4.86276">
        <ele>220</ele>
        <time>2012-08-17T09:39:11.000Z</time>
      </trkpt>
      <trkpt lat="46.64529" lon="4.86279">
        <ele>220</ele>
        <time>2012-08-17T09:39:16.000Z</time>
      </trkpt>
      <trkpt lat="46.6456" lon="4.86282">
        <ele>219</ele>
        <time>2012-08-17T09:39:23.000Z</time>
      </trkpt>
      <trkpt lat="46.64603" lon="4.863">
        <ele>219</ele>
        <time>2012-08-17T09:39:32.000Z</time>
      </trkpt>
      <trkpt lat="46.64609" lon="4.86296">
        <ele>219</ele>
        <time>2012-08-17T09:39:34.000Z</time>
      </trkpt>
      <trkpt lat="46.6461" lon="4.86278">
        <ele>219</ele>
        <time>2012-08-17T09:39:37.000Z</time>
      </trkpt>
      <trkpt lat="46.64616" lon="4.86252">
        <ele>220</ele>
        <time>2012-08-17T09:39:41.000Z</time>
      </trkpt>
      <trkpt lat="46.64623" lon="4.86239">
        <ele>220</ele>
        <time>2012-08-17T09:39:43.000Z</time>
      </trkpt>
      <trkpt lat="46.64629" lon="4.86222">
        <ele>220</ele>
        <time>2012-08-17T09:39:46.000Z</time>
      </trkpt>
      <trkpt lat="46.6466" lon="4.86157">
        <ele>220</ele>
        <time>2012-08-17T09:39:58.000Z</time>
      </trkpt>
      <trkpt lat="46.64668" lon="4.86138">
        <ele>219</ele>
        <time>2012-08-17T09:40:01.000Z</time>
      </trkpt>
      <trkpt lat="46.64674" lon="4.86118">
        <ele>219</ele>
        <time>2012-08-17T09:40:04.000Z</time>
      </trkpt>
      <trkpt lat="46.64688" lon="4.86033">
        <ele>219</ele>
        <time>2012-08-17T09:40:13.000Z</time>
      </trkpt>
      <trkpt lat="46.64698" lon="4.86001">
        <ele>219</ele>
        <time>2012-08-17T09:40:16.000Z</time>
      </trkpt>
      <trkpt lat="46.64698" lon="4.85982">
        <ele>218</ele>
        <time>2012-08-17T09:40:18.000Z</time>
      </trkpt>
      <trkpt lat="46.64703" lon="4.85954">
        <ele>218</ele>
        <time>2012-08-17T09:40:21.000Z</time>
      </trkpt>
      <trkpt lat="46.64706" lon="4.85927">
        <ele>217</ele>
        <time>2012-08-17T09:40:24.000Z</time>
      </trkpt>
      <trkpt lat="46.64705" lon="4.85909">
        <ele>216</ele>
        <time>2012-08-17T09:40:26.000Z</time>
      </trkpt>
      <trkpt lat="46.64705" lon="4.85875">
        <ele>215</ele>
        <time>2012-08-17T09:40:29.000Z</time>
      </trkpt>
      <trkpt lat="46.64705" lon="4.85855">
        <ele>214</ele>
        <time>2012-08-17T09:40:31.000Z</time>
      </trkpt>
      <trkpt lat="46.64701" lon="4.85825">
        <ele>213</ele>
        <time>2012-08-17T09:40:34.000Z</time>
      </trkpt>
      <trkpt lat="46.64703" lon="4.85793">
        <ele>213</ele>
        <time>2012-08-17T09:40:37.000Z</time>
      </trkpt>
      <trkpt lat="46.64704" lon="4.85772">
        <ele>212</ele>
        <time>2012-08-17T09:40:39.000Z</time>
      </trkpt>
      <trkpt lat="46.64702" lon="4.85745">
        <ele>211</ele>
        <time>2012-08-17T09:40:42.000Z</time>
      </trkpt>
      <trkpt lat="46.64695" lon="4.85725">
        <ele>211</ele>
        <time>2012-08-17T09:40:44.000Z</time>
      </trkpt>
      <trkpt lat="46.64693" lon="4.85703">
        <ele>210</ele>
        <time>2012-08-17T09:40:46.000Z</time>
      </trkpt>
      <trkpt lat="46.64684" lon="4.85672">
        <ele>209</ele>
        <time>2012-08-17T09:40:49.000Z</time>
      </trkpt>
      <trkpt lat="46.64669" lon="4.85628">
        <ele>208</ele>
        <time>2012-08-17T09:40:53.000Z</time>
      </trkpt>
      <trkpt lat="46.6465" lon="4.85575">
        <ele>207</ele>
        <time>2012-08-17T09:40:59.000Z</time>
      </trkpt>
      <trkpt lat="46.64641" lon="4.85565">
        <ele>207</ele>
        <time>2012-08-17T09:41:01.000Z</time>
      </trkpt>
      <trkpt lat="46.64633" lon="4.85542">
        <ele>207</ele>
        <time>2012-08-17T09:41:04.000Z</time>
      </trkpt>
      <trkpt lat="46.64631" lon="4.85521">
        <ele>206</ele>
        <time>2012-08-17T09:41:06.000Z</time>
      </trkpt>
      <trkpt lat="46.64622" lon="4.85498">
        <ele>206</ele>
        <time>2012-08-17T09:41:09.000Z</time>
      </trkpt>
      <trkpt lat="46.64619" lon="4.8548">
        <ele>206</ele>
        <time>2012-08-17T09:41:11.000Z</time>
      </trkpt>
      <trkpt lat="46.64613" lon="4.8546">
        <ele>206</ele>
        <time>2012-08-17T09:41:14.000Z</time>
      </trkpt>
      <trkpt lat="46.64595" lon="4.85392">
        <ele>206</ele>
        <time>2012-08-17T09:41:23.000Z</time>
      </trkpt>
      <trkpt lat="46.64593" lon="4.85353">
        <ele>206</ele>
        <time>2012-08-17T09:41:28.000Z</time>
      </trkpt>
      <trkpt lat="46.64593" lon="4.85339">
        <ele>207</ele>
        <time>2012-08-17T09:41:30.000Z</time>
      </trkpt>
      <trkpt lat="46.64595" lon="4.85314">
        <ele>207</ele>
        <time>2012-08-17T09:41:33.000Z</time>
      </trkpt>
      <trkpt lat="46.64602" lon="4.85298">
        <ele>206</ele>
        <time>2012-08-17T09:41:35.000Z</time>
      </trkpt>
      <trkpt lat="46.64611" lon="4.85283">
        <ele>206</ele>
        <time>2012-08-17T09:41:37.000Z</time>
      </trkpt>
      <trkpt lat="46.64627" lon="4.85269">
        <ele>206</ele>
        <time>2012-08-17T09:41:40.000Z</time>
      </trkpt>
      <trkpt lat="46.64638" lon="4.85258">
        <ele>205</ele>
        <time>2012-08-17T09:41:42.000Z</time>
      </trkpt>
      <trkpt lat="46.64651" lon="4.85242">
        <ele>205</ele>
        <time>2012-08-17T09:41:45.000Z</time>
      </trkpt>
      <trkpt lat="46.64658" lon="4.85229">
        <ele>204</ele>
        <time>2012-08-17T09:41:47.000Z</time>
      </trkpt>
      <trkpt lat="46.64667" lon="4.85219">
        <ele>204</ele>
        <time>2012-08-17T09:41:49.000Z</time>
      </trkpt>
      <trkpt lat="46.64676" lon="4.85203">
        <ele>203</ele>
        <time>2012-08-17T09:41:52.000Z</time>
      </trkpt>
      <trkpt lat="46.64677" lon="4.85192">
        <ele>202</ele>
        <time>2012-08-17T09:41:54.000Z</time>
      </trkpt>
      <trkpt lat="46.64677" lon="4.85175">
        <ele>202</ele>
        <time>2012-08-17T09:41:56.000Z</time>
      </trkpt>
      <trkpt lat="46.64676" lon="4.85156">
        <ele>201</ele>
        <time>2012-08-17T09:41:59.000Z</time>
      </trkpt>
      <trkpt lat="46.64674" lon="4.85141">
        <ele>201</ele>
        <time>2012-08-17T09:42:02.000Z</time>
      </trkpt>
      <trkpt lat="46.64672" lon="4.85101">
        <ele>201</ele>
        <time>2012-08-17T09:42:07.000Z</time>
      </trkpt>
      <trkpt lat="46.6467" lon="4.85084">
        <ele>201</ele>
        <time>2012-08-17T09:42:09.000Z</time>
      </trkpt>
      <trkpt lat="46.64664" lon="4.85008">
        <ele>201</ele>
        <time>2012-08-17T09:42:19.000Z</time>
      </trkpt>
      <trkpt lat="46.64662" lon="4.84999">
        <ele>200</ele>
        <time>2012-08-17T09:42:21.000Z</time>
      </trkpt>
      <trkpt lat="46.64655" lon="4.84981">
        <ele>200</ele>
        <time>2012-08-17T09:42:34.000Z</time>
      </trkpt>
      <trkpt lat="46.64649" lon="4.84978">
        <ele>200</ele>
        <time>2012-08-17T09:42:37.000Z</time>
      </trkpt>
      <trkpt lat="46.64645" lon="4.84977">
        <ele>201</ele>
        <time>2012-08-17T09:42:39.000Z</time>
      </trkpt>
      <trkpt lat="46.64643" lon="4.84977">
        <ele>201</ele>
        <time>2012-08-17T09:42:41.000Z</time>
      </trkpt>
      <trkpt lat="46.64642" lon="4.84976">
        <ele>201</ele>
        <time>2012-08-17T09:42:43.000Z</time>
      </trkpt>
      <trkpt lat="46.64641" lon="4.84976">
        <ele>201</ele>
        <time>2012-08-17T09:42:45.000Z</time>
      </trkpt>
      <trkpt lat="46.6464" lon="4.84974">
        <ele>201</ele>
        <time>2012-08-17T09:42:47.000Z</time>
      </trkpt>
      <trkpt lat="46.6464" lon="4.84972">
        <ele>201</ele>
        <time>2012-08-17T09:42:50.000Z</time>
      </trkpt>
      <trkpt lat="46.64642" lon="4.84971">
        <ele>201</ele>
        <time>2012-08-17T09:42:53.000Z</time>
      </trkpt>
      <trkpt lat="46.64644" lon="4.8497">
        <ele>201</ele>
        <time>2012-08-17T09:42:59.000Z</time>
      </trkpt>
      <trkpt lat="46.64643" lon="4.84969">
        <ele>201</ele>
        <time>2012-08-17T09:43:06.000Z</time>
      </trkpt>
      <trkpt lat="46.64645" lon="4.84966">
        <ele>201</ele>
        <time>2012-08-17T09:43:09.000Z</time>
      </trkpt>
      <trkpt lat="46.64646" lon="4.84964">
        <ele>201</ele>
        <time>2012-08-17T09:43:11.000Z</time>
      </trkpt>
      <trkpt lat="46.64647" lon="4.84964">
        <ele>201</ele>
        <time>2012-08-17T09:43:13.000Z</time>
      </trkpt>
      <trkpt lat="46.64647" lon="4.84966">
        <ele>201</ele>
        <time>2012-08-17T09:43:21.000Z</time>
      </trkpt>
      <trkpt lat="46.64646" lon="4.84967">
        <ele>201</ele>
        <time>2012-08-17T09:43:27.000Z</time>
      </trkpt>
      <trkpt lat="46.64645" lon="4.8497">
        <ele>201</ele>
        <time>2012-08-17T09:43:35.000Z</time>
      </trkpt>
      <trkpt lat="46.64644" lon="4.84971">
        <ele>201</ele>
        <time>2012-08-17T09:43:41.000Z</time>
      </trkpt>
      <trkpt lat="46.64642" lon="4.84971">
        <ele>201</ele>
        <time>2012-08-17T09:43:51.000Z</time>
      </trkpt>
      <trkpt lat="46.64641" lon="4.84971">
        <ele>201</ele>
        <time>2012-08-17T09:43:55.000Z</time>
      </trkpt>
      <trkpt lat="46.64643" lon="4.8497">
        <ele>201</ele>
        <time>2012-08-17T09:44:12.000Z</time>
      </trkpt>
      <trkpt lat="46.64644" lon="4.84966">
        <ele>201</ele>
        <time>2012-08-17T09:44:20.000Z</time>
      </trkpt>
      <trkpt lat="46.64642" lon="4.84966">
        <ele>201</ele>
        <time>2012-08-17T09:44:23.000Z</time>
      </trkpt>
      <trkpt lat="46.64643" lon="4.8497">
        <ele>201</ele>
        <time>2012-08-17T09:44:32.000Z</time>
      </trkpt>
      <trkpt lat="46.64643" lon="4.84972">
        <ele>201</ele>
        <time>2012-08-17T09:44:43.000Z</time>
      </trkpt>
      <trkpt lat="46.64641" lon="4.84971">
        <ele>201</ele>
        <time>2012-08-17T09:44:46.000Z</time>
      </trkpt>
      <trkpt lat="46.6464" lon="4.84971">
        <ele>201</ele>
        <time>2012-08-17T09:44:48.000Z</time>
      </trkpt>
      <trkpt lat="46.6464" lon="4.8497">
        <ele>201</ele>
        <time>2012-08-17T09:44:52.000Z</time>
      </trkpt>
      <trkpt lat="46.64643" lon="4.84969">
        <ele>201</ele>
        <time>2012-08-17T09:45:01.000Z</time>
      </trkpt>
      <trkpt lat="46.64643" lon="4.84971">
        <ele>201</ele>
        <time>2012-08-17T09:45:15.000Z</time>
      </trkpt>
      <trkpt lat="46.64642" lon="4.84969">
        <ele>201</ele>
        <time>2012-08-17T09:45:18.000Z</time>
      </trkpt>
      <trkpt lat="46.64646" lon="4.84968">
        <ele>201</ele>
        <time>2012-08-17T09:45:21.000Z</time>
      </trkpt>
      <trkpt lat="46.6465" lon="4.84968">
        <ele>201</ele>
        <time>2012-08-17T09:45:23.000Z</time>
      </trkpt>
      <trkpt lat="46.64653" lon="4.84966">
        <ele>201</ele>
        <time>2012-08-17T09:45:26.000Z</time>
      </trkpt>
      <trkpt lat="46.64654" lon="4.84959">
        <ele>201</ele>
        <time>2012-08-17T09:45:28.000Z</time>
      </trkpt>
      <trkpt lat="46.64655" lon="4.84949">
        <ele>201</ele>
        <time>2012-08-17T09:45:30.000Z</time>
      </trkpt>
      <trkpt lat="46.64653" lon="4.8493">
        <ele>200</ele>
        <time>2012-08-17T09:45:33.000Z</time>
      </trkpt>
      <trkpt lat="46.6464" lon="4.84902">
        <ele>200</ele>
        <time>2012-08-17T09:45:36.000Z</time>
      </trkpt>
      <trkpt lat="46.64636" lon="4.8488">
        <ele>200</ele>
        <time>2012-08-17T09:45:39.000Z</time>
      </trkpt>
      <trkpt lat="46.6462" lon="4.84831">
        <ele>201</ele>
        <time>2012-08-17T09:45:47.000Z</time>
      </trkpt>
      <trkpt lat="46.64619" lon="4.84818">
        <ele>201</ele>
        <time>2012-08-17T09:45:50.000Z</time>
      </trkpt>
      <trkpt lat="46.64613" lon="4.848">
        <ele>201</ele>
        <time>2012-08-17T09:45:53.000Z</time>
      </trkpt>
      <trkpt lat="46.64591" lon="4.84753">
        <ele>201</ele>
        <time>2012-08-17T09:46:00.000Z</time>
      </trkpt>
      <trkpt lat="46.64555" lon="4.84689">
        <ele>200</ele>
        <time>2012-08-17T09:46:10.000Z</time>
      </trkpt>
      <trkpt lat="46.64523" lon="4.84638">
        <ele>200</ele>
        <time>2012-08-17T09:46:19.000Z</time>
      </trkpt>
      <trkpt lat="46.64514" lon="4.84622">
        <ele>199</ele>
        <time>2012-08-17T09:46:22.000Z</time>
      </trkpt>
      <trkpt lat="46.64507" lon="4.84612">
        <ele>199</ele>
        <time>2012-08-17T09:46:24.000Z</time>
      </trkpt>
      <trkpt lat="46.64498" lon="4.84591">
        <ele>199</ele>
        <time>2012-08-17T09:46:27.000Z</time>
      </trkpt>
      <trkpt lat="46.64471" lon="4.84545">
        <ele>199</ele>
        <time>2012-08-17T09:46:35.000Z</time>
      </trkpt>
      <trkpt lat="46.64453" lon="4.84485">
        <ele>198</ele>
        <time>2012-08-17T09:46:40.000Z</time>
      </trkpt>
      <trkpt lat="46.64447" lon="4.84452">
        <ele>198</ele>
        <time>2012-08-17T09:46:45.000Z</time>
      </trkpt>
      <trkpt lat="46.64465" lon="4.84424">
        <ele>197</ele>
        <time>2012-08-17T09:46:48.000Z</time>
      </trkpt>
      <trkpt lat="46.6449" lon="4.84379">
        <ele>196</ele>
        <time>2012-08-17T09:46:54.000Z</time>
      </trkpt>
      <trkpt lat="46.64511" lon="4.84343">
        <ele>195</ele>
        <time>2012-08-17T09:46:59.000Z</time>
      </trkpt>
      <trkpt lat="46.64534" lon="4.84293">
        <ele>194</ele>
        <time>2012-08-17T09:47:05.000Z</time>
      </trkpt>
      <trkpt lat="46.64544" lon="4.8428">
        <ele>194</ele>
        <time>2012-08-17T09:47:07.000Z</time>
      </trkpt>
      <trkpt lat="46.64552" lon="4.8427">
        <ele>193</ele>
        <time>2012-08-17T09:47:10.000Z</time>
      </trkpt>
      <trkpt lat="46.64555" lon="4.8425">
        <ele>193</ele>
        <time>2012-08-17T09:47:13.000Z</time>
      </trkpt>
      <trkpt lat="46.64553" lon="4.84217">
        <ele>192</ele>
        <time>2012-08-17T09:47:16.000Z</time>
      </trkpt>
      <trkpt lat="46.64559" lon="4.84191">
        <ele>192</ele>
        <time>2012-08-17T09:47:19.000Z</time>
      </trkpt>
      <trkpt lat="46.64559" lon="4.84174">
        <ele>192</ele>
        <time>2012-08-17T09:47:21.000Z</time>
      </trkpt>
      <trkpt lat="46.64565" lon="4.84144">
        <ele>191</ele>
        <time>2012-08-17T09:47:24.000Z</time>
      </trkpt>
      <trkpt lat="46.64572" lon="4.84124">
        <ele>191</ele>
        <time>2012-08-17T09:47:26.000Z</time>
      </trkpt>
      <trkpt lat="46.64585" lon="4.84058">
        <ele>190</ele>
        <time>2012-08-17T09:47:33.000Z</time>
      </trkpt>
      <trkpt lat="46.646" lon="4.83989">
        <ele>189</ele>
        <time>2012-08-17T09:47:40.000Z</time>
      </trkpt>
      <trkpt lat="46.64609" lon="4.83963">
        <ele>189</ele>
        <time>2012-08-17T09:47:43.000Z</time>
      </trkpt>
      <trkpt lat="46.64612" lon="4.83943">
        <ele>188</ele>
        <time>2012-08-17T09:47:45.000Z</time>
      </trkpt>
      <trkpt lat="46.64619" lon="4.83924">
        <ele>187</ele>
        <time>2012-08-17T09:47:47.000Z</time>
      </trkpt>
      <trkpt lat="46.64621" lon="4.83896">
        <ele>187</ele>
        <time>2012-08-17T09:47:50.000Z</time>
      </trkpt>
      <trkpt lat="46.64624" lon="4.8388">
        <ele>186</ele>
        <time>2012-08-17T09:47:52.000Z</time>
      </trkpt>
      <trkpt lat="46.64637" lon="4.83813">
        <ele>185</ele>
        <time>2012-08-17T09:48:00.000Z</time>
      </trkpt>
      <trkpt lat="46.64654" lon="4.83764">
        <ele>185</ele>
        <time>2012-08-17T09:48:06.000Z</time>
      </trkpt>
      <trkpt lat="46.64672" lon="4.83724">
        <ele>184</ele>
        <time>2012-08-17T09:48:12.000Z</time>
      </trkpt>
      <trkpt lat="46.64687" lon="4.83667">
        <ele>184</ele>
        <time>2012-08-17T09:48:23.000Z</time>
      </trkpt>
      <trkpt lat="46.6468" lon="4.83655">
        <ele>185</ele>
        <time>2012-08-17T09:48:25.000Z</time>
      </trkpt>
      <trkpt lat="46.6466" lon="4.83623">
        <ele>184</ele>
        <time>2012-08-17T09:48:30.000Z</time>
      </trkpt>
      <trkpt lat="46.64631" lon="4.83593">
        <ele>185</ele>
        <time>2012-08-17T09:48:36.000Z</time>
      </trkpt>
      <trkpt lat="46.64603" lon="4.83559">
        <ele>186</ele>
        <time>2012-08-17T09:48:43.000Z</time>
      </trkpt>
      <trkpt lat="46.64567" lon="4.83514">
        <ele>187</ele>
        <time>2012-08-17T09:48:51.000Z</time>
      </trkpt>
      <trkpt lat="46.64529" lon="4.83466">
        <ele>187</ele>
        <time>2012-08-17T09:49:00.000Z</time>
      </trkpt>
      <trkpt lat="46.64521" lon="4.83457">
        <ele>187</ele>
        <time>2012-08-17T09:49:02.000Z</time>
      </trkpt>
      <trkpt lat="46.64508" lon="4.8344">
        <ele>187</ele>
        <time>2012-08-17T09:49:05.000Z</time>
      </trkpt>
      <trkpt lat="46.64459" lon="4.83386">
        <ele>187</ele>
        <time>2012-08-17T09:49:16.000Z</time>
      </trkpt>
      <trkpt lat="46.6445" lon="4.83379">
        <ele>187</ele>
        <time>2012-08-17T09:49:18.000Z</time>
      </trkpt>
      <trkpt lat="46.6444" lon="4.83372">
        <ele>188</ele>
        <time>2012-08-17T09:49:20.000Z</time>
      </trkpt>
      <trkpt lat="46.64432" lon="4.83363">
        <ele>188</ele>
        <time>2012-08-17T09:49:22.000Z</time>
      </trkpt>
      <trkpt lat="46.64418" lon="4.83353">
        <ele>188</ele>
        <time>2012-08-17T09:49:25.000Z</time>
      </trkpt>
      <trkpt lat="46.6441" lon="4.83346">
        <ele>188</ele>
        <time>2012-08-17T09:49:27.000Z</time>
      </trkpt>
      <trkpt lat="46.64401" lon="4.83344">
        <ele>188</ele>
        <time>2012-08-17T09:49:30.000Z</time>
      </trkpt>
      <trkpt lat="46.64391" lon="4.83337">
        <ele>188</ele>
        <time>2012-08-17T09:49:33.000Z</time>
      </trkpt>
      <trkpt lat="46.64343" lon="4.83297">
        <ele>188</ele>
        <time>2012-08-17T09:49:46.000Z</time>
      </trkpt>
      <trkpt lat="46.64336" lon="4.83289">
        <ele>188</ele>
        <time>2012-08-17T09:49:48.000Z</time>
      </trkpt>
      <trkpt lat="46.6432" lon="4.83273">
        <ele>189</ele>
        <time>2012-08-17T09:49:53.000Z</time>
      </trkpt>
      <trkpt lat="46.64272" lon="4.83224">
        <ele>190</ele>
        <time>2012-08-17T09:50:06.000Z</time>
      </trkpt>
      <trkpt lat="46.6426" lon="4.83216">
        <ele>190</ele>
        <time>2012-08-17T09:50:09.000Z</time>
      </trkpt>
      <trkpt lat="46.64252" lon="4.83208">
        <ele>190</ele>
        <time>2012-08-17T09:50:11.000Z</time>
      </trkpt>
      <trkpt lat="46.6424" lon="4.83201">
        <ele>190</ele>
        <time>2012-08-17T09:50:14.000Z</time>
      </trkpt>
      <trkpt lat="46.64224" lon="4.83192">
        <ele>191</ele>
        <time>2012-08-17T09:50:18.000Z</time>
      </trkpt>
      <trkpt lat="46.64178" lon="4.83171">
        <ele>191</ele>
        <time>2012-08-17T09:50:29.000Z</time>
      </trkpt>
      <trkpt lat="46.64169" lon="4.83165">
        <ele>191</ele>
        <time>2012-08-17T09:50:31.000Z</time>
      </trkpt>
      <trkpt lat="46.64145" lon="4.83145">
        <ele>191</ele>
        <time>2012-08-17T09:50:37.000Z</time>
      </trkpt>
      <trkpt lat="46.64132" lon="4.83128">
        <ele>191</ele>
        <time>2012-08-17T09:50:40.000Z</time>
      </trkpt>
      <trkpt lat="46.64123" lon="4.83122">
        <ele>191</ele>
        <time>2012-08-17T09:50:42.000Z</time>
      </trkpt>
      <trkpt lat="46.64112" lon="4.8311">
        <ele>191</ele>
        <time>2012-08-17T09:50:45.000Z</time>
      </trkpt>
      <trkpt lat="46.64075" lon="4.8307">
        <ele>191</ele>
        <time>2012-08-17T09:50:55.000Z</time>
      </trkpt>
      <trkpt lat="46.64066" lon="4.83056">
        <ele>191</ele>
        <time>2012-08-17T09:50:58.000Z</time>
      </trkpt>
      <trkpt lat="46.64059" lon="4.83041">
        <ele>191</ele>
        <time>2012-08-17T09:51:01.000Z</time>
      </trkpt>
      <trkpt lat="46.64051" lon="4.83015">
        <ele>191</ele>
        <time>2012-08-17T09:51:05.000Z</time>
      </trkpt>
      <trkpt lat="46.64045" lon="4.82996">
        <ele>192</ele>
        <time>2012-08-17T09:51:08.000Z</time>
      </trkpt>
      <trkpt lat="46.6404" lon="4.82987">
        <ele>192</ele>
        <time>2012-08-17T09:51:10.000Z</time>
      </trkpt>
      <trkpt lat="46.64033" lon="4.82969">
        <ele>192</ele>
        <time>2012-08-17T09:51:13.000Z</time>
      </trkpt>
      <trkpt lat="46.64005" lon="4.82897">
        <ele>193</ele>
        <time>2012-08-17T09:51:25.000Z</time>
      </trkpt>
      <trkpt lat="46.63996" lon="4.82881">
        <ele>193</ele>
        <time>2012-08-17T09:51:28.000Z</time>
      </trkpt>
      <trkpt lat="46.63992" lon="4.82869">
        <ele>193</ele>
        <time>2012-08-17T09:51:30.000Z</time>
      </trkpt>
      <trkpt lat="46.63967" lon="4.82804">
        <ele>193</ele>
        <time>2012-08-17T09:51:41.000Z</time>
      </trkpt>
      <trkpt lat="46.63958" lon="4.82789">
        <ele>193</ele>
        <time>2012-08-17T09:51:44.000Z</time>
      </trkpt>
      <trkpt lat="46.6393" lon="4.82731">
        <ele>194</ele>
        <time>2012-08-17T09:51:54.000Z</time>
      </trkpt>
      <trkpt lat="46.63919" lon="4.82717">
        <ele>194</ele>
        <time>2012-08-17T09:51:57.000Z</time>
      </trkpt>
      <trkpt lat="46.63887" lon="4.82667">
        <ele>194</ele>
        <time>2012-08-17T09:52:07.000Z</time>
      </trkpt>
      <trkpt lat="46.63846" lon="4.82619">
        <ele>194</ele>
        <time>2012-08-17T09:52:18.000Z</time>
      </trkpt>
      <trkpt lat="46.63828" lon="4.82591">
        <ele>194</ele>
        <time>2012-08-17T09:52:24.000Z</time>
      </trkpt>
      <trkpt lat="46.63811" lon="4.82571">
        <ele>194</ele>
        <time>2012-08-17T09:52:29.000Z</time>
      </trkpt>
      <trkpt lat="46.63789" lon="4.82541">
        <ele>194</ele>
        <time>2012-08-17T09:52:35.000Z</time>
      </trkpt>
      <trkpt lat="46.63781" lon="4.82535">
        <ele>194</ele>
        <time>2012-08-17T09:52:37.000Z</time>
      </trkpt>
      <trkpt lat="46.63768" lon="4.82521">
        <ele>195</ele>
        <time>2012-08-17T09:52:40.000Z</time>
      </trkpt>
      <trkpt lat="46.63744" lon="4.82489">
        <ele>195</ele>
        <time>2012-08-17T09:52:47.000Z</time>
      </trkpt>
      <trkpt lat="46.63709" lon="4.82439">
        <ele>195</ele>
        <time>2012-08-17T09:52:56.000Z</time>
      </trkpt>
      <trkpt lat="46.63697" lon="4.82427">
        <ele>194</ele>
        <time>2012-08-17T09:53:00.000Z</time>
      </trkpt>
      <trkpt lat="46.63687" lon="4.82412">
        <ele>194</ele>
        <time>2012-08-17T09:53:03.000Z</time>
      </trkpt>
      <trkpt lat="46.63678" lon="4.82405">
        <ele>194</ele>
        <time>2012-08-17T09:53:05.000Z</time>
      </trkpt>
      <trkpt lat="46.63667" lon="4.82398">
        <ele>195</ele>
        <time>2012-08-17T09:53:08.000Z</time>
      </trkpt>
      <trkpt lat="46.63663" lon="4.82374">
        <ele>195</ele>
        <time>2012-08-17T09:53:11.000Z</time>
      </trkpt>
      <trkpt lat="46.63675" lon="4.82358">
        <ele>195</ele>
        <time>2012-08-17T09:53:13.000Z</time>
      </trkpt>
      <trkpt lat="46.63703" lon="4.82303">
        <ele>195</ele>
        <time>2012-08-17T09:53:21.000Z</time>
      </trkpt>
      <trkpt lat="46.63708" lon="4.82291">
        <ele>194</ele>
        <time>2012-08-17T09:53:23.000Z</time>
      </trkpt>
      <trkpt lat="46.63738" lon="4.82239">
        <ele>194</ele>
        <time>2012-08-17T09:53:31.000Z</time>
      </trkpt>
      <trkpt lat="46.63746" lon="4.82223">
        <ele>193</ele>
        <time>2012-08-17T09:53:33.000Z</time>
      </trkpt>
      <trkpt lat="46.63772" lon="4.82168">
        <ele>192</ele>
        <time>2012-08-17T09:53:41.000Z</time>
      </trkpt>
      <trkpt lat="46.63785" lon="4.82148">
        <ele>192</ele>
        <time>2012-08-17T09:53:44.000Z</time>
      </trkpt>
      <trkpt lat="46.6379" lon="4.82134">
        <ele>192</ele>
        <time>2012-08-17T09:53:46.000Z</time>
      </trkpt>
      <trkpt lat="46.63792" lon="4.82121">
        <ele>192</ele>
        <time>2012-08-17T09:53:48.000Z</time>
      </trkpt>
      <trkpt lat="46.63805" lon="4.82097">
        <ele>192</ele>
        <time>2012-08-17T09:53:54.000Z</time>
      </trkpt>
      <trkpt lat="46.63807" lon="4.82087">
        <ele>192</ele>
        <time>2012-08-17T09:53:57.000Z</time>
      </trkpt>
      <trkpt lat="46.63805" lon="4.82082">
        <ele>191</ele>
        <time>2012-08-17T09:53:59.000Z</time>
      </trkpt>
      <trkpt lat="46.63804" lon="4.82082">
        <ele>191</ele>
        <time>2012-08-17T09:54:02.000Z</time>
      </trkpt>
      <trkpt lat="46.63806" lon="4.82078">
        <ele>191</ele>
        <time>2012-08-17T09:54:04.000Z</time>
      </trkpt>
      <trkpt lat="46.63826" lon="4.82035">
        <ele>191</ele>
        <time>2012-08-17T09:54:13.000Z</time>
      </trkpt>
      <trkpt lat="46.63832" lon="4.82017">
        <ele>190</ele>
        <time>2012-08-17T09:54:16.000Z</time>
      </trkpt>
      <trkpt lat="46.63846" lon="4.81982">
        <ele>189</ele>
        <time>2012-08-17T09:54:23.000Z</time>
      </trkpt>
      <trkpt lat="46.63853" lon="4.81972">
        <ele>189</ele>
        <time>2012-08-17T09:54:26.000Z</time>
      </trkpt>
      <trkpt lat="46.63859" lon="4.81961">
        <ele>189</ele>
        <time>2012-08-17T09:54:29.000Z</time>
      </trkpt>
      <trkpt lat="46.63884" lon="4.81904">
        <ele>189</ele>
        <time>2012-08-17T09:54:41.000Z</time>
      </trkpt>
      <trkpt lat="46.63907" lon="4.81846">
        <ele>189</ele>
        <time>2012-08-17T09:54:55.000Z</time>
      </trkpt>
      <trkpt lat="46.63934" lon="4.8179">
        <ele>189</ele>
        <time>2012-08-17T09:55:07.000Z</time>
      </trkpt>
      <trkpt lat="46.63951" lon="4.8174">
        <ele>190</ele>
        <time>2012-08-17T09:55:17.000Z</time>
      </trkpt>
      <trkpt lat="46.63971" lon="4.81672">
        <ele>190</ele>
        <time>2012-08-17T09:55:31.000Z</time>
      </trkpt>
      <trkpt lat="46.63984" lon="4.81637">
        <ele>189</ele>
        <time>2012-08-17T09:55:38.000Z</time>
      </trkpt>
      <trkpt lat="46.64" lon="4.81604">
        <ele>188</ele>
        <time>2012-08-17T09:55:49.000Z</time>
      </trkpt>
      <trkpt lat="46.64002" lon="4.81602">
        <ele>188</ele>
        <time>2012-08-17T09:55:52.000Z</time>
      </trkpt>
      <trkpt lat="46.64005" lon="4.81609">
        <ele>188</ele>
        <time>2012-08-17T09:55:55.000Z</time>
      </trkpt>
      <trkpt lat="46.64036" lon="4.8167">
        <ele>188</ele>
        <time>2012-08-17T09:56:07.000Z</time>
      </trkpt>
      <trkpt lat="46.64064" lon="4.81725">
        <ele>188</ele>
        <time>2012-08-17T09:56:20.000Z</time>
      </trkpt>
      <trkpt lat="46.64069" lon="4.81733">
        <ele>188</ele>
        <time>2012-08-17T09:56:22.000Z</time>
      </trkpt>
      <trkpt lat="46.64078" lon="4.81745">
        <ele>187</ele>
        <time>2012-08-17T09:56:25.000Z</time>
      </trkpt>
      <trkpt lat="46.64088" lon="4.81755">
        <ele>187</ele>
        <time>2012-08-17T09:56:28.000Z</time>
      </trkpt>
      <trkpt lat="46.64134" lon="4.81794">
        <ele>187</ele>
        <time>2012-08-17T09:56:41.000Z</time>
      </trkpt>
      <trkpt lat="46.64146" lon="4.81804">
        <ele>188</ele>
        <time>2012-08-17T09:56:44.000Z</time>
      </trkpt>
      <trkpt lat="46.64168" lon="4.81813">
        <ele>188</ele>
        <time>2012-08-17T09:56:49.000Z</time>
      </trkpt>
      <trkpt lat="46.64178" lon="4.81821">
        <ele>188</ele>
        <time>2012-08-17T09:56:52.000Z</time>
      </trkpt>
      <trkpt lat="46.64187" lon="4.81829">
        <ele>189</ele>
        <time>2012-08-17T09:56:55.000Z</time>
      </trkpt>
      <trkpt lat="46.64198" lon="4.81835">
        <ele>189</ele>
        <time>2012-08-17T09:56:58.000Z</time>
      </trkpt>
      <trkpt lat="46.64246" lon="4.81861">
        <ele>189</ele>
        <time>2012-08-17T09:57:13.000Z</time>
      </trkpt>
      <trkpt lat="46.64252" lon="4.81866">
        <ele>189</ele>
        <time>2012-08-17T09:57:15.000Z</time>
      </trkpt>
      <trkpt lat="46.64295" lon="4.81907">
        <ele>189</ele>
        <time>2012-08-17T09:57:27.000Z</time>
      </trkpt>
      <trkpt lat="46.64337" lon="4.8194">
        <ele>189</ele>
        <time>2012-08-17T09:57:40.000Z</time>
      </trkpt>
      <trkpt lat="46.64356" lon="4.81953">
        <ele>189</ele>
        <time>2012-08-17T09:57:45.000Z</time>
      </trkpt>
      <trkpt lat="46.64367" lon="4.81961">
        <ele>189</ele>
        <time>2012-08-17T09:57:48.000Z</time>
      </trkpt>
      <trkpt lat="46.64383" lon="4.81976">
        <ele>188</ele>
        <time>2012-08-17T09:57:53.000Z</time>
      </trkpt>
      <trkpt lat="46.64389" lon="4.81979">
        <ele>188</ele>
        <time>2012-08-17T09:57:55.000Z</time>
      </trkpt>
      <trkpt lat="46.64394" lon="4.81975">
        <ele>188</ele>
        <time>2012-08-17T09:57:58.000Z</time>
      </trkpt>
      <trkpt lat="46.64397" lon="4.81964">
        <ele>188</ele>
        <time>2012-08-17T09:58:01.000Z</time>
      </trkpt>
      <trkpt lat="46.64398" lon="4.81949">
        <ele>188</ele>
        <time>2012-08-17T09:58:04.000Z</time>
      </trkpt>
      <trkpt lat="46.64397" lon="4.81933">
        <ele>188</ele>
        <time>2012-08-17T09:58:07.000Z</time>
      </trkpt>
      <trkpt lat="46.64397" lon="4.81921">
        <ele>189</ele>
        <time>2012-08-17T09:58:09.000Z</time>
      </trkpt>
      <trkpt lat="46.64402" lon="4.81895">
        <ele>189</ele>
        <time>2012-08-17T09:58:12.000Z</time>
      </trkpt>
      <trkpt lat="46.64399" lon="4.81878">
        <ele>189</ele>
        <time>2012-08-17T09:58:15.000Z</time>
      </trkpt>
      <trkpt lat="46.64399" lon="4.81859">
        <ele>190</ele>
        <time>2012-08-17T09:58:18.000Z</time>
      </trkpt>
      <trkpt lat="46.64399" lon="4.81847">
        <ele>190</ele>
        <time>2012-08-17T09:58:20.000Z</time>
      </trkpt>
      <trkpt lat="46.644" lon="4.81834">
        <ele>190</ele>
        <time>2012-08-17T09:58:22.000Z</time>
      </trkpt>
      <trkpt lat="46.64405" lon="4.81812">
        <ele>190</ele>
        <time>2012-08-17T09:58:25.000Z</time>
      </trkpt>
      <trkpt lat="46.64425" lon="4.81727">
        <ele>190</ele>
        <time>2012-08-17T09:58:35.000Z</time>
      </trkpt>
      <trkpt lat="46.64427" lon="4.81708">
        <ele>190</ele>
        <time>2012-08-17T09:58:37.000Z</time>
      </trkpt>
      <trkpt lat="46.64435" lon="4.81688">
        <ele>189</ele>
        <time>2012-08-17T09:58:39.000Z</time>
      </trkpt>
      <trkpt lat="46.64456" lon="4.81611">
        <ele>188</ele>
        <time>2012-08-17T09:58:48.000Z</time>
      </trkpt>
      <trkpt lat="46.64473" lon="4.81536">
        <ele>188</ele>
        <time>2012-08-17T09:58:58.000Z</time>
      </trkpt>
      <trkpt lat="46.64474" lon="4.81518">
        <ele>188</ele>
        <time>2012-08-17T09:59:00.000Z</time>
      </trkpt>
      <trkpt lat="46.64486" lon="4.81492">
        <ele>188</ele>
        <time>2012-08-17T09:59:03.000Z</time>
      </trkpt>
      <trkpt lat="46.64492" lon="4.81467">
        <ele>188</ele>
        <time>2012-08-17T09:59:06.000Z</time>
      </trkpt>
      <trkpt lat="46.64497" lon="4.8145">
        <ele>187</ele>
        <time>2012-08-17T09:59:08.000Z</time>
      </trkpt>
      <trkpt lat="46.6452" lon="4.8137">
        <ele>187</ele>
        <time>2012-08-17T09:59:19.000Z</time>
      </trkpt>
      <trkpt lat="46.64524" lon="4.81356">
        <ele>188</ele>
        <time>2012-08-17T09:59:21.000Z</time>
      </trkpt>
      <trkpt lat="46.64544" lon="4.81283">
        <ele>188</ele>
        <time>2012-08-17T09:59:30.000Z</time>
      </trkpt>
      <trkpt lat="46.6456" lon="4.81208">
        <ele>187</ele>
        <time>2012-08-17T09:59:38.000Z</time>
      </trkpt>
      <trkpt lat="46.64559" lon="4.8119">
        <ele>187</ele>
        <time>2012-08-17T09:59:40.000Z</time>
      </trkpt>
      <trkpt lat="46.64563" lon="4.81156">
        <ele>187</ele>
        <time>2012-08-17T09:59:43.000Z</time>
      </trkpt>
      <trkpt lat="46.64571" lon="4.81137">
        <ele>186</ele>
        <time>2012-08-17T09:59:45.000Z</time>
      </trkpt>
      <trkpt lat="46.64593" lon="4.81069">
        <ele>185</ele>
        <time>2012-08-17T09:59:51.000Z</time>
      </trkpt>
      <trkpt lat="46.64614" lon="4.81002">
        <ele>184</ele>
        <time>2012-08-17T09:59:56.000Z</time>
      </trkpt>
      <trkpt lat="46.64621" lon="4.80978">
        <ele>183</ele>
        <time>2012-08-17T09:59:58.000Z</time>
      </trkpt>
      <trkpt lat="46.64642" lon="4.80911">
        <ele>183</ele>
        <time>2012-08-17T10:00:04.000Z</time>
      </trkpt>
      <trkpt lat="46.64663" lon="4.8082">
        <ele>183</ele>
        <time>2012-08-17T10:00:12.000Z</time>
      </trkpt>
      <trkpt lat="46.64673" lon="4.80799">
        <ele>184</ele>
        <time>2012-08-17T10:00:14.000Z</time>
      </trkpt>
      <trkpt lat="46.64681" lon="4.8077">
        <ele>184</ele>
        <time>2012-08-17T10:00:17.000Z</time>
      </trkpt>
      <trkpt lat="46.64703" lon="4.8071">
        <ele>184</ele>
        <time>2012-08-17T10:00:23.000Z</time>
      </trkpt>
      <trkpt lat="46.64724" lon="4.80649">
        <ele>183</ele>
        <time>2012-08-17T10:00:30.000Z</time>
      </trkpt>
      <trkpt lat="46.64738" lon="4.80623">
        <ele>182</ele>
        <time>2012-08-17T10:00:33.000Z</time>
      </trkpt>
      <trkpt lat="46.64767" lon="4.8059">
        <ele>181</ele>
        <time>2012-08-17T10:00:39.000Z</time>
      </trkpt>
      <trkpt lat="46.64789" lon="4.80558">
        <ele>181</ele>
        <time>2012-08-17T10:00:44.000Z</time>
      </trkpt>
      <trkpt lat="46.64801" lon="4.80535">
        <ele>181</ele>
        <time>2012-08-17T10:00:47.000Z</time>
      </trkpt>
      <trkpt lat="46.64828" lon="4.80478">
        <ele>181</ele>
        <time>2012-08-17T10:00:55.000Z</time>
      </trkpt>
      <trkpt lat="46.64836" lon="4.80456">
        <ele>181</ele>
        <time>2012-08-17T10:00:58.000Z</time>
      </trkpt>
      <trkpt lat="46.64855" lon="4.80415">
        <ele>181</ele>
        <time>2012-08-17T10:01:03.000Z</time>
      </trkpt>
      <trkpt lat="46.64867" lon="4.80401">
        <ele>181</ele>
        <time>2012-08-17T10:01:05.000Z</time>
      </trkpt>
      <trkpt lat="46.64893" lon="4.80361">
        <ele>181</ele>
        <time>2012-08-17T10:01:10.000Z</time>
      </trkpt>
      <trkpt lat="46.64905" lon="4.80347">
        <ele>181</ele>
        <time>2012-08-17T10:01:13.000Z</time>
      </trkpt>
      <trkpt lat="46.64915" lon="4.80332">
        <ele>181</ele>
        <time>2012-08-17T10:01:15.000Z</time>
      </trkpt>
      <trkpt lat="46.6493" lon="4.80314">
        <ele>181</ele>
        <time>2012-08-17T10:01:18.000Z</time>
      </trkpt>
      <trkpt lat="46.64948" lon="4.80287">
        <ele>182</ele>
        <time>2012-08-17T10:01:22.000Z</time>
      </trkpt>
      <trkpt lat="46.6496" lon="4.80263">
        <ele>182</ele>
        <time>2012-08-17T10:01:25.000Z</time>
      </trkpt>
      <trkpt lat="46.64965" lon="4.80245">
        <ele>182</ele>
        <time>2012-08-17T10:01:27.000Z</time>
      </trkpt>
      <trkpt lat="46.64965" lon="4.80219">
        <ele>183</ele>
        <time>2012-08-17T10:01:30.000Z</time>
      </trkpt>
      <trkpt lat="46.64965" lon="4.80194">
        <ele>183</ele>
        <time>2012-08-17T10:01:33.000Z</time>
      </trkpt>
      <trkpt lat="46.64962" lon="4.80171">
        <ele>184</ele>
        <time>2012-08-17T10:01:36.000Z</time>
      </trkpt>
      <trkpt lat="46.64953" lon="4.80153">
        <ele>184</ele>
        <time>2012-08-17T10:01:39.000Z</time>
      </trkpt>
      <trkpt lat="46.64951" lon="4.80136">
        <ele>184</ele>
        <time>2012-08-17T10:01:41.000Z</time>
      </trkpt>
      <trkpt lat="46.64952" lon="4.8012">
        <ele>184</ele>
        <time>2012-08-17T10:01:43.000Z</time>
      </trkpt>
      <trkpt lat="46.64949" lon="4.80103">
        <ele>184</ele>
        <time>2012-08-17T10:01:45.000Z</time>
      </trkpt>
      <trkpt lat="46.64937" lon="4.80065">
        <ele>184</ele>
        <time>2012-08-17T10:01:50.000Z</time>
      </trkpt>
      <trkpt lat="46.64932" lon="4.80034">
        <ele>184</ele>
        <time>2012-08-17T10:01:53.000Z</time>
      </trkpt>
      <trkpt lat="46.64931" lon="4.80007">
        <ele>184</ele>
        <time>2012-08-17T10:01:56.000Z</time>
      </trkpt>
      <trkpt lat="46.64923" lon="4.79925">
        <ele>183</ele>
        <time>2012-08-17T10:02:05.000Z</time>
      </trkpt>
      <trkpt lat="46.64924" lon="4.79896">
        <ele>183</ele>
        <time>2012-08-17T10:02:08.000Z</time>
      </trkpt>
      <trkpt lat="46.64919" lon="4.79883">
        <ele>183</ele>
        <time>2012-08-17T10:02:10.000Z</time>
      </trkpt>
      <trkpt lat="46.64912" lon="4.79857">
        <ele>183</ele>
        <time>2012-08-17T10:02:13.000Z</time>
      </trkpt>
      <trkpt lat="46.64902" lon="4.79843">
        <ele>183</ele>
        <time>2012-08-17T10:02:16.000Z</time>
      </trkpt>
      <trkpt lat="46.64899" lon="4.79819">
        <ele>183</ele>
        <time>2012-08-17T10:02:19.000Z</time>
      </trkpt>
      <trkpt lat="46.64899" lon="4.79797">
        <ele>183</ele>
        <time>2012-08-17T10:02:22.000Z</time>
      </trkpt>
      <trkpt lat="46.64896" lon="4.79769">
        <ele>183</ele>
        <time>2012-08-17T10:02:25.000Z</time>
      </trkpt>
      <trkpt lat="46.64892" lon="4.79753">
        <ele>183</ele>
        <time>2012-08-17T10:02:27.000Z</time>
      </trkpt>
      <trkpt lat="46.6487" lon="4.79681">
        <ele>183</ele>
        <time>2012-08-17T10:02:33.000Z</time>
      </trkpt>
      <trkpt lat="46.64867" lon="4.79658">
        <ele>183</ele>
        <time>2012-08-17T10:02:35.000Z</time>
      </trkpt>
      <trkpt lat="46.64857" lon="4.79576">
        <ele>183</ele>
        <time>2012-08-17T10:02:43.000Z</time>
      </trkpt>
      <trkpt lat="46.64859" lon="4.79549">
        <ele>183</ele>
        <time>2012-08-17T10:02:46.000Z</time>
      </trkpt>
      <trkpt lat="46.64855" lon="4.79525">
        <ele>183</ele>
        <time>2012-08-17T10:02:48.000Z</time>
      </trkpt>
      <trkpt lat="46.64845" lon="4.79501">
        <ele>183</ele>
        <time>2012-08-17T10:02:51.000Z</time>
      </trkpt>
      <trkpt lat="46.64834" lon="4.79481">
        <ele>183</ele>
        <time>2012-08-17T10:02:54.000Z</time>
      </trkpt>
      <trkpt lat="46.64825" lon="4.79473">
        <ele>183</ele>
        <time>2012-08-17T10:02:56.000Z</time>
      </trkpt>
      <trkpt lat="46.6482" lon="4.7942">
        <ele>183</ele>
        <time>2012-08-17T10:03:00.000Z</time>
      </trkpt>
      <trkpt lat="46.64808" lon="4.79409">
        <ele>184</ele>
        <time>2012-08-17T10:03:03.000Z</time>
      </trkpt>
      <trkpt lat="46.64797" lon="4.7939">
        <ele>184</ele>
        <time>2012-08-17T10:03:06.000Z</time>
      </trkpt>
      <trkpt lat="46.64793" lon="4.79378">
        <ele>184</ele>
        <time>2012-08-17T10:03:08.000Z</time>
      </trkpt>
      <trkpt lat="46.64789" lon="4.79372">
        <ele>184</ele>
        <time>2012-08-17T10:03:10.000Z</time>
      </trkpt>
      <trkpt lat="46.64787" lon="4.79361">
        <ele>184</ele>
        <time>2012-08-17T10:03:13.000Z</time>
      </trkpt>
      <trkpt lat="46.64783" lon="4.7932">
        <ele>184</ele>
        <time>2012-08-17T10:03:17.000Z</time>
      </trkpt>
      <trkpt lat="46.64773" lon="4.79305">
        <ele>184</ele>
        <time>2012-08-17T10:03:20.000Z</time>
      </trkpt>
      <trkpt lat="46.64768" lon="4.79295">
        <ele>184</ele>
        <time>2012-08-17T10:03:22.000Z</time>
      </trkpt>
      <trkpt lat="46.64755" lon="4.7928">
        <ele>184</ele>
        <time>2012-08-17T10:03:25.000Z</time>
      </trkpt>
      <trkpt lat="46.64719" lon="4.79241">
        <ele>184</ele>
        <time>2012-08-17T10:03:34.000Z</time>
      </trkpt>
      <trkpt lat="46.64716" lon="4.79226">
        <ele>184</ele>
        <time>2012-08-17T10:03:36.000Z</time>
      </trkpt>
      <trkpt lat="46.647" lon="4.79208">
        <ele>184</ele>
        <time>2012-08-17T10:03:39.000Z</time>
      </trkpt>
      <trkpt lat="46.64697" lon="4.79186">
        <ele>184</ele>
        <time>2012-08-17T10:03:41.000Z</time>
      </trkpt>
      <trkpt lat="46.64687" lon="4.79164">
        <ele>184</ele>
        <time>2012-08-17T10:03:44.000Z</time>
      </trkpt>
      <trkpt lat="46.64675" lon="4.79121">
        <ele>184</ele>
        <time>2012-08-17T10:03:49.000Z</time>
      </trkpt>
      <trkpt lat="46.64669" lon="4.79085">
        <ele>184</ele>
        <time>2012-08-17T10:03:52.000Z</time>
      </trkpt>
      <trkpt lat="46.64664" lon="4.79068">
        <ele>184</ele>
        <time>2012-08-17T10:03:54.000Z</time>
      </trkpt>
      <trkpt lat="46.64661" lon="4.79033">
        <ele>184</ele>
        <time>2012-08-17T10:03:57.000Z</time>
      </trkpt>
      <trkpt lat="46.64664" lon="4.79012">
        <ele>184</ele>
        <time>2012-08-17T10:03:59.000Z</time>
      </trkpt>
      <trkpt lat="46.64675" lon="4.78962">
        <ele>184</ele>
        <time>2012-08-17T10:04:05.000Z</time>
      </trkpt>
      <trkpt lat="46.64678" lon="4.78923">
        <ele>183</ele>
        <time>2012-08-17T10:04:10.000Z</time>
      </trkpt>
      <trkpt lat="46.64671" lon="4.78913">
        <ele>183</ele>
        <time>2012-08-17T10:04:12.000Z</time>
      </trkpt>
      <trkpt lat="46.64659" lon="4.78875">
        <ele>183</ele>
        <time>2012-08-17T10:04:18.000Z</time>
      </trkpt>
      <trkpt lat="46.64639" lon="4.78814">
        <ele>183</ele>
        <time>2012-08-17T10:04:25.000Z</time>
      </trkpt>
      <trkpt lat="46.64635" lon="4.7878">
        <ele>184</ele>
        <time>2012-08-17T10:04:28.000Z</time>
      </trkpt>
      <trkpt lat="46.64627" lon="4.78763">
        <ele>184</ele>
        <time>2012-08-17T10:04:31.000Z</time>
      </trkpt>
      <trkpt lat="46.64594" lon="4.78701">
        <ele>184</ele>
        <time>2012-08-17T10:04:39.000Z</time>
      </trkpt>
      <trkpt lat="46.64574" lon="4.7867">
        <ele>183</ele>
        <time>2012-08-17T10:04:44.000Z</time>
      </trkpt>
      <trkpt lat="46.64536" lon="4.78622">
        <ele>183</ele>
        <time>2012-08-17T10:04:52.000Z</time>
      </trkpt>
      <trkpt lat="46.64529" lon="4.78607">
        <ele>183</ele>
        <time>2012-08-17T10:04:54.000Z</time>
      </trkpt>
      <trkpt lat="46.64522" lon="4.78592">
        <ele>182</ele>
        <time>2012-08-17T10:04:56.000Z</time>
      </trkpt>
      <trkpt lat="46.64485" lon="4.78537">
        <ele>182</ele>
        <time>2012-08-17T10:05:05.000Z</time>
      </trkpt>
      <trkpt lat="46.64447" lon="4.78472">
        <ele>182</ele>
        <time>2012-08-17T10:05:14.000Z</time>
      </trkpt>
      <trkpt lat="46.64406" lon="4.78404">
        <ele>182</ele>
        <time>2012-08-17T10:05:24.000Z</time>
      </trkpt>
      <trkpt lat="46.64392" lon="4.78387">
        <ele>182</ele>
        <time>2012-08-17T10:05:27.000Z</time>
      </trkpt>
      <trkpt lat="46.64384" lon="4.78373">
        <ele>182</ele>
        <time>2012-08-17T10:05:29.000Z</time>
      </trkpt>
      <trkpt lat="46.64347" lon="4.78313">
        <ele>182</ele>
        <time>2012-08-17T10:05:38.000Z</time>
      </trkpt>
      <trkpt lat="46.64314" lon="4.78268">
        <ele>182</ele>
        <time>2012-08-17T10:05:46.000Z</time>
      </trkpt>
      <trkpt lat="46.64302" lon="4.78246">
        <ele>182</ele>
        <time>2012-08-17T10:05:49.000Z</time>
      </trkpt>
      <trkpt lat="46.64291" lon="4.78224">
        <ele>183</ele>
        <time>2012-08-17T10:05:52.000Z</time>
      </trkpt>
      <trkpt lat="46.6428" lon="4.78208">
        <ele>183</ele>
        <time>2012-08-17T10:05:55.000Z</time>
      </trkpt>
      <trkpt lat="46.64251" lon="4.78159">
        <ele>184</ele>
        <time>2012-08-17T10:06:03.000Z</time>
      </trkpt>
      <trkpt lat="46.64243" lon="4.78148">
        <ele>184</ele>
        <time>2012-08-17T10:06:05.000Z</time>
      </trkpt>
      <trkpt lat="46.64209" lon="4.78108">
        <ele>183</ele>
        <time>2012-08-17T10:06:14.000Z</time>
      </trkpt>
      <trkpt lat="46.64198" lon="4.78089">
        <ele>183</ele>
        <time>2012-08-17T10:06:17.000Z</time>
      </trkpt>
      <trkpt lat="46.64186" lon="4.78077">
        <ele>183</ele>
        <time>2012-08-17T10:06:20.000Z</time>
      </trkpt>
      <trkpt lat="46.64143" lon="4.78043">
        <ele>183</ele>
        <time>2012-08-17T10:06:29.000Z</time>
      </trkpt>
      <trkpt lat="46.64127" lon="4.78025">
        <ele>182</ele>
        <time>2012-08-17T10:06:32.000Z</time>
      </trkpt>
      <trkpt lat="46.64119" lon="4.7802">
        <ele>182</ele>
        <time>2012-08-17T10:06:34.000Z</time>
      </trkpt>
      <trkpt lat="46.64109" lon="4.78012">
        <ele>182</ele>
        <time>2012-08-17T10:06:36.000Z</time>
      </trkpt>
      <trkpt lat="46.64082" lon="4.77984">
        <ele>181</ele>
        <time>2012-08-17T10:06:42.000Z</time>
      </trkpt>
      <trkpt lat="46.64063" lon="4.77972">
        <ele>181</ele>
        <time>2012-08-17T10:06:46.000Z</time>
      </trkpt>
      <trkpt lat="46.64054" lon="4.77968">
        <ele>182</ele>
        <time>2012-08-17T10:06:48.000Z</time>
      </trkpt>
      <trkpt lat="46.64045" lon="4.77963">
        <ele>182</ele>
        <time>2012-08-17T10:06:50.000Z</time>
      </trkpt>
      <trkpt lat="46.64003" lon="4.77938">
        <ele>183</ele>
        <time>2012-08-17T10:07:01.000Z</time>
      </trkpt>
      <trkpt lat="46.63997" lon="4.77937">
        <ele>183</ele>
        <time>2012-08-17T10:07:03.000Z</time>
      </trkpt>
      <trkpt lat="46.63945" lon="4.77927">
        <ele>183</ele>
        <time>2012-08-17T10:07:15.000Z</time>
      </trkpt>
      <trkpt lat="46.63936" lon="4.77924">
        <ele>184</ele>
        <time>2012-08-17T10:07:17.000Z</time>
      </trkpt>
      <trkpt lat="46.63922" lon="4.77921">
        <ele>184</ele>
        <time>2012-08-17T10:07:20.000Z</time>
      </trkpt>
      <trkpt lat="46.63874" lon="4.7791">
        <ele>184</ele>
        <time>2012-08-17T10:07:30.000Z</time>
      </trkpt>
      <trkpt lat="46.6386" lon="4.77906">
        <ele>185</ele>
        <time>2012-08-17T10:07:33.000Z</time>
      </trkpt>
      <trkpt lat="46.63815" lon="4.77891">
        <ele>185</ele>
        <time>2012-08-17T10:07:43.000Z</time>
      </trkpt>
      <trkpt lat="46.63801" lon="4.77884">
        <ele>185</ele>
        <time>2012-08-17T10:07:46.000Z</time>
      </trkpt>
      <trkpt lat="46.63792" lon="4.77883">
        <ele>186</ele>
        <time>2012-08-17T10:07:48.000Z</time>
      </trkpt>
      <trkpt lat="46.63784" lon="4.77875">
        <ele>185</ele>
        <time>2012-08-17T10:07:50.000Z</time>
      </trkpt>
      <trkpt lat="46.63773" lon="4.77858">
        <ele>185</ele>
        <time>2012-08-17T10:07:53.000Z</time>
      </trkpt>
      <trkpt lat="46.63742" lon="4.77807">
        <ele>184</ele>
        <time>2012-08-17T10:08:03.000Z</time>
      </trkpt>
      <trkpt lat="46.63734" lon="4.77782">
        <ele>184</ele>
        <time>2012-08-17T10:08:06.000Z</time>
      </trkpt>
      <trkpt lat="46.63729" lon="4.77766">
        <ele>185</ele>
        <time>2012-08-17T10:08:08.000Z</time>
      </trkpt>
      <trkpt lat="46.63724" lon="4.77756">
        <ele>185</ele>
        <time>2012-08-17T10:08:10.000Z</time>
      </trkpt>
      <trkpt lat="46.63718" lon="4.7773">
        <ele>185</ele>
        <time>2012-08-17T10:08:13.000Z</time>
      </trkpt>
      <trkpt lat="46.63712" lon="4.77659">
        <ele>185</ele>
        <time>2012-08-17T10:08:21.000Z</time>
      </trkpt>
      <trkpt lat="46.637" lon="4.77597">
        <ele>186</ele>
        <time>2012-08-17T10:08:29.000Z</time>
      </trkpt>
      <trkpt lat="46.63689" lon="4.77516">
        <ele>186</ele>
        <time>2012-08-17T10:08:40.000Z</time>
      </trkpt>
      <trkpt lat="46.63686" lon="4.77502">
        <ele>186</ele>
        <time>2012-08-17T10:08:42.000Z</time>
      </trkpt>
      <trkpt lat="46.63672" lon="4.77429">
        <ele>186</ele>
        <time>2012-08-17T10:08:52.000Z</time>
      </trkpt>
      <trkpt lat="46.63664" lon="4.77358">
        <ele>186</ele>
        <time>2012-08-17T10:09:02.000Z</time>
      </trkpt>
      <trkpt lat="46.63665" lon="4.77311">
        <ele>186</ele>
        <time>2012-08-17T10:09:11.000Z</time>
      </trkpt>
      <trkpt lat="46.63663" lon="4.77296">
        <ele>186</ele>
        <time>2012-08-17T10:09:14.000Z</time>
      </trkpt>
      <trkpt lat="46.63654" lon="4.77228">
        <ele>186</ele>
        <time>2012-08-17T10:09:24.000Z</time>
      </trkpt>
      <trkpt lat="46.63647" lon="4.77216">
        <ele>186</ele>
        <time>2012-08-17T10:09:26.000Z</time>
      </trkpt>
      <trkpt lat="46.63639" lon="4.77209">
        <ele>186</ele>
        <time>2012-08-17T10:09:28.000Z</time>
      </trkpt>
      <trkpt lat="46.63626" lon="4.77199">
        <ele>186</ele>
        <time>2012-08-17T10:09:31.000Z</time>
      </trkpt>
      <trkpt lat="46.63588" lon="4.77176">
        <ele>187</ele>
        <time>2012-08-17T10:09:40.000Z</time>
      </trkpt>
      <trkpt lat="46.63579" lon="4.77172">
        <ele>187</ele>
        <time>2012-08-17T10:09:42.000Z</time>
      </trkpt>
      <trkpt lat="46.6357" lon="4.77171">
        <ele>188</ele>
        <time>2012-08-17T10:09:45.000Z</time>
      </trkpt>
      <trkpt lat="46.63562" lon="4.77175">
        <ele>188</ele>
        <time>2012-08-17T10:09:48.000Z</time>
      </trkpt>
      <trkpt lat="46.63557" lon="4.77175">
        <ele>188</ele>
        <time>2012-08-17T10:09:50.000Z</time>
      </trkpt>
      <trkpt lat="46.63549" lon="4.7718">
        <ele>188</ele>
        <time>2012-08-17T10:09:53.000Z</time>
      </trkpt>
      <trkpt lat="46.63546" lon="4.77183">
        <ele>188</ele>
        <time>2012-08-17T10:09:55.000Z</time>
      </trkpt>
      <trkpt lat="46.63544" lon="4.77184">
        <ele>189</ele>
        <time>2012-08-17T10:09:57.000Z</time>
      </trkpt>
      <trkpt lat="46.63543" lon="4.77186">
        <ele>189</ele>
        <time>2012-08-17T10:10:00.000Z</time>
      </trkpt>
      <trkpt lat="46.63535" lon="4.7719">
        <ele>189</ele>
        <time>2012-08-17T10:10:06.000Z</time>
      </trkpt>
      <trkpt lat="46.63532" lon="4.77188">
        <ele>189</ele>
        <time>2012-08-17T10:10:08.000Z</time>
      </trkpt>
      <trkpt lat="46.63528" lon="4.77181">
        <ele>189</ele>
        <time>2012-08-17T10:10:11.000Z</time>
      </trkpt>
      <trkpt lat="46.63526" lon="4.77176">
        <ele>189</ele>
        <time>2012-08-17T10:10:14.000Z</time>
      </trkpt>
      <trkpt lat="46.63526" lon="4.77171">
        <ele>189</ele>
        <time>2012-08-17T10:10:17.000Z</time>
      </trkpt>
      <trkpt lat="46.63527" lon="4.77169">
        <ele>189</ele>
        <time>2012-08-17T10:10:23.000Z</time>
      </trkpt>
      <trkpt lat="46.63529" lon="4.77168">
        <ele>189</ele>
        <time>2012-08-17T10:10:27.000Z</time>
      </trkpt>
      <trkpt lat="46.63545" lon="4.77168">
        <ele>189</ele>
        <time>2012-08-17T10:10:35.000Z</time>
      </trkpt>
      <trkpt lat="46.63547" lon="4.77169">
        <ele>189</ele>
        <time>2012-08-17T10:10:38.000Z</time>
      </trkpt>
      <trkpt lat="46.63547" lon="4.77171">
        <ele>189</ele>
        <time>2012-08-17T10:10:41.000Z</time>
      </trkpt>
      <trkpt lat="46.63547" lon="4.77173">
        <ele>189</ele>
        <time>2012-08-17T10:10:44.000Z</time>
      </trkpt>
      <trkpt lat="46.63546" lon="4.77176">
        <ele>189</ele>
        <time>2012-08-17T10:10:47.000Z</time>
      </trkpt>
      <trkpt lat="46.63544" lon="4.77177">
        <ele>189</ele>
        <time>2012-08-17T10:10:50.000Z</time>
      </trkpt>
      <trkpt lat="46.63543" lon="4.77179">
        <ele>189</ele>
        <time>2012-08-17T10:10:52.000Z</time>
      </trkpt>
      <trkpt lat="46.63542" lon="4.77178">
        <ele>189</ele>
        <time>2012-08-17T10:10:56.000Z</time>
      </trkpt>
      <trkpt lat="46.63542" lon="4.77175">
        <ele>189</ele>
        <time>2012-08-17T10:11:04.000Z</time>
      </trkpt>
      <trkpt lat="46.63543" lon="4.77174">
        <ele>189</ele>
        <time>2012-08-17T10:11:06.000Z</time>
      </trkpt>
      <trkpt lat="46.63545" lon="4.77175">
        <ele>189</ele>
        <time>2012-08-17T10:11:09.000Z</time>
      </trkpt>
      <trkpt lat="46.63547" lon="4.77175">
        <ele>189</ele>
        <time>2012-08-17T10:11:12.000Z</time>
      </trkpt>
      <trkpt lat="46.63548" lon="4.77172">
        <ele>189</ele>
        <time>2012-08-17T10:11:15.000Z</time>
      </trkpt>
      <trkpt lat="46.63549" lon="4.7717">
        <ele>189</ele>
        <time>2012-08-17T10:11:17.000Z</time>
      </trkpt>
      <trkpt lat="46.63551" lon="4.77166">
        <ele>188</ele>
        <time>2012-08-17T10:11:20.000Z</time>
      </trkpt>
      <trkpt lat="46.63556" lon="4.7716">
        <ele>188</ele>
        <time>2012-08-17T10:11:23.000Z</time>
      </trkpt>
      <trkpt lat="46.63559" lon="4.77156">
        <ele>188</ele>
        <time>2012-08-17T10:11:25.000Z</time>
      </trkpt>
      <trkpt lat="46.63565" lon="4.77153">
        <ele>188</ele>
        <time>2012-08-17T10:11:28.000Z</time>
      </trkpt>
      <trkpt lat="46.63569" lon="4.77152">
        <ele>188</ele>
        <time>2012-08-17T10:11:30.000Z</time>
      </trkpt>
      <trkpt lat="46.6358" lon="4.77147">
        <ele>188</ele>
        <time>2012-08-17T10:11:36.000Z</time>
      </trkpt>
      <trkpt lat="46.6358" lon="4.77147">
        <ele>188</ele>
        <time>2012-08-17T10:11:56.000Z</time>
      </trkpt>
      <trkpt lat="46.63544" lon="4.77161">
        <ele>188</ele>
        <time>2012-08-17T10:12:06.000Z</time>
      </trkpt>
      <trkpt lat="46.6354" lon="4.77183">
        <ele>188</ele>
        <time>2012-08-17T10:12:16.000Z</time>
      </trkpt>
      <trkpt lat="46.63538" lon="4.77188">
        <ele>188</ele>
        <time>2012-08-17T10:12:19.000Z</time>
      </trkpt>
      <trkpt lat="46.63538" lon="4.77188">
        <ele>188</ele>
        <time>2012-08-17T10:12:39.000Z</time>
      </trkpt>
      <trkpt lat="46.63538" lon="4.77172">
        <ele>188</ele>
        <time>2012-08-17T10:12:58.000Z</time>
      </trkpt>
      <trkpt lat="46.63542" lon="4.77163">
        <ele>189</ele>
        <time>2012-08-17T10:13:14.000Z</time>
      </trkpt>
      <trkpt lat="46.63542" lon="4.77163">
        <ele>189</ele>
        <time>2012-08-17T10:13:34.000Z</time>
      </trkpt>
      <trkpt lat="46.63526" lon="4.77182">
        <ele>189</ele>
        <time>2012-08-17T10:13:42.000Z</time>
      </trkpt>
      <trkpt lat="46.63559" lon="4.77178">
        <ele>189</ele>
        <time>2012-08-17T10:13:47.000Z</time>
      </trkpt>
      <trkpt lat="46.63559" lon="4.77177">
        <ele>189</ele>
        <time>2012-08-17T10:13:51.000Z</time>
      </trkpt>
      <trkpt lat="46.63557" lon="4.77177">
        <ele>189</ele>
        <time>2012-08-17T10:13:56.000Z</time>
      </trkpt>
      <trkpt lat="46.63556" lon="4.77176">
        <ele>189</ele>
        <time>2012-08-17T10:13:58.000Z</time>
      </trkpt>
      <trkpt lat="46.63556" lon="4.77176">
        <ele>189</ele>
        <time>2012-08-17T10:13:59.000Z</time>
      </trkpt>
    </trkseg>
  </trk>
</gpx>